GFSSGP_con_3kmhel_000.txt.gz
Helicity
151 169 93 133 88 4 9 94 -7 -6 -2 -16 0 7 3 30 55 -42 -77 -57 -64 -61 -29 -19 31 26 10 15 19 -7 -19 -32 26 45 49 48 55 47 26 20 7 9 0 4 -12 -16 -13 -11 -8
108 96 96 103 44 -4 12 6 8 18 -3 -23 -3 -20 -3 -5 23 -20 -54 -60 -47 -70 -20 -17 34 30 9 8 5 -37 -42 -43 23 29 35 41 39 26 19 12 5 -12 -13 -17 -15 -12 -10 -9 -4
79 84 86 60 28 47 18 -3 -6 -8 -20 -1 10 18 -8 -40 -11 -28 -23 -33 -35 -28 19 -6 27 14 3 4 -21 -50 -50 -4 16 15 18 28 21 16 14 13 3 -7 -15 -10 -8 -9 -8 -3 7
49 81 101 36 9 22 -6 -3 2 -10 -16 6 5 -11 19 -27 3 -10 -35 -37 -50 -33 7 -3 25 4 -22 -26 -38 -41 -40 -31 -34 -32 -46 -28 2 10 6 7 -10 -20 -15 -16 -19 -15 -2 3 5
54 45 15 -11 -1 1 -3 3 -3 1 4 10 -13 -7 0 -35 2 -19 -45 -25 -35 -22 -11 -13 1 -13 -24 -28 -21 -20 -17 -27 -23 -15 -14 -14 -5 15 4 4 -5 -14 -8 -7 -6 -3 1 7 7
73 20 -11 -2 -13 -29 -27 -16 -28 -3 1 8 -7 31 1 -57 -45 -50 -40 -34 -23 -31 -29 -27 -20 -22 -19 -18 -12 -11 -9 -14 -13 -10 -8 -6 2 11 2 -6 -13 -7 -4 3 7 5 10 6 2
54 46 12 -6 -15 -29 -24 -16 -45 -10 -11 -17 32 14 2 -26 -47 -50 -41 -25 -38 -41 -45 -29 -14 -22 -21 -20 -15 -13 -9 -11 -11 -6 -6 -7 1 1 -3 4 -2 1 1 9 8 -3 0 5 -6
43 57 22 35 -14 8 19 26 -26 -22 5 14 -15 7 21 17 -16 -22 -32 -36 -37 -37 -35 -35 -31 -11 -6 -14 -19 -17 -17 -14 -14 -14 -13 -3 3 -2 11 24 7 -3 -3 -3 -4 7 11 3 -3
13 64 -3 4 44 45 54 -2 -17 -9 12 15 -2 9 61 52 14 7 -2 -30 -39 -40 -36 -28 -18 -10 -2 -19 -19 -13 -15 -18 -18 -7 -5 10 5 -2 2 -44 -13 3 -1 -5 6 13 3 16 27
43 71 22 14 1 56 70 24 44 24 47 30 0 20 76 69 41 32 19 3 -8 -20 -26 -14 -11 -10 -19 -12 -23 -14 -14 -11 -4 -2 -9 1 -13 -9 2 -2 -5 1 2 2 3 3 14 31 -16
-6 72 18 -11 -10 60 97 34 33 -11 48 63 64 31 88 84 48 32 20 18 18 -1 -13 -12 -12 -14 -15 -27 -20 -24 -19 -17 -11 -6 -4 -9 -6 -11 -7 -7 -2 -2 8 10 16 12 -3 -20 -27
30 15 26 9 -12 32 92 68 34 5 29 41 48 62 119 86 56 27 9 5 6 6 1 -3 -12 -14 -14 -38 -20 -17 -14 -12 -10 -6 -3 -4 0 -7 -7 -14 -16 -9 -18 -14 -6 -13 -26 -28 -31
48 29 21 3 -14 -14 47 55 30 -1 -19 18 42 73 98 91 59 31 21 9 3 5 4 3 -4 -6 -7 -10 -16 -15 -11 -8 -7 -9 -1 -1 -2 -11 -8 -16 -10 -13 -7 -17 -22 -26 -31 -32 -35
18 19 22 -6 -22 5 35 24 -1 -13 -5 -12 52 83 78 82 64 29 19 11 8 2 2 1 4 -1 0 -2 2 -11 -14 -14 -10 -8 -6 0 -5 -24 -20 -19 -15 -10 -8 -10 -11 -21 -25 -30 -38
11 20 5 9 24 14 7 60 48 -22 -21 -40 9 42 66 62 61 59 44 31 11 5 4 7 1 6 8 5 -6 -4 -10 -6 -7 -10 -12 -8 -9 -14 -9 -15 -5 0 6 5 11 -1 -6 -33 -29
-21 11 20 28 47 26 22 70 75 64 7 -42 -28 1 14 35 52 46 45 34 20 7 8 2 -2 15 6 5 -2 -11 -12 -5 -2 -10 -19 -12 -7 -7 -9 -10 -3 3 6 12 28 10 24 10 3
-20 11 4 48 6 11 28 28 79 64 43 -18 -42 -33 -8 -2 27 40 31 25 19 13 11 8 8 13 14 5 4 3 1 -16 -28 -18 -10 9 0 -4 -3 0 6 29 13 7 -14 26 39 24 27
-12 8 27 -11 -34 -10 37 31 21 57 71 48 -1 -27 -41 -19 15 28 26 26 19 17 10 5 6 5 15 7 3 -9 -6 -8 -15 -17 -8 -2 7 22 17 9 1 13 22 -11 24 59 60 46 37
3 -11 9 31 32 8 55 50 2 -9 46 64 55 29 6 -16 7 9 10 20 29 31 35 27 24 20 11 7 7 12 2 -10 -21 -20 -11 -4 -1 6 8 7 23 26 -7 42 56 30 34 29 49
20 -23 -6 22 42 14 13 46 21 14 66 69 88 74 35 -11 -22 1 10 15 29 44 39 32 13 16 18 -2 -7 -28 -27 -18 8 -4 -4 2 11 20 17 9 12 33 34 27 34 28 16 27 34
-39 -11 -38 14 8 6 35 31 29 7 19 47 52 77 41 29 49 37 24 25 35 52 45 31 19 7 2 -14 -19 -33 -37 -21 -14 -10 -15 -9 -10 -4 -9 0 4 32 1 39 40 32 24 24 50
-46 -31 34 33 44 20 29 13 18 15 39 64 90 91 76 87 95 32 34 45 55 55 36 32 1 -19 -20 -17 -32 -19 -37 -33 -30 -45 -60 -82 -66 -49 -18 4 20 5 18 56 52 42 19 20 41
-73 2 27 43 43 43 71 43 41 66 -4 28 97 126 120 113 95 115 92 75 51 46 42 18 -16 -36 -43 -30 -61 -46 -54 -54 -71 -66 -76 -90 -48 -18 16 38 43 24 24 62 39 35 28 32 25
44 43 63 40 48 -9 -7 70 18 32 -3 7 37 83 109 115 110 90 79 67 40 28 27 -8 -18 -45 -59 -65 -54 -64 -68 -69 -66 -47 -40 -40 -11 14 25 48 56 53 53 52 31 29 23 15 17
83 79 86 94 83 23 65 -11 3 32 35 1 2 64 56 99 125 113 82 73 39 33 13 -3 -14 -38 -58 -74 -75 -72 -65 -64 -66 -61 -34 -37 -8 12 53 53 60 55 55 58 33 34 26 22 10
74 61 61 60 76 72 21 24 -29 27 19 11 16 5 62 46 113 138 112 99 72 50 15 2 -8 -29 -29 -61 -87 -92 -82 -82 -64 -50 -45 -9 2 25 36 49 56 48 71 63 71 50 14 33 21
102 112 39 27 43 43 35 94 -7 23 21 3 6 23 39 47 44 121 127 110 109 60 25 16 -10 -2 12 -28 -77 -89 -84 -58 -43 -35 -5 13 19 44 67 76 69 63 62 66 69 29 50 37 34
86 111 102 71 58 47 39 34 39 2 7 4 33 41 23 55 48 71 117 155 156 100 36 25 17 20 21 12 -24 -52 -39 -36 -24 -5 44 48 58 40 88 75 75 104 89 64 62 45 60 45 37
129 121 115 74 82 57 49 30 16 30 34 40 31 19 10 53 86 53 70 124 180 118 56 40 31 23 28 34 28 11 20 32 24 35 47 48 115 119 72 60 82 76 88 79 62 34 40 55 39
52 97 98 172 122 79 38 14 45 35 12 -8 8 26 31 44 83 73 54 67 155 136 94 48 40 27 30 68 83 65 78 91 102 94 66 117 84 162 128 79 55 46 68 89 70 55 43 47 35

GFSSGP_con_3kmhel_003.txt.gz
Helicity
227 235 54 11 28 -46 7 -15 -18 -63 12 16 -27 58 6 3 74 -24 -40 1 -42 -51 -50 -46 2 -4 -21 -18 -12 -14 -22 -26 40 46 53 49 42 24 25 17 12 9 5 -0 -5 -6 -7 -10 -2
204 104 203 67 -49 -54 23 -2 16 1 29 -19 -19 16 12 -6 -38 -1 -29 -58 -18 -36 -34 -46 5 -12 -19 -26 -21 -23 -31 -27 10 23 22 29 29 23 21 13 11 8 1 -9 -10 -10 -7 -4 -4
139 129 221 82 12 -6 16 8 39 14 -0 -5 -8 32 19 -43 -7 -13 -27 -28 -30 -58 -50 -34 -8 -17 -26 -24 -21 -28 -37 -36 -16 1 10 16 17 17 13 7 10 8 4 -11 -10 -6 -8 -10 -9
75 106 106 25 20 17 16 36 4 -9 3 10 29 18 -16 -6 3 13 -21 -17 -35 -44 -58 -37 -26 -19 -21 -22 -26 -30 -36 -33 -23 -17 3 11 17 17 12 11 11 11 2 2 -4 -3 2 -4 -14
85 82 145 -2 4 16 20 19 -13 -8 19 -9 44 31 34 -1 47 3 -17 -38 -33 -23 -20 -19 -26 -25 -24 -25 -24 -25 -21 -20 -26 -30 -20 -0 16 13 14 19 12 -6 -1 13 26 24 14 1 -9
44 52 93 41 12 2 20 -14 -4 42 22 2 63 25 -0 -11 13 -5 2 -40 -25 -27 -20 -20 -22 -26 -28 -26 -26 -16 -18 -31 -32 -32 -27 -11 8 6 19 26 12 -7 8 26 31 23 14 6 -11
72 83 31 44 12 4 14 -0 -12 18 11 5 20 28 16 5 -6 -6 1 -29 -14 -21 -22 -10 -14 -20 -25 -27 -21 -24 -23 -23 -13 -12 -3 -1 1 -9 10 18 11 -2 7 12 8 -4 -8 -5 -14
53 33 18 68 19 32 23 -16 28 14 26 33 -6 17 35 31 -7 12 -24 -21 -22 3 -31 -9 -9 -14 -14 -16 -17 -19 -16 -18 -12 -6 -3 5 5 -0 16 16 22 17 5 -4 20 27 19 25 25
42 74 39 42 154 44 13 26 -2 28 31 -6 31 40 56 45 4 22 21 -11 -32 -18 -9 -17 -22 -30 -15 -18 -23 -20 -18 -14 -9 -2 -2 22 14 23 12 36 34 14 28 21 27 27 28 20 17
24 60 83 49 40 61 3 26 29 9 29 26 28 86 95 43 36 48 33 5 -4 -11 8 -6 -9 -9 -2 -18 -20 -17 -13 -4 3 -0 -5 19 -25 -23 8 9 9 13 15 15 11 19 16 46 60
37 91 163 17 48 43 27 21 25 19 19 43 32 63 56 55 35 38 21 10 6 -0 -12 35 -12 -19 6 27 -28 -26 -22 -14 -12 -7 -5 -0 -16 11 37 45 55 44 40 57 -5 53 -0 -18 -22
28 71 67 26 26 -3 35 34 20 -2 39 37 33 51 56 50 36 23 16 1 -0 -3 -9 -27 -5 -18 -14 -25 -28 -8 -13 -4 -10 -6 -2 1 -6 7 -2 -44 -8 -12 -6 -38 -14 -23 -23 -24 -27
2 33 11 2 28 5 37 36 35 10 22 31 57 45 32 31 35 18 1 -4 -6 6 4 -0 -6 -13 -14 -13 -19 -15 -7 -19 -13 -26 -11 -3 6 -38 -39 -13 -7 -19 -30 -31 -12 -15 -25 -23 -22
-3 -8 20 12 31 6 -6 49 16 47 16 52 59 34 18 22 30 15 5 4 2 12 12 11 6 -5 -18 -17 5 -15 -19 -19 -13 -13 -11 -13 -7 -4 -20 -20 -21 -5 10 -22 -9 25 -16 -32 -12
33 5 8 7 25 27 -31 43 5 81 34 47 35 18 15 17 26 31 27 21 17 2 4 6 4 6 4 -3 -6 -15 -12 -7 -16 -10 -28 -8 -5 -5 -8 -19 -8 -24 35 26 21 35 71 9 -0
-0 20 22 54 20 37 -10 63 58 37 40 29 -3 -2 10 25 31 26 26 27 26 14 18 2 -4 17 12 -1 -4 -10 -7 -29 -14 -22 -11 23 -1 -6 -4 -5 4 44 16 21 23 10 -9 41 23
-1 2 33 80 38 54 8 -7 53 50 30 17 -7 -33 -11 8 22 38 32 21 14 8 23 16 14 10 33 18 -6 -3 -15 -32 -41 -27 -48 -31 2 -1 -6 -12 -29 76 11 41 35 45 41 79 26
-15 13 16 81 64 12 1 32 41 48 19 14 11 -16 -47 -22 14 27 21 26 15 31 17 24 24 14 11 17 -2 -21 -6 -18 -23 -32 -25 -15 -14 -4 4 -6 25 23 34 41 49 71 79 46 20
8 6 9 4 104 1 23 25 68 49 11 7 32 -3 2 -35 -2 11 22 25 42 41 47 45 44 57 29 51 38 -0 -3 -18 -12 -13 71 -0 7 31 45 5 67 42 25 75 83 51 30 37 63
1 -3 -5 12 94 17 10 11 35 87 8 2 4 25 15 6 -21 -9 26 21 51 67 84 91 88 91 64 64 10 -26 17 20 1 15 20 31 30 43 46 22 42 61 40 56 54 38 28 34 76
-34 -22 -32 -14 138 -31 19 4 24 53 77 13 9 9 33 20 27 72 23 36 51 74 81 115 111 107 88 22 27 10 17 7 21 31 45 19 10 8 18 20 9 46 26 27 65 27 29 19 57
-29 -30 26 -16 108 46 36 -4 63 33 47 79 53 64 67 97 49 98 97 52 53 77 94 83 114 90 85 55 -1 68 34 14 8 12 28 44 2 4 -2 -9 11 37 9 59 43 29 8 15 26
-25 -28 -33 11 51 122 19 -0 28 -4 62 73 64 55 60 56 88 133 215 135 70 85 95 96 118 100 55 81 2 48 -6 4 -8 -12 14 -50 -25 -24 -8 6 33 21 3 62 34 32 14 20 13
-14 14 12 10 28 2 24 66 -10 178 -23 52 67 69 75 50 84 123 117 161 115 77 89 97 140 114 66 68 29 -10 45 -42 -8 -44 -33 -24 -17 1 15 28 50 39 26 57 24 25 14 4 24
25 18 50 41 55 -18 17 77 83 28 47 41 9 58 93 112 84 123 150 156 164 102 122 112 140 104 64 53 36 22 -9 -13 -51 -51 -27 -13 -2 15 75 44 58 61 55 74 46 47 26 21 14
38 22 74 77 48 51 18 21 -28 -2 25 44 41 19 83 98 84 101 116 111 196 181 145 131 125 100 69 46 42 27 -1 -37 -41 -29 -33 -29 -1 32 88 61 53 44 78 66 72 65 32 47 30
28 73 18 12 24 29 38 53 14 57 55 49 34 14 44 94 88 94 103 113 134 156 181 152 117 96 63 54 64 38 -1 -49 -30 -23 -5 -6 16 38 66 73 69 78 81 79 79 44 83 52 46
-9 63 64 65 52 41 30 27 55 66 45 15 35 15 45 48 62 87 102 125 107 138 146 112 93 90 66 64 66 37 -3 -26 -32 22 16 27 52 43 102 85 94 150 213 169 118 62 74 69 37
57 24 78 66 61 54 49 37 43 45 39 13 3 1 53 40 54 73 144 121 131 119 142 105 75 66 79 99 96 77 52 47 26 40 61 96 66 113 157 153 170 224 157 212 183 58 50 94 58
12 34 34 84 77 76 22 34 68 45 60 21 52 56 27 86 58 65 97 103 116 127 167 134 90 65 79 132 150 148 126 117 134 148 192 185 132 203 217 235 249 280 232 196 287 87 76 82 60

GFSSGP_con_3kmhel_006.txt.gz
Helicity
194 108 -11 36 3 39 1 28 47 135 26 69 38 41 17 17 -37 -13 -30 -33 -56 -76 -56 -23 -28 -21 -24 -26 -22 -14 -6 5 10 19 25 20 11 20 13 10 8 11 10 7 11 -5 -9 -11 -14
155 67 13 115 -151 173 -1 10 -69 -13 27 138 48 -11 -3 19 14 -11 -55 -16 -22 -20 -19 -16 -19 -21 -25 -24 -17 -12 -24 -16 -4 13 19 11 14 13 11 10 8 10 9 8 5 -1 -11 -10 -14
115 204 107 24 5 35 -22 43 -35 19 74 8 -16 -12 -4 5 47 13 -31 -29 -29 -37 -44 -28 -17 -17 -21 -19 -18 -23 -30 -28 -21 -6 0 3 11 11 14 13 12 17 14 10 4 -6 -9 -5 -8
-44 63 62 127 58 -65 73 -23 16 24 54 10 73 41 -14 12 15 -2 -24 -24 -22 -47 -29 -12 -4 -11 -18 -20 -24 -28 -33 -33 -28 -15 -5 0 5 10 15 14 23 21 13 9 2 -10 -8 -13 -3
72 104 103 -19 20 50 -6 43 111 34 109 93 122 84 56 17 21 18 0 -17 -17 -22 -17 -5 -4 -12 -16 -20 -22 -27 -24 -27 -25 -17 -7 1 7 11 21 24 22 20 20 20 6 6 -5 -20 -34
49 33 124 23 13 4 17 28 29 -13 48 52 82 58 1 47 7 41 -6 -19 -21 -15 -1 -6 -9 -15 -16 -14 -22 -22 -24 -22 -24 -23 -12 5 9 19 34 36 18 21 13 -6 9 21 -5 -17 -32
50 211 44 103 48 26 11 14 21 67 63 63 131 37 -21 28 70 23 9 -26 -4 -11 -4 -11 -10 -18 -18 -17 -16 -21 -22 -24 -22 -15 -4 9 11 24 41 47 27 12 12 0 21 -5 0 18 39
374 111 55 74 12 61 13 22 -5 34 127 58 72 51 99 29 100 6 27 -14 -13 -4 -4 -12 -14 -14 -20 -18 -14 -22 -23 -20 -10 -1 7 5 6 18 26 41 40 40 40 32 37 41 24 15 13
57 -39 46 17 15 52 -14 56 0 47 22 138 -42 126 71 96 47 42 28 -2 -57 -7 -5 -20 -2 -15 -19 -12 -17 -18 -12 -8 -4 2 11 3 7 28 64 43 79 56 57 32 25 22 11 15 22
-4 19 46 142 39 45 -5 38 36 19 -4 28 66 129 74 77 70 45 42 7 -11 12 13 -32 -18 8 -23 -12 -5 -12 -8 -3 0 8 25 9 23 7 42 40 16 40 -4 8 9 17 10 77 40
-8 18 53 173 26 -26 11 49 19 66 -1 72 153 151 83 19 139 21 27 3 6 -4 -10 63 42 -14 -14 42 -24 -21 -7 -14 -27 -3 13 -9 -15 -10 23 36 58 15 -8 39 6 27 2 -26 -22
-20 81 128 48 13 24 28 51 24 55 32 73 75 118 42 17 42 98 38 -8 30 17 69 45 15 -17 -39 -27 -36 -31 -6 -12 -10 20 -2 -30 0 -18 47 34 12 4 20 37 34 -34 7 5 -23
17 91 79 26 39 0 20 57 65 3 48 55 65 98 34 15 -2 93 20 32 18 24 62 42 24 1 1 -19 -10 -23 -9 -29 32 46 13 -31 -36 -30 -23 6 -5 4 2 25 -10 40 49 -4 -5
27 -3 15 9 16 5 22 67 57 41 45 47 103 103 45 18 10 30 27 5 58 36 26 90 38 24 1 -18 2 -21 -19 -31 -3 -9 71 -4 -20 -5 -17 -26 -29 -12 8 41 -3 43 0 -11 49
46 35 3 13 23 35 -21 73 33 103 12 52 73 73 50 25 29 30 -4 18 -12 42 41 92 100 49 33 -21 6 -13 -25 -18 -31 -20 18 16 8 24 -25 -21 -4 38 34 40 41 21 29 -10 29
21 22 0 22 32 31 -5 31 40 103 33 45 69 50 52 28 45 37 27 15 13 53 62 78 19 72 36 11 -5 -13 -13 -39 -44 -33 -15 56 45 34 -8 -10 44 -35 60 96 40 75 60 36 80
8 -18 18 42 30 53 17 67 48 59 57 45 42 39 35 25 14 46 34 20 34 34 96 69 9 77 108 68 10 0 -53 -8 -35 -54 -7 70 133 22 25 -16 59 39 94 72 75 52 61 75 84
-6 -2 -9 16 30 37 57 186 282 22 43 10 51 45 21 18 23 79 28 43 20 82 101 100 11 29 152 108 53 -5 -8 41 -22 -42 -24 28 32 56 56 -11 58 63 89 91 76 61 71 66 52
18 -1 23 5 32 6 116 242 -139 -125 -10 18 53 18 54 24 26 46 42 59 57 111 136 124 83 60 123 140 82 39 6 25 2 -5 -27 39 97 53 57 21 54 69 34 100 86 83 56 27 35
1 15 -4 25 84 5 25 165 169 -84 -2 32 41 48 12 30 33 25 79 35 93 110 164 158 140 107 113 120 91 63 31 -34 -8 -31 170 108 31 53 69 37 20 73 75 40 119 53 27 32 73
-30 -14 -1 14 75 48 13 7 100 9 53 39 42 47 44 53 59 130 78 66 84 154 193 197 163 143 159 116 108 2 -28 -29 20 4 95 81 99 89 70 46 21 45 67 104 84 33 28 24 19
-13 -22 15 37 141 -19 36 -59 22 -2 72 80 85 21 64 118 92 102 263 220 92 155 198 200 208 174 165 93 118 85 75 39 60 60 47 88 88 61 72 26 20 68 67 85 70 54 31 26 5
-17 -16 -6 21 31 133 50 -14 29 33 68 151 89 70 39 80 102 123 292 346 214 152 232 237 226 179 165 116 117 95 73 32 -11 -36 34 167 48 -4 17 34 74 80 37 85 112 102 54 11 19
-3 3 26 18 19 -1 55 122 18 52 132 18 121 71 41 57 119 155 230 314 321 180 266 236 227 193 152 143 103 82 97 0 7 24 111 52 9 37 48 72 97 85 54 80 66 70 49 55 37
-32 19 55 50 53 31 7 191 70 -1 70 7 167 133 91 63 136 204 269 343 354 276 292 336 259 224 167 149 116 83 82 -5 -29 -18 37 12 13 49 50 70 117 117 65 113 97 99 46 52 58
19 -36 92 102 82 31 17 36 99 156 64 157 81 128 124 152 137 212 269 353 332 315 246 330 375 276 202 158 134 89 88 20 -3 -2 7 28 21 0 169 116 143 124 125 121 138 125 99 73 70
14 23 -11 3 26 43 24 64 25 38 180 237 42 58 39 206 110 129 287 348 342 300 282 305 354 323 225 163 148 102 92 57 20 9 -11 31 18 93 175 135 150 128 171 126 133 110 163 146 76
-65 31 47 30 68 61 37 26 70 54 93 137 81 31 58 47 159 121 228 319 349 326 296 269 281 305 233 158 146 108 84 70 23 22 34 84 75 81 182 134 151 198 167 185 154 111 136 228 99
53 -14 -36 60 44 70 66 17 42 75 109 138 86 29 38 29 123 78 187 266 310 294 272 258 230 238 205 145 120 118 102 86 54 49 116 126 129 237 222 199 226 222 223 246 219 101 163 122 197
15 68 -12 50 89 102 35 35 8 22 125 114 83 71 42 24 108 136 147 251 327 303 237 250 203 198 201 178 140 123 115 108 107 121 181 226 241 286 237 280 282 287 308 302 269 156 156 200 142

GFSSGP_con_3kmhel_009.txt.gz
Helicity
96 22 -14 -60 -65 -3 -6 -7 -3 3 -37 5 52 -4 -8 32 -54 -48 -86 -28 -33 -52 0 -2 3 -28 -28 -22 -12 -11 -15 -5 1 -1 6 12 13 9 12 18 17 17 16 13 3 -6 -9 -11 8
74 39 8 56 -73 -28 38 -31 6 60 11 116 52 21 18 28 27 -46 -87 -37 -14 -14 -5 -11 -23 -26 -24 -21 -16 -20 -17 -1 5 4 8 7 5 3 17 26 22 19 21 23 9 -15 -14 -14 -6
161 96 68 -23 -7 -127 -2 -105 9 111 67 48 24 -11 22 17 8 -31 -66 -23 -29 -32 -29 -30 -23 -18 -20 -16 -19 -21 -18 -5 -4 -5 3 4 9 15 21 26 27 24 28 29 28 14 -5 -14 -4
15 38 140 52 11 -99 -32 -6 101 50 -14 35 83 55 63 -20 16 -56 -35 -36 -18 -6 -17 -14 -4 -6 -8 -11 -20 -22 -21 -15 -17 -15 -2 6 14 19 22 18 19 26 31 27 27 27 11 -3 3
2 108 217 49 -129 7 -21 71 -4 123 107 142 116 42 33 14 12 -47 -23 0 11 -7 -1 -4 5 -2 -2 -11 -20 -26 -24 -19 -19 -14 -4 5 8 21 28 12 23 40 47 41 32 27 29 25 8
27 60 60 116 -54 -38 -16 152 214 159 141 156 150 53 9 49 30 -7 4 6 3 8 -1 -6 -6 -3 -4 -10 -18 -21 -15 -11 -10 -7 1 5 9 19 26 30 38 38 32 28 23 24 27 37 16
160 160 145 159 122 57 105 77 81 143 170 23 132 151 3 26 -13 -11 2 -18 3 22 10 -8 -20 -16 -8 -13 -11 -11 -12 -2 0 9 9 9 14 19 26 40 45 42 29 31 32 26 17 12 15
159 50 46 49 113 94 -3 10 103 46 138 101 178 70 85 59 37 20 1 15 37 13 6 -9 -22 -30 -27 -23 -11 -6 -2 2 10 11 16 9 5 15 26 49 58 36 30 25 27 25 24 25 35
167 134 43 144 49 31 39 139 83 134 180 97 24 197 239 83 57 21 1 -8 -5 -17 -16 -12 -19 -28 -32 -26 -14 -8 0 0 6 6 8 9 8 22 29 25 32 26 34 12 10 28 40 59 60
70 147 181 51 127 2 37 91 27 93 154 119 160 190 169 117 103 51 53 35 -17 0 -1 -28 -22 -18 -13 -12 -21 -14 -9 -14 -10 -4 -6 5 8 -14 23 1 16 5 17 19 -4 14 53 25 26
77 11 36 5 81 -12 68 109 128 117 126 103 300 274 119 165 120 89 38 4 -7 24 -5 1 -22 -14 -12 -10 -2 -15 -24 -31 -23 10 17 24 10 37 3 -32 20 9 7 13 -1 -11 -10 12 -5
19 110 -4 72 -43 -12 108 54 179 100 169 187 274 253 130 148 102 120 46 25 -10 10 -5 26 2 5 -15 23 -10 -27 -36 -47 -33 -38 -3 2 47 19 18 12 14 -21 -3 19 8 -21 -3 15 -2
55 15 76 76 17 35 95 56 104 71 251 188 214 223 186 177 122 83 35 7 3 48 94 51 43 80 41 24 -20 -11 -16 -24 -7 11 12 -28 22 29 5 26 18 -24 16 2 24 36 14 9 4
58 32 12 90 46 118 69 149 91 169 198 202 237 151 126 196 163 62 -9 -38 35 151 131 116 74 54 31 -7 -20 -25 5 7 29 52 52 25 36 26 40 20 8 13 51 39 67 54 25 22 -6
18 33 39 8 41 42 127 430 74 156 202 312 272 155 6 85 140 118 65 -6 187 213 185 124 87 58 44 21 -21 -31 4 -15 -1 19 35 41 58 44 71 23 28 41 22 50 56 57 42 53 43
1 -2 -3 42 60 -32 168 193 -14 135 267 306 305 140 63 -16 34 87 27 101 180 179 204 151 109 94 48 60 13 -19 -13 6 -12 61 26 8 10 36 32 21 20 22 33 77 88 66 30 38 92
-71 -22 6 28 -23 71 140 232 149 130 232 265 326 182 110 32 -11 32 39 121 179 197 266 206 160 119 99 65 35 -18 -21 -27 -11 -5 60 113 109 58 43 42 43 45 42 93 98 62 65 63 68
-77 -86 -21 -22 23 136 183 180 72 64 166 225 296 271 137 88 47 105 91 54 157 194 250 185 189 167 89 53 75 19 -31 -28 7 64 52 33 64 50 51 34 55 52 87 90 75 56 55 61 49
-74 -30 -4 37 21 191 205 219 84 150 170 125 358 264 268 129 66 128 136 102 107 178 219 224 185 182 165 115 126 66 33 0 2 8 53 75 67 75 72 44 77 64 74 76 53 57 54 30 42
-78 -42 -54 -69 65 102 302 232 67 206 130 130 255 330 293 251 106 141 153 153 158 199 238 230 203 225 230 188 128 71 50 -15 -21 -11 -3 70 81 68 78 59 42 39 54 85 103 61 55 26 21
-72 -101 -34 -17 27 103 224 163 92 -5 81 39 -17 257 285 305 282 206 176 186 196 229 267 266 242 199 259 226 164 85 64 4 4 -6 -1 49 110 91 67 54 45 42 78 139 123 62 74 52 -2
-13 -54 56 74 36 -1 176 32 99 18 85 49 6 144 263 315 309 336 374 281 284 289 288 286 273 232 222 266 223 173 121 65 -25 24 102 87 85 92 93 76 62 74 105 134 88 75 58 63 37
-49 36 10 91 59 207 60 -7 82 181 317 152 -80 129 228 260 335 376 475 514 460 441 375 354 309 257 225 215 209 162 114 63 1 15 101 102 100 111 121 74 73 99 89 95 119 96 72 80 94
-12 46 25 32 20 42 122 37 84 146 267 28 -32 120 232 229 284 361 452 476 465 515 502 437 358 277 260 211 210 165 112 45 16 2 63 89 137 78 56 76 98 103 102 146 141 99 92 96 131
3 1 22 64 73 52 53 121 136 93 34 193 284 131 183 209 302 319 360 432 452 483 544 553 421 325 290 218 164 162 106 11 20 -1 59 130 120 71 63 129 158 139 109 94 100 88 96 126 115
-2 -5 51 95 96 73 62 89 -41 198 174 147 250 111 229 156 255 322 374 451 487 475 490 517 490 358 282 239 152 123 114 26 -17 28 65 145 111 89 126 152 176 143 114 110 100 100 84 151 151
-119 21 -64 68 79 67 72 59 8 -1 125 148 306 300 286 152 194 171 351 432 550 519 485 505 492 399 290 270 179 121 99 60 18 -17 38 87 74 87 107 151 193 167 121 150 143 107 119 80 108
29 27 100 -12 43 68 41 81 53 26 211 245 290 183 196 153 116 87 329 383 552 586 539 467 500 474 338 252 220 144 107 76 27 12 4 85 98 154 169 201 213 216 193 211 184 181 117 87 69
26 2 -8 114 27 67 111 29 -60 5 128 314 292 126 152 155 75 112 258 339 531 540 504 463 468 432 352 271 237 143 87 74 55 25 34 104 132 228 262 264 247 243 251 229 227 207 217 130 84
114 175 87 72 111 127 92 2 -6 -4 -36 216 323 159 31 154 104 144 283 334 478 490 477 464 470 431 377 297 238 159 86 73 75 61 54 105 198 253 327 336 294 296 278 312 336 289 268 188 129

GFSSGP_con_3kmhel_012.txt.gz
Helicity
69 82 12 13 -4 -9 -24 7 13 -8 0 5 -8 -18 -40 61 -41 -54 -63 -37 -63 -45 -7 -24 -46 -56 -55 -46 -30 -8 1 -7 -10 -1 2 6 15 19 23 28 27 20 8 3 -10 -14 -16 -4 3
80 21 16 -35 -146 26 28 25 -7 -17 40 88 9 24 32 13 29 -8 -66 -27 -55 -31 -15 -31 -42 -43 -42 -33 -25 -3 -6 -10 -2 -4 1 10 15 14 22 32 24 15 6 -11 -21 -20 -15 -8 -5
141 50 -28 -60 -72 -23 -25 5 -54 8 60 11 -23 6 -10 -6 -19 -44 -53 -46 -61 -42 -43 -44 -30 -28 -28 -24 -21 -8 -6 0 -4 -7 3 12 13 25 32 29 25 19 15 21 8 28 29 22 3
-11 -14 56 50 30 -12 5 48 15 23 6 -69 20 68 75 -51 -21 -44 -42 -48 -48 -41 -49 -30 -18 -13 -16 -21 -18 -11 -5 -4 -8 -6 7 15 27 30 32 27 26 32 29 38 42 46 44 44 31
-16 37 55 94 -1 -13 55 71 46 30 45 44 31 37 54 -25 7 -8 -35 -41 -27 -37 -38 -32 -8 -8 -9 -16 -15 -13 -11 -9 -8 -2 12 19 24 36 16 22 29 39 42 46 46 44 42 39 38
133 204 123 111 28 -4 80 89 -9 87 151 119 154 180 21 6 26 -21 -22 -17 -18 -8 -22 -21 -7 -6 -10 -11 -10 -11 -12 -6 -5 0 10 16 29 35 26 22 29 39 39 38 29 26 30 31 20
122 220 174 72 4 48 44 32 100 151 106 32 136 142 13 -5 -19 12 17 5 1 13 2 -12 -20 -11 -9 -14 -7 -2 0 1 4 16 14 19 31 26 20 6 20 39 36 24 18 16 17 15 17
35 169 137 112 20 -52 0 68 174 73 2 56 97 43 55 -30 -1 41 45 17 14 23 2 -7 -19 -24 -26 -22 -2 5 10 14 20 19 18 24 20 15 23 22 30 35 28 13 16 24 32 42 19
4 23 122 122 91 63 74 154 35 88 109 6 11 96 21 -8 9 52 51 14 -3 -3 3 -11 -17 -23 -28 -25 -10 3 16 19 19 16 23 12 5 6 17 16 33 21 21 15 19 28 30 35 14
106 133 35 78 72 88 161 113 198 205 157 74 104 92 59 40 51 108 75 55 2 -9 -10 -2 -18 -19 -19 -12 -17 -12 -9 -8 -9 -7 -4 -2 11 15 12 21 22 -11 5 5 16 17 1 -15 -1
106 183 183 122 109 187 138 158 171 272 189 314 277 170 99 92 55 100 65 51 20 -16 -15 -9 -13 -17 -14 -22 -25 -25 -30 -21 -22 -11 -12 1 11 32 8 25 9 -12 -15 -8 -3 -13 -14 -14 15
26 69 88 -17 -6 48 174 159 190 238 193 317 281 242 123 137 83 99 78 27 13 3 -9 -15 -13 -7 -19 -36 -24 -23 -33 -37 -51 -47 -18 0 18 34 26 12 0 -12 -11 -6 1 6 2 9 30
26 35 17 29 -9 81 152 215 176 130 283 242 234 226 146 107 86 117 103 49 36 22 2 -13 -19 -5 -11 -29 -22 -35 -45 -55 -81 -66 -50 -1 42 32 12 1 3 1 -13 -12 7 19 37 53 50
22 39 10 7 5 -10 142 59 227 172 290 300 318 181 140 129 77 51 84 59 53 40 20 -3 8 -3 9 -14 -12 -47 -44 -48 -42 -29 -24 25 54 26 -5 -19 -3 12 6 -5 40 53 42 57 72
22 32 17 31 -6 3 157 87 266 354 398 303 273 161 123 115 74 89 102 66 93 42 54 73 63 39 23 39 6 -8 -16 7 21 4 21 45 50 28 11 12 27 33 27 37 57 48 37 60 76
-53 -93 -89 23 -12 112 200 291 240 304 343 325 245 182 132 148 117 56 70 45 73 48 99 97 84 105 60 53 23 6 -7 7 4 33 34 64 59 46 25 29 28 26 23 43 57 48 32 27 42
51 -101 -34 -7 -25 87 170 254 205 240 291 296 257 229 159 158 110 57 68 57 121 109 143 156 108 116 72 46 40 15 9 15 53 58 74 80 62 45 31 37 31 42 69 78 67 40 47 52 57
-34 2 -50 -38 15 54 77 178 290 248 251 325 272 196 200 219 146 86 54 90 178 221 208 215 147 94 58 67 39 12 2 -1 21 53 66 79 61 66 53 53 49 68 88 77 63 54 54 71 67
-2 -135 -76 -37 -26 44 183 260 299 397 272 306 403 298 203 109 201 124 99 92 195 237 231 221 196 102 84 104 93 60 49 6 19 58 51 71 70 70 63 78 81 77 96 69 56 59 50 42 34
-55 -118 -111 -126 -31 -11 143 267 249 374 333 406 364 359 298 131 7 125 159 195 271 295 263 241 224 174 150 110 82 52 42 4 -33 10 -3 34 43 52 53 64 56 74 81 64 79 71 53 20 51
-92 -135 -140 -98 -26 -33 182 315 183 230 282 184 238 365 312 220 203 104 129 234 261 298 315 330 294 232 205 177 134 50 6 -20 -12 -12 -7 13 14 55 72 80 65 43 78 106 95 87 81 67 43
-133 -123 -48 -26 10 110 7 89 150 32 196 185 197 317 395 280 272 257 242 236 294 301 318 337 335 301 274 274 207 143 123 83 20 6 -6 16 26 107 96 91 62 58 70 116 103 85 67 71 60
-93 -3 -50 -2 23 68 9 51 84 113 92 60 194 258 345 382 337 336 401 386 379 351 335 345 388 367 325 266 238 213 160 105 43 17 -14 3 49 96 87 105 68 76 94 114 110 93 102 116 122
-51 13 31 39 53 94 57 53 99 155 64 31 90 235 265 341 339 305 423 458 443 412 370 362 377 361 354 315 257 254 200 130 66 54 27 22 39 47 71 103 94 89 102 104 96 73 95 136 169
-10 -11 18 15 45 -11 -1 86 -19 31 184 187 105 174 249 263 371 312 345 361 392 471 458 417 391 352 328 333 296 266 229 141 76 49 48 53 43 31 59 111 94 108 102 83 118 107 95 112 126
-26 11 2 119 99 25 52 68 53 44 139 222 189 225 209 218 247 390 341 424 424 459 526 527 470 380 345 273 249 226 204 115 42 42 58 51 65 104 124 126 123 118 111 112 111 110 93 70 46
-160 7 -14 -75 58 113 58 92 17 50 94 128 206 213 163 231 203 285 343 425 428 494 531 591 546 434 397 288 217 196 151 99 50 43 41 21 37 79 125 128 129 125 124 123 127 132 119 96 50
57 21 74 144 -90 4 43 83 68 71 -1 85 120 236 171 237 220 212 290 372 404 508 559 604 582 536 434 334 247 216 156 114 69 40 51 28 26 72 104 126 130 157 168 148 149 151 143 152 84
28 -37 118 98 74 -97 -122 -114 20 24 -25 35 216 310 233 327 259 189 259 334 405 480 589 575 539 471 356 297 217 202 140 123 100 28 20 40 31 65 115 166 151 171 199 197 195 196 183 181 141
12 47 123 153 154 99 -14 24 98 33 56 15 88 257 296 342 360 233 262 281 334 462 532 545 515 448 396 308 217 172 140 135 115 50 1 9 78 92 148 193 203 192 212 228 233 235 215 215 194

GFSSGP_con_3kmhel_015.txt.gz
Helicity
157 96 41 2 21 6 14 5 15 10 8 13 13 -12 19 52 12 -11 -33 -3 -68 -13 -17 -51 -70 -74 -60 -49 -47 -33 -15 5 11 10 7 8 10 15 13 12 6 2 -13 -28 -20 -16 -18 -15 -15
79 79 8 -23 45 -26 25 34 17 27 50 79 58 40 38 4 -26 41 -32 -74 -90 -46 -19 -89 -74 -71 -57 -49 -39 -25 -5 -0 -2 5 7 12 18 18 10 6 10 9 4 -21 -24 -24 -25 -18 -11
-1 28 -11 -75 23 12 -35 -3 -0 47 67 2 -12 46 -19 -14 23 -36 -50 -86 -90 -95 -77 -86 -65 -57 -45 -43 -31 -20 -9 -5 -2 4 9 15 20 18 18 19 26 30 33 26 24 15 -8 -19 -8
-29 5 -5 -55 -39 -9 -4 41 87 65 12 35 43 48 60 -6 -20 9 -57 -74 -81 -86 -89 -58 -39 -40 -35 -37 -27 -20 -10 -6 -3 4 15 21 26 22 30 32 37 37 36 38 32 30 32 -13 -22
8 65 43 35 -0 -48 8 18 126 74 4 2 1 29 44 -26 -28 -9 -52 -66 -64 -85 -75 -55 -29 -27 -23 -26 -23 -20 -15 -10 -2 14 22 25 24 25 27 35 36 35 33 29 24 22 14 -18 -22
12 94 84 43 -64 18 -20 8 28 -45 89 68 107 141 -0 -27 20 -44 -39 -55 -57 -51 -59 -48 -26 -16 -15 -15 -16 -15 -10 -5 6 17 17 22 22 24 24 33 29 25 25 24 16 12 1 8 19
53 121 140 85 -50 -40 -8 -26 55 100 80 68 120 137 26 -8 -27 -21 -46 -39 -37 -36 -46 -39 -39 -19 -7 -11 -5 -0 1 3 10 12 13 12 18 27 24 26 24 17 20 21 24 19 16 14 29
41 87 98 54 15 -67 -46 16 32 138 23 110 110 82 73 -10 -8 -19 -31 -25 -12 -20 -20 -32 -39 -31 -23 -20 7 6 5 10 13 19 16 16 22 25 23 18 22 13 11 10 19 17 2 3 5
8 57 64 30 61 38 54 48 80 51 115 -1 -28 47 58 17 42 35 25 -9 -14 -24 -14 -19 -26 -27 -20 -18 -7 5 18 18 20 20 19 24 11 18 21 19 20 16 14 9 18 19 10 -8 -11
-1 96 90 30 2 146 186 110 70 52 134 -8 5 116 121 78 94 101 86 53 6 -15 -22 -10 -16 -12 -13 -9 -15 -15 -7 -9 -9 -9 3 2 14 19 20 13 7 4 10 -2 4 12 -13 -36 -23
10 40 97 152 13 166 266 135 71 152 68 43 201 186 149 139 93 91 63 43 16 -10 -18 -15 -16 -11 -8 -9 -25 -16 -21 -22 -21 -15 -4 -4 -1 9 -13 2 2 -9 -0 -16 -17 -29 5 6 3
38 95 112 216 102 264 283 139 98 175 43 190 299 238 185 119 90 75 61 25 5 3 -1 -12 -16 -8 -19 -25 -21 -22 -24 -34 -36 -37 -24 -1 6 4 22 17 -7 -2 -8 -22 -13 -8 11 32 26
43 76 28 130 37 164 192 266 198 54 48 245 259 210 146 131 68 38 55 37 14 7 -9 -6 -5 -11 -26 -31 -35 -36 -31 -40 -52 -53 -29 -3 2 2 -1 -1 -1 8 1 -15 -14 9 8 24 43
-21 -37 -7 26 70 162 218 108 71 38 155 273 245 237 110 95 75 42 47 55 40 8 -2 -9 -3 -11 -18 -28 -27 -26 -41 -56 -67 -54 -34 -4 -6 5 24 8 14 28 28 14 24 15 19 31 40
2 -131 -46 -17 10 82 156 155 235 136 240 303 235 223 104 33 63 94 74 73 72 27 -7 4 -9 -17 -3 3 -28 -28 -43 -52 -46 -25 12 3 28 8 22 23 17 33 23 42 36 46 37 38 75
-28 -27 -129 7 28 10 294 292 143 243 325 281 250 190 125 44 89 55 86 81 65 25 19 -1 -24 -7 -13 -24 -36 -7 -17 -17 -21 -14 -6 46 53 36 27 36 23 37 61 87 63 67 52 64 68
-8 -137 -114 -48 3 67 152 161 247 278 311 316 233 197 98 31 1 48 76 103 93 35 19 4 10 4 11 -14 -33 -7 -6 -10 2 -2 16 48 79 69 36 27 29 65 80 86 82 60 52 65 47
22 -35 -142 -143 88 29 72 176 327 277 383 403 285 192 102 85 34 31 65 89 73 56 45 38 50 41 20 -3 -18 -19 -1 -12 -15 9 17 34 93 73 52 39 47 67 78 59 38 34 49 75 62
33 10 -164 -166 48 57 -18 116 301 261 178 257 376 301 165 88 64 31 34 48 43 24 73 109 87 73 59 22 13 27 80 50 49 43 45 45 41 35 56 49 76 75 63 55 56 57 60 58 42
58 33 -111 -81 -97 19 -2 -26 288 305 233 311 374 311 229 40 59 16 26 34 76 117 109 136 145 128 117 89 69 57 64 31 52 35 20 31 31 54 69 71 78 63 40 47 62 72 47 45 34
19 -51 -105 -56 -29 -1 23 40 71 171 34 117 222 303 218 156 161 17 58 77 81 122 146 177 225 191 148 113 84 66 19 -7 25 39 44 55 23 13 83 88 59 33 49 62 85 97 93 89 50
-162 -5 -39 -72 -107 -9 46 3 78 157 29 109 142 201 330 243 218 154 62 119 172 177 194 191 227 231 190 177 140 143 117 97 33 41 50 64 35 4 63 70 47 47 56 72 115 103 98 129 75
-95 2 -22 -60 -64 -2 39 115 69 214 66 17 104 160 249 367 349 323 291 265 225 219 207 220 254 266 252 244 201 165 145 117 76 39 27 34 15 4 42 53 60 52 46 59 83 87 109 122 84
68 30 18 -44 -14 -2 -121 116 -143 -63 135 155 198 204 206 324 340 286 362 333 304 299 283 248 291 290 291 275 236 227 202 195 120 61 31 10 4 -14 -3 51 68 76 48 62 67 60 83 77 67
111 -2 59 28 70 -53 -69 80 -81 -55 12 278 395 387 353 252 335 319 259 311 337 362 362 343 328 287 300 302 263 260 223 225 181 107 61 37 8 -37 -41 32 63 85 51 58 69 67 73 64 54
76 41 233 247 220 25 22 42 -98 -62 -36 131 260 332 328 315 297 358 300 324 373 483 471 438 403 343 346 353 287 261 254 245 184 137 87 37 12 -17 -20 40 57 78 80 68 72 76 82 70 54
149 137 -11 140 202 213 126 85 -2 63 6 65 47 121 196 310 300 257 336 327 356 399 538 540 505 419 411 407 380 297 254 239 209 145 97 46 -1 -57 -35 36 75 86 96 94 91 91 90 103 91
126 148 195 282 14 36 112 93 42 90 3 -5 76 161 149 269 269 274 230 306 289 390 498 598 563 514 489 461 414 378 291 241 227 150 78 59 -10 -48 -24 24 73 90 112 113 129 109 93 122 115
218 46 162 148 199 -16 -54 -58 64 118 106 87 36 93 139 170 180 231 218 277 323 322 429 501 472 490 394 388 357 336 274 214 224 141 92 70 8 -31 2 39 93 112 127 130 138 119 138 142 140
146 178 249 266 169 201 -38 -45 24 107 65 70 56 50 54 17 230 189 181 258 319 298 354 503 513 453 425 414 359 350 302 234 195 124 81 73 31 26 32 37 65 119 132 153 164 157 152 152 145

GFSSGP_con_3kmhel_018.txt.gz
Helicity
37 43 30 10 -14 -58 -60 -37 32 -5 -5 18 21 -13 -20 17 -4 6 -4 15 -21 -88 -95 -83 -55 -46 -39 -45 -42 -27 -5 7 11 12 15 17 17 19 19 13 3 -4 -1 -7 -15 -7 5 8 23
87 101 -24 60 -5 -55 -58 -3 -18 -8 53 107 71 24 24 -2 -21 51 12 -78 -70 -89 -101 -90 -49 -44 -44 -46 -43 -25 -7 2 5 9 12 19 21 15 12 9 9 3 0 -23 -17 6 13 22 35
84 42 -21 14 41 -20 -32 -34 -10 84 65 33 11 36 12 -15 26 -6 -33 -54 -64 -65 -88 -82 -54 -48 -48 -47 -34 -27 -13 1 5 11 13 20 20 14 14 15 20 16 19 17 16 20 19 31 45
57 83 53 61 44 49 -14 -41 62 112 17 15 52 44 31 -2 -22 28 -47 -54 -60 -93 -98 -68 -45 -49 -48 -36 -35 -21 -13 -3 5 10 12 18 16 13 18 27 29 23 23 17 15 19 22 24 33
-30 81 83 38 33 0 -37 -30 65 43 15 8 7 20 22 -22 -71 -34 -68 -55 -52 -84 -90 -71 -47 -43 -44 -32 -29 -18 -13 -7 7 8 12 19 19 20 27 31 28 26 21 10 13 15 19 20 18
10 56 28 3 -7 -18 -60 -22 -18 29 30 19 50 90 -3 -54 -12 -56 -64 -52 -61 -54 -86 -65 -46 -38 -36 -28 -20 -17 -14 -2 7 9 15 27 23 20 23 29 31 24 11 7 8 7 8 15 19
23 37 17 25 15 -47 -65 -36 -24 46 38 4 98 67 7 -33 -34 -47 -50 -48 -58 -57 -66 -63 -57 -42 -32 -24 -17 -11 -7 7 9 8 16 21 21 17 25 25 24 22 17 10 5 -3 1 1 23
23 14 16 38 36 -9 -34 -64 -20 25 -33 77 34 14 32 -22 -32 -2 -35 -46 -62 -62 -52 -51 -48 -50 -47 -32 -6 -3 5 9 10 14 17 17 18 16 21 22 24 18 16 7 -2 -8 4 6 7
18 9 20 23 5 -6 13 22 21 -36 78 25 -6 7 43 55 40 58 5 -50 -66 -70 -59 -53 -43 -39 -39 -30 -15 2 8 11 14 16 20 18 7 10 11 17 17 12 16 12 9 -3 -12 -25 -30
29 5 18 27 17 8 89 129 117 -30 28 -32 -37 86 203 137 105 108 59 12 -39 -44 -48 -45 -41 -29 -25 -19 -16 -18 -14 -12 -8 1 6 5 12 11 12 18 4 9 14 12 9 -4 -16 -24 -13
-8 36 39 33 26 44 111 158 141 70 25 -4 118 199 261 203 119 90 59 6 -8 -26 -30 -27 -22 -22 -14 -12 -23 -24 -18 -16 -13 -2 -5 -3 2 2 -12 11 1 -1 -1 -7 -8 -32 -13 0 21
23 62 108 58 34 41 101 157 123 126 33 -30 206 282 279 189 150 92 58 2 -4 -11 -10 -22 -6 -13 -4 -21 -17 -20 -15 -19 -18 -19 -18 -14 -8 -3 10 7 5 -1 -1 -4 -10 0 -5 30 25
-4 65 30 127 67 42 109 207 167 9 -44 86 211 306 232 169 104 58 29 -3 0 -4 -13 -13 -1 -12 -12 -21 -30 -25 -19 -21 -33 -34 -27 -14 -4 -3 -4 5 5 2 4 3 15 16 16 10 14
-4 36 90 36 39 28 198 170 229 -19 33 182 260 233 214 141 95 53 17 5 8 -7 -1 -9 -3 -17 -17 -19 -28 -21 -26 -35 -41 -48 -35 -10 -6 -8 -1 -7 8 6 15 17 29 39 37 34 10
-46 -39 -21 6 8 31 152 102 214 20 175 194 200 195 169 93 58 62 27 23 24 2 -3 1 1 -18 -17 -11 -34 -37 -35 -37 -39 -44 -31 -10 5 3 3 8 15 23 32 43 68 63 53 47 37
-23 -3 -144 -11 -3 43 189 141 202 209 269 202 221 175 134 72 55 18 19 23 20 7 12 -5 -10 -12 -19 -24 -45 -35 -36 -26 -39 -41 -23 -16 25 26 15 26 35 36 50 55 60 64 47 54 41
-7 -68 -128 -21 13 -1 163 152 262 340 315 225 258 198 93 102 -7 6 15 24 40 30 21 -3 -7 -13 -10 -27 -38 -31 -29 -9 -23 -32 -8 -8 10 19 36 35 38 49 54 64 68 55 50 48 41
39 -34 -32 -139 17 -8 82 100 125 361 382 358 258 187 103 58 51 13 7 26 24 30 19 -6 -12 -27 -29 -39 -54 -54 -42 -30 -29 -24 8 8 25 41 43 39 42 59 54 52 54 47 45 43 42
41 -1 -29 -50 31 41 -22 -20 109 260 270 237 325 320 145 40 44 -4 7 15 30 1 14 12 7 -7 -10 -11 -22 -35 -8 -23 -22 -20 -7 9 20 45 57 51 56 67 52 52 55 44 40 38 28
90 29 -32 -13 15 33 9 -14 47 243 313 355 328 339 190 1 8 14 23 5 29 34 22 20 41 38 34 28 9 0 13 3 32 7 -10 9 29 44 60 71 63 43 41 39 54 63 52 38 34
44 -70 -70 -3 52 93 59 31 -20 86 193 119 85 169 125 27 52 -1 28 50 31 28 18 31 66 64 73 57 26 1 16 6 -8 -6 5 15 30 47 65 59 32 18 30 39 49 90 88 51 45
-35 89 42 -29 28 32 63 -54 -2 -106 73 81 78 131 185 66 33 27 26 -2 34 53 48 32 31 65 63 108 98 98 75 72 69 81 78 55 48 44 40 32 19 19 16 31 32 94 100 73 62
60 110 70 53 30 8 60 9 -87 29 -4 8 35 150 192 192 120 139 127 139 96 50 71 72 102 103 96 142 156 145 123 78 50 84 70 55 58 49 3 3 16 12 20 7 24 85 105 79 61
184 138 105 87 42 -15 -170 -68 -155 -67 19 62 51 68 183 213 179 145 173 113 80 61 15 44 91 114 160 173 174 182 144 129 85 71 88 71 53 22 -33 -37 -2 13 3 1 15 47 63 66 51
130 98 67 81 128 -23 -32 -24 -89 -80 20 102 139 200 253 281 268 197 155 180 164 158 172 158 117 105 146 200 215 229 215 208 148 117 107 110 62 -5 -36 -43 -30 -1 20 13 12 46 43 51 49
132 178 183 147 170 36 67 -141 -69 -176 -1 -12 99 200 236 308 310 299 276 260 254 270 260 215 231 209 184 209 231 249 272 240 164 120 124 105 88 30 -9 -24 -32 16 36 20 18 30 43 51 53
227 136 146 223 211 127 185 -23 -64 -3 -23 68 55 88 103 223 298 295 310 290 329 322 356 401 317 250 292 279 258 265 289 285 216 152 147 132 92 21 2 -10 -15 16 37 48 46 40 48 65 66
185 253 276 284 -29 -15 233 130 146 127 70 -16 45 43 92 191 229 264 299 315 320 340 370 405 376 377 367 355 300 312 346 328 264 208 170 142 107 41 0 -27 -17 10 34 61 73 52 42 74 78
271 242 246 167 257 135 60 62 130 133 108 33 -51 14 53 114 256 307 255 292 350 318 305 355 388 379 373 360 354 319 313 304 292 231 178 154 126 64 18 -2 -6 4 42 79 96 77 75 93 90
152 224 351 291 231 255 19 -6 -2 -47 -14 166 59 61 7 53 137 250 270 328 348 291 300 308 347 378 424 455 449 394 353 355 352 283 179 160 127 70 41 45 18 5 34 97 123 109 104 120 116

GFSSGP_con_3kmhel_021.txt.gz
Helicity
72 44 18 8 33 -4 22 -19 9 -7 -6 16 7 13 4 45 22 -3 14 10 -16 -46 -39 -49 -49 -41 -47 -45 -38 -27 -6 2 10 15 26 25 18 14 11 7 4 6 10 7 5 9 15 23 24
91 54 -14 42 -10 -43 -28 -8 -5 10 12 50 25 22 24 16 -2 38 10 -12 -37 -55 -61 -56 -57 -51 -50 -44 -38 -19 1 7 12 31 26 16 10 12 4 0 11 15 16 10 8 11 29 27 16
94 61 5 31 -19 -11 -17 -19 24 57 45 33 5 18 14 -8 33 18 -3 -28 -68 -53 -61 -62 -50 -54 -48 -41 -29 -12 0 10 23 23 17 14 11 8 6 11 19 16 6 16 12 18 20 21 22
102 67 66 92 29 12 -34 4 94 84 31 10 -6 17 15 33 29 -25 -2 -50 -54 -58 -52 -47 -42 -55 -48 -34 -19 -8 2 12 15 13 18 13 11 13 17 13 21 16 10 11 17 14 8 4 28
80 79 108 85 -16 3 -33 20 68 4 8 -5 9 2 2 -2 -43 13 -18 -42 -36 -48 -49 -44 -45 -57 -42 -30 -20 -15 3 11 15 16 18 13 11 13 20 13 26 20 9 17 17 17 22 16 12
3 25 28 43 31 -45 -51 12 80 -16 -3 7 29 15 -6 -61 -37 -17 -42 -45 -51 -34 -38 -41 -51 -51 -37 -29 -21 -10 5 8 11 16 19 16 10 13 12 17 15 11 10 10 4 6 13 6 5
39 -23 24 12 14 -43 -44 49 25 22 -5 -27 57 11 -16 -50 -38 -36 -54 -64 -56 -40 -29 -39 -47 -46 -33 -26 -15 -2 1 5 10 12 14 15 15 17 15 12 12 10 6 2 3 6 10 22 17
13 -25 19 14 25 11 -30 -23 1 19 -18 31 -16 -6 -6 -20 -27 -38 -46 -52 -44 -43 -32 -37 -44 -36 -28 -22 -9 3 -1 3 9 12 11 19 18 23 23 22 11 8 7 9 8 12 10 9 15
29 -29 35 26 -23 -1 28 -5 19 -4 34 -16 -20 -14 50 52 -4 -12 -14 -34 -35 -45 -35 -38 -32 -32 -25 -15 -9 0 -2 5 13 16 13 18 10 21 21 10 18 15 7 8 6 -1 -9 -25 -28
17 -12 20 -16 -24 0 48 40 73 -6 24 -40 3 60 127 122 64 48 49 34 2 -22 -26 -34 -28 -26 -18 -15 -7 -3 2 7 14 16 12 17 11 16 19 20 14 10 14 4 -5 -13 -11 -9 7
10 -4 25 10 18 53 24 47 42 40 -14 54 72 150 216 156 82 52 26 36 25 -11 -30 -25 -25 -28 -17 -10 -9 -5 -2 3 9 12 9 7 9 9 18 19 7 2 8 3 -2 -23 -16 9 5
18 64 51 21 25 42 4 30 18 66 -41 105 136 155 263 183 116 59 33 31 24 1 -15 -17 -16 -19 -12 -15 -9 -2 -1 1 5 5 -1 -1 4 11 20 10 7 9 3 8 9 5 9 20 36
41 68 55 57 73 93 35 111 30 65 20 4 165 190 225 181 97 21 0 23 10 2 -11 -8 -14 -9 -13 -8 -11 -7 1 -1 1 -4 -13 -6 5 7 6 8 1 2 4 0 2 7 7 -5 14
-36 40 88 65 63 11 57 31 19 7 60 64 149 240 193 162 119 35 15 29 14 -5 -7 -7 -10 -6 -12 -7 -8 -7 -5 -4 -4 -11 -15 -10 4 2 8 2 5 4 11 14 16 41 20 -31 -15
-5 40 56 45 42 19 16 -15 96 56 87 125 86 161 180 72 75 59 50 49 27 10 -10 -3 -6 -8 -10 -5 -10 -11 -10 -14 -12 -19 -19 -19 -4 4 7 1 9 10 14 33 49 51 58 51 47
42 -2 5 25 10 16 25 112 55 144 156 146 129 132 157 133 90 39 27 30 5 -1 -3 -4 -12 -7 -6 -10 -12 -10 -16 -17 -18 -23 -25 -23 -16 12 6 7 13 10 19 37 43 37 35 42 46
-16 21 -28 28 13 9 -6 15 33 203 173 194 220 166 113 130 56 20 16 11 0 -4 -11 -5 -9 -6 -4 -12 -15 -17 -20 -13 -21 -24 -23 -12 -1 9 21 17 13 22 26 28 33 44 30 38 41
31 -16 -4 4 23 -2 -24 40 41 149 192 231 204 161 122 132 118 25 -4 -6 -10 -11 -17 -18 -16 -11 -15 -24 -25 -27 -23 -15 -18 -17 -19 -8 -4 13 11 3 17 34 31 35 46 38 38 45 41
75 -3 -7 -10 -1 -6 -22 23 21 71 82 141 216 173 108 130 71 23 -5 -15 -21 -18 -27 -21 -11 -12 -26 -20 -10 -5 -6 -13 -9 0 -3 -10 -8 5 24 11 29 32 27 25 38 46 49 39 32
10 -7 -12 -5 18 28 4 -5 10 32 128 170 224 237 118 46 61 32 -18 -15 -16 -20 -21 -12 -2 -8 -3 -19 -10 0 0 4 -4 -6 -5 -7 -3 -1 7 27 27 22 20 35 49 52 46 30 27
-73 -103 -55 16 26 16 33 -54 13 20 6 77 143 116 69 30 82 47 28 -12 -1 -15 -17 -10 0 -3 2 2 -23 -28 -2 7 -17 -15 -11 -7 0 -5 0 19 29 10 12 22 53 75 62 21 37
-18 0 27 -6 33 -2 34 11 8 7 -27 26 108 69 76 10 40 42 59 5 3 4 -11 -11 -17 -17 -9 22 4 41 23 33 30 40 31 14 5 -2 -3 11 10 -3 -8 7 53 77 62 37 42
19 47 37 37 16 41 -17 -15 -59 44 -82 -40 38 75 99 27 23 88 88 65 54 -27 -21 -25 -18 -17 9 26 36 37 30 12 -1 14 30 33 27 10 -6 -5 -12 -18 -18 -14 34 58 56 43 31
93 78 88 108 66 -63 -58 -20 -52 -163 -50 -34 -18 37 66 76 88 23 61 41 41 13 -42 -45 -23 -28 -12 22 37 58 55 44 12 14 8 12 27 32 8 -25 -43 -47 -41 -20 -1 15 29 42 32
52 39 61 35 32 -27 18 -79 -56 -19 17 -32 -25 42 38 79 96 97 58 78 75 95 97 32 -7 -9 27 38 39 66 75 103 111 87 42 32 26 37 23 -20 -63 -70 -39 -29 -31 -12 13 32 32
62 60 196 150 40 24 138 3 16 -102 -7 -20 -9 -5 22 21 107 96 122 141 148 137 114 126 111 55 57 72 80 87 90 80 93 85 82 58 27 16 26 -9 -51 -56 -50 -35 -33 -35 -8 23 28
153 72 40 169 161 117 29 -39 -34 52 13 37 11 14 64 30 67 160 218 172 169 164 199 185 179 141 138 114 119 122 120 121 108 112 115 79 55 1 14 -5 -38 -55 -51 -32 -13 -24 6 29 44
114 164 211 144 -17 -1 12 41 77 76 96 53 31 16 43 58 40 85 131 187 247 219 236 269 237 204 210 196 183 146 134 117 121 125 134 108 97 53 11 -12 -41 -49 -50 -35 -2 -9 17 53 64
215 136 160 114 211 14 20 21 16 5 33 84 29 -4 -7 46 48 65 108 142 199 189 171 213 259 278 246 216 198 197 183 164 142 138 139 130 123 96 56 10 -24 -43 -41 -33 -5 6 29 57 71
109 171 175 238 178 69 62 10 44 -70 1 34 5 26 33 36 55 45 65 76 134 191 230 221 235 246 288 307 250 232 224 202 192 189 175 166 165 129 105 53 9 -37 -29 -26 -7 20 41 61 76

GFSSGP_con_3kmhel_024.txt.gz
Helicity
72 38 32 47 73 68 24 -17 29 13 13 26 -0 35 33 53 22 -5 19 3 7 -35 -85 -78 -87 -55 -47 -34 -14 -19 -25 -21 -12 8 8 8 2 10 13 5 6 10 3 1 10 11 5 -2 23
67 33 30 39 19 -20 -9 -5 5 15 14 28 22 1 44 24 4 33 16 -6 -21 -30 -40 -59 -68 -46 -32 -18 -17 -24 -26 -21 7 14 11 8 5 13 7 13 7 -4 -5 5 10 14 13 11 12
54 50 29 55 46 18 12 3 15 8 -8 -2 33 58 33 7 32 27 16 -19 -39 -29 -47 -50 -56 -53 -32 -23 -30 -33 -26 -17 21 14 13 13 9 9 14 22 7 -1 10 8 10 13 -1 -22 17
51 53 18 45 3 6 10 -9 13 -6 -6 2 4 10 8 56 17 -11 4 -26 -32 -43 -36 -45 -53 -55 -42 -37 -32 -26 -20 20 19 16 14 13 13 10 17 16 14 18 10 9 1 -1 -12 -24 -12
47 126 57 4 20 8 -16 2 -30 -13 -17 -1 -12 12 22 36 -5 47 -18 -35 -39 -37 -32 -40 -59 -52 -40 -33 -25 -15 1 15 16 18 12 13 15 14 11 17 13 9 7 9 -2 -12 -15 8 16
43 92 71 13 8 -11 -22 -33 -34 -1 -12 5 3 8 -19 -26 20 10 -26 -39 -42 -34 -28 -37 -57 -49 -41 -27 -20 -14 12 14 18 21 15 13 11 13 13 11 10 11 10 5 1 -1 -2 1 4
59 97 44 28 12 -21 -52 -62 -48 -12 -19 -19 -1 -16 -10 -9 1 -3 -20 -43 -42 -32 -30 -35 -39 -47 -40 -29 -16 2 7 12 17 20 16 15 11 14 11 14 13 11 9 7 -0 -0 -3 1 -0
44 58 47 4 27 19 -24 -58 -49 -25 -9 8 -26 -23 4 15 -13 -18 -30 -37 -40 -33 -32 -27 -37 -37 -29 -23 -6 -0 5 10 11 12 14 16 17 15 15 21 1 4 8 11 7 1 -0 2 -5
18 25 8 24 -0 -0 1 -39 -6 -5 13 -17 -23 -24 65 41 -8 -14 -15 -24 -42 -33 -28 -21 -28 -35 -25 -18 -13 1 6 10 10 15 15 34 19 8 21 -7 13 5 7 5 1 -11 -15 12 31
-31 48 38 17 12 26 -5 -22 42 -11 9 15 12 64 105 77 30 33 40 26 2 -7 -22 -23 -27 -27 -24 -12 -21 2 3 15 14 13 9 29 6 10 20 8 16 15 20 24 10 -11 22 91 39
3 58 31 7 19 39 9 2 21 11 30 36 45 93 136 105 55 39 35 18 16 2 -20 -21 -28 -30 -23 -13 -8 -3 2 6 5 8 19 7 15 4 21 1 17 30 46 67 71 65 31 8 40
-4 -0 47 40 40 2 17 3 12 30 -10 75 67 82 153 122 80 37 43 30 16 2 -7 -16 -25 -28 -15 -14 -5 -1 1 5 9 -0 4 9 20 16 16 7 2 19 24 15 26 18 19 29 30
-28 45 41 35 56 66 52 -0 -11 22 6 95 100 103 103 92 66 32 12 9 11 8 -5 -12 -21 -24 -9 6 -4 7 7 4 5 -4 -7 9 14 8 10 -2 5 4 19 34 6 17 13 35 43
-1 -3 57 58 43 40 33 -5 13 23 64 70 132 123 79 90 74 44 22 13 12 1 -4 -14 -16 -19 -6 -3 2 5 6 1 7 -3 -8 2 11 1 9 3 -1 8 8 28 24 23 34 39 13
44 47 76 57 44 31 16 -24 27 43 72 94 91 110 72 60 37 47 46 24 17 6 -5 -13 -17 -20 -10 -4 -12 -2 -0 -0 -3 -3 -13 -2 -1 -6 12 3 9 10 4 23 29 38 38 34 44
-18 -8 18 13 18 35 5 24 68 53 88 114 105 108 97 82 50 29 23 13 5 -10 -13 -14 -24 -23 -15 -10 -13 -7 -9 -6 -9 -10 -14 -14 -17 -6 -1 -11 6 6 15 13 24 19 7 23 27
25 44 -35 -11 38 38 10 19 58 44 67 105 114 105 111 104 56 19 11 10 -1 -12 -21 -14 -23 -20 -17 -15 -14 -13 -17 -11 -13 -14 -12 -6 -4 -3 6 -3 11 10 24 14 18 11 27 28 15
60 45 55 -20 31 35 -23 8 20 54 55 63 90 96 97 106 109 28 6 2 -6 -26 -23 -14 -23 -14 -24 -17 -10 -16 -19 -13 -13 -13 -9 -1 -5 2 -1 -0 2 11 -0 4 9 11 15 17 5
62 46 37 31 39 57 2 13 21 30 48 31 62 95 88 87 60 47 16 -5 -13 -21 -29 -24 -24 -24 -27 -17 -15 -8 -1 -5 -5 -3 -3 -10 -7 -6 -2 7 -2 13 10 -1 20 20 27 22 14
89 51 28 45 49 77 44 36 20 19 14 16 45 57 112 21 25 52 27 -6 -13 -18 -23 -28 -23 -24 -21 -17 -12 -10 -9 -9 -6 -6 -6 -1 -8 -8 -1 1 13 12 -5 2 22 14 14 5 22
6 -20 39 79 53 50 69 25 15 28 26 16 4 47 38 53 32 76 69 18 -0 -5 -12 -18 -19 -20 -21 -19 -31 -19 -20 3 -11 -12 -2 4 -3 -2 3 -3 8 7 -13 15 26 32 16 4 25
-33 -25 55 61 75 90 40 52 -24 -7 36 -14 15 45 54 35 34 -1 83 82 33 30 -7 -20 -21 -24 -27 -10 -19 6 5 11 -1 4 8 4 4 4 3 -11 -15 -12 -26 -9 18 32 17 20 27
22 60 33 51 74 76 85 59 12 45 -80 -29 17 39 98 11 42 10 33 129 71 18 -4 -24 -33 -32 -27 -12 -5 16 -0 -9 -16 -13 -4 6 18 8 9 2 -20 -38 -36 -18 2 11 22 24 25
32 62 71 62 57 9 13 7 31 -30 -74 28 17 19 25 16 38 31 5 26 87 25 -0 -25 -19 -15 -4 21 12 8 5 -3 -11 16 18 14 19 36 23 9 -23 -48 -45 -39 -11 7 23 24 23
17 27 67 65 -20 -19 -21 33 -24 40 -17 20 38 18 3 23 -23 34 37 36 39 52 20 -11 -13 -4 10 20 19 12 9 10 8 28 22 33 27 26 57 29 -22 -48 -55 -54 -44 -10 8 28 29
41 21 119 107 50 -7 -9 11 -8 -28 13 80 8 23 37 13 2 -18 46 78 72 75 111 109 71 44 36 29 40 37 42 26 15 23 12 37 25 34 25 36 -19 -41 -52 -55 -60 -46 -16 7 22
82 3 -32 118 121 85 -1 -13 6 63 27 34 20 39 30 32 -27 -2 3 51 85 74 101 129 166 130 92 72 59 62 69 54 34 30 54 24 33 22 26 20 -5 -25 -36 -41 -53 -57 -31 -8 16
91 19 58 21 -11 -2 12 10 29 26 56 17 9 -2 25 40 21 18 -18 32 74 79 100 120 130 188 204 159 115 78 92 92 72 88 59 54 41 40 47 29 6 -7 -24 -32 -43 -47 -33 -12 13
102 102 32 43 -7 -19 14 5 2 15 39 -5 5 -0 5 15 37 33 45 -8 14 6 25 84 93 104 117 127 170 164 135 104 79 71 93 89 63 70 54 67 24 16 -7 -20 -27 -36 -17 8 26
63 104 102 142 54 -28 59 35 59 -19 -27 -2 7 16 34 31 35 24 13 23 37 22 28 50 95 115 126 135 159 180 175 172 131 124 108 111 105 92 92 87 61 32 12 2 5 -21 -11 18 44

GFSSGP_con_3kmhel_027.txt.gz
Helicity
72 54 34 51 62 48 44 50 41 56 33 55 54 34 52 92 53 51 28 -90 -136 -187 -28 -25 -67 -56 -47 -49 -31 -34 -34 -23 -4 2 7 -1 5 14 11 3 -0 2 10 13 10 5 -1 -8 -11
54 55 25 46 28 48 -14 80 55 27 49 27 33 29 71 12 15 88 21 -19 -86 -89 -54 -71 -61 -68 -57 -43 -40 -37 -29 -16 -9 2 11 19 22 9 4 4 -1 -4 4 8 2 -1 -3 -2 -9
50 58 35 52 -8 -2 16 -13 -7 42 16 11 35 33 15 24 48 40 52 -16 -35 -47 -37 -85 -70 -72 -52 -44 -45 -38 -27 -20 7 10 4 7 10 13 11 -1 -1 1 -0 -6 -7 -15 -6 4 6
22 -0 46 57 41 37 44 1 26 2 -5 14 10 42 34 22 38 48 12 -24 -34 -51 -51 -82 -66 -43 -43 -45 -39 -31 -13 21 14 16 4 5 5 8 7 7 12 12 8 -2 -8 -13 -7 -0 15
19 96 26 -48 23 12 39 25 -4 14 2 -2 39 42 29 9 16 64 18 -35 -34 -51 -64 -64 -57 -43 -39 -37 -34 -16 21 15 13 18 11 8 7 12 14 11 11 14 10 2 -4 -11 -5 10 21
58 27 4 -22 40 7 23 -6 53 25 17 30 47 26 -7 3 58 29 -17 -22 -25 -27 -45 -57 -54 -43 -34 -29 -28 17 16 13 20 25 19 8 14 12 16 13 8 2 -0 -6 -9 -5 -0 7 10
134 41 134 109 63 61 22 -0 41 30 12 -4 23 -7 11 4 30 -4 -17 -39 -41 -29 -22 -39 -36 -44 -32 -33 -14 18 16 19 26 25 20 18 16 15 15 12 6 -0 -0 -3 -4 -2 8 16 16
101 69 83 83 9 45 3 24 33 20 60 11 28 6 53 7 -10 5 -19 -33 -35 -45 -7 -31 -32 -32 -32 -28 11 15 12 18 23 23 21 29 24 13 11 8 4 3 11 7 2 10 21 21 17
57 75 21 13 46 52 -9 49 18 33 14 2 13 6 99 7 3 27 -10 -31 -28 -40 -18 -25 -24 -28 -31 -20 -0 12 10 14 23 24 37 64 16 36 37 11 17 16 18 24 26 16 26 72 38
49 28 41 14 28 25 35 15 11 10 6 34 24 90 95 37 46 46 18 18 -17 -36 -5 -7 -20 -26 -22 -14 -13 13 10 22 36 43 62 -21 3 9 29 29 44 37 36 31 36 28 43 106 2
59 26 307 44 56 20 44 19 -3 31 10 35 66 81 85 88 58 52 13 5 -3 -17 -6 -18 -4 -31 -15 -18 -12 6 10 14 10 14 42 1 -10 44 28 18 36 62 97 -26 52 34 47 17 5
62 20 239 27 32 2 16 22 20 15 35 43 62 60 82 74 52 41 28 24 1 -7 -8 2 -14 -32 -15 -22 -8 4 6 16 8 4 15 25 25 4 33 -14 32 31 56 36 88 31 25 65 6
19 62 18 26 6 -0 17 -5 2 19 7 48 70 60 48 39 41 14 1 7 8 3 -22 -4 -2 -27 -19 14 -3 15 11 5 3 -23 6 30 4 -3 1 2 6 5 8 -13 30 17 25 32 -12
11 12 27 10 -11 1 -9 25 -26 26 23 87 84 50 37 24 31 26 -2 12 1 2 -11 -18 2 -22 -2 -4 16 11 2 -16 18 -14 -4 11 27 -19 10 6 31 23 16 9 16 23 35 6 31
-32 36 5 9 -11 -1 2 -9 15 68 54 103 103 78 53 34 24 34 24 35 18 19 -1 -6 -6 -13 -7 -3 4 4 -12 7 -7 -0 -4 2 3 -12 17 30 3 46 16 10 24 27 105 39 41
-40 -3 -2 -7 -1 -3 -5 21 19 51 75 89 96 81 85 63 57 30 20 20 28 19 25 3 -13 -3 -12 -11 -17 -4 -3 -9 -6 -13 -7 -4 -6 8 6 -7 -0 10 11 11 7 16 22 19 40
-42 -35 -14 -8 18 -7 15 22 55 31 48 62 77 86 79 72 57 51 23 16 42 22 22 -7 -15 -12 -12 -14 -14 -4 -12 -4 -12 -15 -14 34 7 -2 -5 -8 8 14 11 5 7 17 38 33 -2
18 -15 4 1 23 22 28 -25 29 44 40 41 60 79 80 94 86 88 27 19 17 25 16 -16 -27 -26 -18 -24 -9 -17 -17 -16 -12 -18 -11 87 25 10 -3 3 15 11 22 -0 8 -7 11 -2 -14
34 13 -2 10 8 52 -5 -11 22 59 35 24 76 53 86 82 79 92 43 19 3 26 15 -7 -24 -23 -26 -21 -16 -11 -7 -1 -6 -12 -0 28 14 17 7 -1 -8 8 4 5 8 14 -1 12 -0
39 26 5 5 36 44 20 -15 4 37 49 6 51 45 59 63 101 76 75 23 16 18 17 6 -19 -14 -10 -14 1 -7 -16 3 -4 -0 24 9 8 6 7 -3 -2 8 25 22 8 -11 1 7 -1
-31 -25 -14 13 21 22 40 13 -17 13 58 22 -1 39 32 74 135 137 127 48 26 38 37 50 9 -7 -11 -16 16 54 7 14 1 -13 -1 7 4 3 4 1 -6 10 -7 20 25 30 -1 13 22
-5 -14 18 31 25 53 50 47 -23 -10 42 52 15 35 33 54 68 123 109 114 77 82 78 66 73 2 -5 -19 -21 2 7 3 -7 -4 6 20 16 7 6 5 4 11 -6 70 22 23 3 10 31
5 19 27 33 33 37 19 44 16 52 5 50 20 21 34 37 49 102 125 101 107 72 76 55 77 22 -10 7 -2 7 -9 -10 -4 1 -0 16 56 15 21 21 8 4 -14 10 23 8 11 7 16
12 39 21 21 31 25 6 20 -15 6 16 37 56 18 32 51 61 59 95 72 64 68 54 51 61 28 -5 30 7 12 13 -15 -2 17 19 30 25 59 38 44 35 1 -25 -14 -1 1 5 13 13
44 13 30 -18 -26 -7 10 -22 -58 -25 10 19 35 32 24 45 29 64 72 77 72 94 90 91 100 62 55 44 28 39 22 -8 27 37 5 30 38 31 103 59 66 7 -27 -42 -21 -6 -11 7 11
46 -5 27 79 29 -32 -21 9 -44 -19 41 34 55 16 45 52 39 48 79 91 94 114 167 87 112 63 49 55 61 62 74 19 7 30 30 32 40 49 62 152 76 7 -20 -49 -34 -24 -14 -0 11
91 -22 -36 1 42 12 34 27 -0 23 34 32 43 30 10 86 41 46 67 85 102 105 159 171 155 158 127 127 116 82 76 36 25 30 45 43 32 12 98 130 81 23 -23 -36 -35 -33 -0 -15 15
58 32 50 52 54 -4 24 20 87 36 45 33 19 34 -19 20 64 57 37 70 96 87 137 171 162 198 175 138 136 125 99 71 54 63 66 69 45 43 88 147 89 45 17 -11 -13 -19 -23 2 9
59 61 43 31 22 20 29 6 -11 69 28 22 30 -0 -24 1 72 43 42 47 72 60 53 101 121 149 149 158 175 141 126 117 97 98 109 81 93 90 53 148 119 90 46 36 26 -20 -1 34 23
35 46 62 80 -35 -0 49 49 106 58 49 40 -16 11 -20 -4 56 41 47 25 46 51 62 81 85 97 145 135 150 178 181 159 158 127 127 139 111 105 122 118 160 121 89 74 56 37 -0 58 50

GFSSGP_con_3kmhel_030.txt.gz
Helicity
61 32 16 20 39 52 42 27 24 81 66 51 44 75 74 57 28 21 -142 -85 -36 -93 -49 -21 -44 -62 -43 -18 -19 -13 2 18 9 18 10 3 0 0 2 7 6 5 1 1 8 8 0 -4 6
42 28 2 28 18 37 23 15 -8 12 2 56 43 42 71 27 57 136 -51 -91 -78 -71 -44 -67 -36 -52 -35 -23 -27 -20 0 5 5 6 1 -2 -1 -1 5 1 -3 -4 2 4 -2 -1 4 9 16
21 32 33 34 -17 -39 -7 26 40 17 52 44 94 31 26 9 58 50 -61 -53 -77 -58 -30 -85 -57 -51 -33 -38 -33 -20 -8 -3 1 -2 0 1 2 -4 -4 -3 -4 -5 -10 -15 -16 -2 10 21 13
-20 37 43 0 24 -80 32 3 29 50 16 68 49 60 44 9 57 21 -8 -11 -82 -10 -74 -71 -59 -50 -40 -41 -33 -23 -14 -9 -10 -9 -7 -9 -7 1 0 -5 -9 -16 -17 -10 -2 8 17 22 30
10 41 26 -83 -58 -102 31 60 3 -18 27 99 97 63 46 18 17 51 -16 -42 -40 -40 -123 -62 -58 -42 -44 -38 -31 -25 -20 -8 -1 -15 24 25 3 2 6 -8 -4 4 6 7 8 16 19 20 28
7 4 -72 -75 13 -2 59 34 25 23 84 108 108 85 42 45 76 5 -20 -29 -33 -59 -107 -72 -61 -47 -45 -35 -28 -23 22 14 10 23 27 35 27 15 9 8 6 8 10 13 16 23 23 22 22
42 22 117 217 351 22 69 39 44 37 35 101 78 73 60 26 58 -4 -37 -83 -35 -65 -77 -56 -49 -54 -44 -32 -19 0 35 23 25 27 32 38 34 22 9 2 7 8 9 16 18 20 19 4 34
15 311 59 32 23 94 39 52 -10 72 110 136 89 24 101 22 14 -8 -46 -15 -47 -51 -49 -45 -47 -39 -32 -12 11 21 34 29 31 38 37 20 24 22 25 16 10 21 25 22 26 20 36 23 42
124 25 1 -177 32 32 -3 80 69 40 36 23 33 117 132 59 8 -15 -2 -59 -65 -15 -53 -30 -29 -36 -31 1 15 23 21 33 37 37 28 51 30 39 50 34 30 18 24 23 39 37 26 20 0
113 0 -65 -58 54 61 141 31 42 32 34 86 52 69 73 69 37 70 23 -10 -51 -10 -34 -27 -29 -30 -25 -4 10 29 33 46 46 4 9 27 25 55 49 67 31 19 30 28 31 32 36 107 62
69 79 -97 160 159 43 65 23 3 37 77 154 151 77 107 122 38 60 19 -13 -21 -27 -29 -14 -29 -39 -24 5 2 26 39 30 53 132 32 32 18 30 23 47 22 47 31 25 45 17 62 59 65
-7 147 102 156 149 32 63 74 20 82 39 140 143 64 130 85 46 63 31 -17 -16 -54 21 61 28 -34 -17 54 -14 11 43 30 96 39 32 53 10 1 22 12 36 74 52 4 38 45 22 0 31
28 134 82 80 151 18 86 18 49 -39 47 155 117 43 84 64 11 37 33 -2 -37 -48 0 83 72 -36 -13 -19 -22 -2 27 8 50 63 -11 27 40 35 21 35 31 75 69 -6 12 19 34 -1 -8
26 -3 107 93 100 4 -6 123 127 -37 103 162 99 75 48 50 44 44 104 10 -7 -41 81 143 129 6 -4 16 22 11 4 -4 7 30 46 29 12 6 1 -6 -12 31 27 2 34 30 28 7 -40
24 -1 20 7 -14 -10 12 26 23 77 113 114 102 70 62 36 -1 31 70 39 -16 22 -7 174 150 31 24 -8 8 0 15 17 -1 35 38 1 5 3 -8 -1 15 6 39 30 51 47 49 1 21
5 29 3 10 -14 -5 12 -3 136 132 33 103 86 71 78 59 20 44 -4 36 44 51 30 110 38 6 7 -4 3 8 13 -2 4 -4 43 8 -4 1 5 6 30 25 12 42 35 48 44 33 19
23 -17 -2 27 41 -13 3 14 66 228 -4 114 85 67 81 54 38 57 7 40 71 71 110 95 13 83 22 -6 0 -2 7 -7 -7 -12 71 58 17 1 -9 -2 18 41 22 17 32 9 5 15 -3
41 34 9 -3 -10 19 5 21 98 80 106 95 142 102 83 92 85 114 37 32 92 126 162 123 28 76 81 -11 -15 -13 -8 -11 -20 -13 -12 102 36 14 -9 0 -12 25 4 14 28 23 5 7 14
-2 14 -3 -4 -5 34 11 58 78 111 168 38 100 111 106 98 71 146 41 46 96 176 191 133 86 48 107 -5 -6 -7 -8 -9 -20 -21 21 89 32 32 0 -4 42 0 40 24 40 26 -5 7 12
21 24 -10 -5 -12 26 14 1 46 185 280 -75 230 -20 113 81 120 136 108 91 72 210 225 156 87 72 125 108 26 -24 -26 -14 0 -26 -2 85 34 23 14 11 5 20 73 40 34 27 -2 25 -2
-18 -32 -9 -6 -1 13 43 41 -18 89 68 71 113 111 91 139 192 171 227 137 126 225 249 207 118 120 128 96 29 -39 -15 -25 22 -8 -1 68 59 33 15 11 -14 17 49 33 26 34 21 16 4
-19 -38 4 -1 2 25 27 54 70 -1 26 59 71 108 70 137 142 164 192 134 229 211 259 236 161 151 115 73 41 43 5 3 18 21 15 68 58 25 29 51 7 3 28 68 21 7 19 15 33
-25 -2 9 27 38 40 28 62 42 37 -19 72 18 144 38 126 176 245 222 168 179 198 261 272 201 152 108 54 30 38 21 -5 -14 15 5 54 94 46 -4 83 32 22 2 49 27 -5 10 9 -4
-5 5 9 12 31 4 28 31 90 4 24 3 67 30 106 122 130 275 238 161 84 178 237 234 215 132 109 56 -5 1 44 -11 -3 -7 11 48 109 69 33 44 78 40 4 35 26 17 11 2 -10
19 7 49 33 -8 -53 -38 -56 31 -5 134 15 26 51 50 117 112 226 258 196 151 166 270 240 253 172 112 79 42 33 23 0 -29 17 -13 78 87 136 103 69 131 75 22 -9 21 5 -23 -9 -8
13 -17 87 29 12 -23 -31 -10 -69 8 46 90 46 103 88 57 109 177 286 256 210 147 275 278 251 203 133 85 44 17 29 22 -39 -33 48 12 75 85 136 136 146 129 72 4 -16 21 -24 0 -2
67 -46 -37 19 -10 16 2 35 -7 -3 26 44 42 74 91 74 68 146 244 254 255 188 238 287 265 202 141 109 76 42 78 68 23 4 -16 36 9 43 130 226 194 166 117 65 -6 -10 16 -15 39
48 79 51 50 42 6 -7 70 197 -10 8 17 31 40 67 87 83 141 209 257 275 257 228 242 250 227 204 155 122 105 112 136 76 40 8 17 59 2 64 244 212 187 126 94 40 12 -22 34 33
76 59 45 37 52 33 16 -1 80 125 59 58 49 3 32 51 128 105 186 197 241 241 196 198 200 194 149 136 140 131 109 108 104 63 55 41 29 48 -9 159 219 191 152 114 74 56 32 43 68
41 48 61 87 31 41 10 57 116 71 113 48 70 82 27 35 125 113 150 190 212 251 200 179 157 138 148 137 112 112 119 118 113 107 94 97 78 59 68 117 203 238 195 151 121 98 54 68 100

GFSSGP_con_3kmhel_033.txt.gz
Helicity
32 10 -4 21 41 77 80 42 31 -9 -14 59 84 75 58 -3 -39 -8 -10 -47 -55 -76 -77 -58 -40 -21 -21 1 -1 -3 7 16 19 11 2 8 7 -2 -2 1 5 5 3 10 11 11 8 12 10
38 31 -4 16 22 20 83 20 23 32 59 58 105 82 51 24 9 -21 23 -50 -51 -56 -79 -62 -31 -6 -16 -13 -19 -9 -5 4 3 2 3 1 -0 -4 -4 -7 -4 -5 -1 5 13 15 17 16 6
16 15 5 32 -6 99 11 7 15 -3 22 75 57 76 31 -32 5 18 -56 -25 -45 -53 -67 -52 -29 -22 -17 -19 -17 -14 -10 -4 2 -2 3 3 -6 -7 -14 -14 -20 -16 -13 4 16 24 31 18 -2
-1 31 39 -52 31 -98 -3 -29 -25 82 152 109 66 84 104 6 7 -83 -11 -24 -46 -77 -33 -41 -24 -19 -18 -15 -16 -11 -11 -2 -7 -7 -3 8 3 2 1 -21 7 11 13 14 18 19 26 22 -0
9 -4 -0 -16 39 -101 -11 16 -28 41 130 109 70 63 118 -89 9 72 4 -39 -68 -79 -26 -39 -27 -22 -24 -22 -6 -10 -16 -13 -21 -18 -5 9 20 18 16 10 4 10 12 10 7 8 17 20 13
-10 17 20 90 30 -101 -66 61 70 134 176 183 127 135 21 5 110 16 -34 -52 -76 4 -28 -32 -28 -35 -33 -21 -1 -3 -22 -24 11 26 29 32 25 18 17 11 10 17 10 2 -0 7 12 14 21
81 5 11 105 96 -40 -41 111 57 203 157 95 147 86 35 25 56 1 -57 -33 -44 -50 -25 -33 -46 -48 -38 -21 2 -6 -8 21 32 32 40 47 37 19 13 17 14 10 2 -0 18 19 17 15 30
57 35 60 160 80 79 129 36 67 156 44 79 120 32 87 16 5 -19 -53 -66 -21 -10 -24 -33 -51 -58 -40 1 5 7 23 29 26 23 29 46 51 31 18 18 24 15 10 15 47 62 70 45 36
59 87 56 106 102 -80 40 65 100 131 89 12 -2 206 68 21 -9 -34 -74 -86 -28 -35 -35 -37 -48 -48 -30 -3 15 29 33 22 38 20 25 17 48 51 34 36 41 44 26 26 29 44 75 69 59
28 18 42 18 14 61 56 91 61 282 236 153 174 140 59 49 28 11 -28 -21 -34 -29 -36 -34 -46 -39 -14 6 17 33 33 18 30 4 38 19 31 19 44 42 45 41 28 26 32 36 62 63 80
61 -11 -2 30 41 195 250 5 122 159 264 190 178 132 64 49 40 -0 -31 -33 -34 6 -40 -26 -36 -23 -23 -5 14 13 2 14 38 58 15 28 15 8 14 26 9 32 20 25 16 31 53 70 87
46 81 54 31 63 -4 29 78 15 20 176 216 153 159 93 82 34 26 12 -27 -6 6 -22 -4 -23 -23 -24 -5 7 -7 2 36 67 82 41 15 10 -5 13 25 28 26 20 -22 8 30 51 42 57
50 78 157 230 80 52 129 128 56 66 231 251 135 126 80 72 67 16 -8 -31 -28 -0 15 11 -13 -20 -8 5 17 -3 6 55 127 95 54 20 18 -5 16 35 30 49 42 29 40 8 36 11 41
43 141 146 67 26 49 2 26 87 257 203 269 207 133 69 68 72 22 -8 -5 -48 -32 51 67 8 -2 22 -2 -4 7 43 59 175 90 18 14 6 7 17 42 25 35 16 19 24 23 1 -36 -2
58 20 95 2 236 55 116 71 47 310 203 227 224 154 29 15 48 20 14 19 -102 -67 47 184 78 28 28 -6 10 10 23 -25 -2 29 46 17 1 9 13 32 47 39 23 26 13 13 16 3 -20
94 57 -19 119 145 82 130 55 145 316 315 261 131 151 93 53 102 34 -14 -87 -77 -82 141 246 138 40 40 28 -5 -13 7 29 -33 15 44 40 51 20 18 31 20 30 26 27 33 31 27 25 -11
80 33 53 37 20 25 -0 65 299 264 218 124 116 74 146 85 116 146 24 -30 -79 -0 248 243 160 108 60 51 12 -11 -2 -6 -21 53 64 33 52 21 9 33 12 34 36 24 8 24 36 17 -2
124 141 73 74 34 29 34 -0 263 115 275 222 150 57 71 56 174 159 89 15 44 218 282 272 168 97 65 15 23 -26 -23 -17 -26 -15 54 45 29 23 4 14 23 20 33 38 19 34 15 21 21
103 103 61 44 13 43 17 -50 274 373 561 367 85 -21 77 67 66 96 93 132 230 265 256 232 218 118 50 20 23 -13 -33 -38 -46 -30 40 82 59 30 23 7 25 18 32 32 33 40 -2 37 23
99 63 46 29 8 -11 43 -18 425 484 662 410 36 -107 -62 106 64 165 110 161 235 296 315 246 286 194 107 56 15 5 -36 -34 -27 -35 30 87 70 46 42 22 16 19 30 49 41 52 1 15 4
96 67 21 -29 8 6 17 107 288 207 360 82 220 -77 -113 225 150 208 185 208 271 320 328 285 275 252 178 118 40 -18 -43 -36 -26 -18 31 64 83 63 44 28 13 20 52 52 48 26 15 11 3
24 57 17 -22 -36 -5 30 177 156 229 119 207 142 100 150 248 151 272 256 188 352 363 352 318 259 260 195 169 81 27 14 -16 1 27 8 92 88 83 60 31 23 36 47 43 39 22 5 4 28
15 42 87 68 52 12 33 33 175 208 209 208 113 90 211 -30 55 302 298 270 325 398 329 286 282 235 209 168 109 44 5 -27 -10 27 46 73 81 88 65 56 36 30 41 29 24 12 12 -1 -4
23 29 43 68 57 53 22 20 111 156 225 188 157 231 202 166 339 150 352 270 294 379 380 279 227 212 199 183 124 53 19 -8 -23 -5 35 63 88 71 66 83 86 48 54 39 15 -0 -4 6 -10
3 56 78 106 40 32 -25 56 53 86 97 128 376 275 316 97 111 152 254 305 268 374 378 364 283 216 202 153 124 83 39 24 7 -1 7 53 104 97 74 94 113 81 61 44 24 7 -8 1 -5
3 -54 151 161 167 80 66 -47 -115 -16 -2 49 213 265 224 142 148 198 335 375 287 381 411 401 306 259 239 181 115 99 18 -3 11 -20 -10 31 114 134 119 107 130 131 89 60 40 12 -8 2 -1
80 59 30 88 109 142 141 -42 33 -19 -32 -42 88 126 171 148 267 261 249 384 319 305 417 447 354 265 228 185 107 66 65 21 31 12 -35 -5 66 130 148 116 158 152 136 86 66 24 8 11 19
51 175 88 58 93 78 44 36 60 18 -51 11 69 170 214 285 271 279 271 274 332 315 379 429 418 300 238 172 114 65 105 101 40 17 -23 -23 21 77 118 165 195 223 202 129 87 33 10 19 37
116 139 115 75 47 33 43 -2 124 158 70 95 75 18 187 270 290 314 267 209 308 296 363 382 394 314 216 169 129 79 47 75 91 56 21 -12 -1 21 71 160 209 258 234 189 137 90 43 36 31
54 67 126 130 38 -26 -125 -103 -32 6 176 18 -14 3 107 178 320 363 259 166 263 259 349 345 358 363 269 186 107 48 33 46 99 104 53 38 3 43 30 114 172 204 227 214 204 146 94 67 73

GFSSGP_con_3kmhel_036.txt.gz
Helicity
20 19 4 11 1 29 45 34 17 -73 17 -40 -22 -28 17 -35 -8 -38 -33 -65 -32 -57 -64 -55 -27 -14 -5 20 9 15 18 5 13 12 6 4 7 8 6 -1 1 1 1 8 9 6 11 19 24
20 26 11 30 8 15 45 34 27 23 3 87 57 47 -10 -24 3 51 62 -52 -18 -43 -57 -51 -23 -13 7 9 -5 7 5 5 8 5 -1 -1 3 -1 -8 -14 -17 -23 -6 9 7 7 11 11 -1
38 8 2 15 46 -5 15 17 15 24 107 106 76 97 19 -35 29 82 -56 -38 -25 -43 -39 -28 -19 -4 5 -6 -11 -2 -11 -9 -4 -2 -1 -5 -5 -16 -23 -22 -27 -27 12 11 12 10 -3 -10 -25
27 9 25 63 47 13 24 -23 25 -10 -14 43 72 63 31 -64 40 -43 -18 -32 -18 -35 -48 -17 -6 8 -6 -18 -11 -9 -12 -9 -4 12 3 -3 -6 -18 -26 -25 4 7 8 10 6 5 -7 -15 -20
-27 -2 -17 59 53 27 20 36 40 12 38 12 -18 68 100 -102 -47 42 0 -21 -21 -40 -51 -30 -7 -9 -9 -14 -13 -15 -10 -10 -10 -7 11 2 -3 -12 -9 3 3 2 -3 8 9 2 -11 -9 2
4 -4 11 -30 -74 14 4 11 7 23 82 55 96 177 88 -46 54 6 -8 -28 -34 -15 -50 -30 -9 -15 -12 -12 -9 -16 -10 6 2 8 20 31 15 14 9 5 3 3 10 17 18 16 -4 0 17
25 24 35 -24 77 -34 -5 -6 91 138 65 36 84 183 66 -27 42 43 -20 -36 -19 -9 -39 -29 -37 -29 -17 -6 -8 -2 13 12 12 13 12 15 14 20 16 9 9 11 19 22 29 22 11 6 20
17 18 21 81 68 34 70 18 60 155 13 101 60 100 107 -16 28 24 -28 -8 0 -4 -30 -36 -51 -53 -19 3 6 11 10 13 19 22 19 9 15 22 24 17 20 24 29 30 26 42 36 45 35
39 34 11 32 27 122 176 70 13 51 99 -3 -28 51 100 24 20 0 -24 4 5 -15 -34 -45 -49 -48 -15 11 23 18 19 19 25 25 18 5 12 2 17 29 35 35 37 19 22 29 33 45 69
8 -32 53 37 21 24 80 -2 -8 37 80 93 126 208 115 70 27 20 7 25 -10 -18 -49 -51 -55 -36 -9 20 15 14 21 13 23 15 22 10 6 14 16 31 31 30 30 27 47 29 22 35 53
14 13 -47 -12 128 53 130 87 83 112 32 128 269 255 166 122 59 7 5 18 -1 -17 -41 -63 -50 -26 -10 8 1 3 3 8 2 15 25 15 4 9 14 0 11 10 6 13 20 33 30 42 47
-7 96 78 123 120 84 20 103 142 92 53 132 239 301 240 133 67 24 8 21 4 -28 -29 -51 -45 -31 -17 -7 -16 -15 -7 1 13 22 35 4 8 5 6 3 11 10 24 15 40 57 52 47 29
4 103 176 170 35 51 46 63 42 118 208 195 216 209 189 98 63 1 -23 8 20 -23 -34 -40 -48 -35 -27 -20 -35 -16 -23 21 42 33 24 7 13 6 4 9 0 16 -6 9 34 29 36 46 41
5 129 41 25 2 15 54 67 29 135 238 261 212 161 134 95 68 11 -9 12 23 -10 -17 -36 -41 -35 -38 -39 -26 -17 -7 21 55 43 30 18 14 32 5 9 14 5 19 12 24 3 0 37 15
55 89 106 43 82 24 79 43 -11 248 248 247 205 143 95 60 35 57 27 11 8 -1 -16 -36 -46 -44 -31 -33 -21 -12 6 71 99 71 43 10 0 36 24 21 12 26 7 -1 -2 10 8 -29 39
59 40 8 15 6 47 14 -10 133 219 235 197 119 122 75 73 75 47 26 14 -3 12 8 -20 -47 -47 -40 -32 -20 -16 6 -2 38 33 31 21 23 46 19 26 15 21 34 24 9 20 19 -24 -9
62 -33 12 17 -20 41 154 11 248 280 157 155 98 73 67 27 1 -19 5 5 -19 54 8 21 21 4 -24 -17 -2 -7 -20 20 -9 39 34 22 9 33 32 32 21 32 29 28 26 19 20 9 -6
161 143 95 19 -48 136 187 51 401 293 224 132 54 33 110 48 31 -28 -37 -8 -22 36 69 88 91 65 29 23 15 -13 -28 2 15 -3 24 28 25 58 41 24 7 20 22 19 14 5 20 22 35
146 158 98 8 13 -9 13 281 334 258 165 213 120 3 204 111 28 20 -20 -31 -53 32 106 141 138 97 75 71 59 -5 -26 -29 5 9 18 10 16 39 60 14 17 20 31 27 27 25 32 22 50
143 168 100 23 22 12 53 181 332 266 239 339 246 77 156 65 160 75 19 3 29 90 129 180 204 175 103 76 61 21 -7 -50 -42 5 1 33 9 32 65 56 31 25 26 26 30 22 34 21 4
163 146 107 48 -1 15 29 88 224 144 281 319 64 51 222 163 217 204 121 106 79 177 221 245 237 210 138 67 26 42 -5 -32 -77 -35 -1 26 19 35 42 45 33 25 20 32 21 3 31 44 26
138 108 56 48 22 64 33 101 176 279 311 128 0 59 321 128 188 219 226 177 196 241 280 297 263 213 162 103 29 8 7 3 -51 -50 -6 22 43 32 38 29 33 6 25 33 25 -1 5 5 21
59 93 69 28 37 -34 -22 76 128 322 287 232 45 5 148 200 163 182 307 353 393 356 330 335 314 237 205 151 85 52 17 -4 -42 -65 -33 6 43 48 54 40 44 20 16 24 26 7 11 7 9
81 90 107 46 24 51 -27 33 32 299 196 201 55 21 93 49 42 139 225 298 377 430 412 347 327 273 231 184 112 84 51 -5 -23 -50 -25 20 45 54 66 61 49 32 25 21 20 10 -1 5 7
38 157 150 74 59 88 -63 -6 39 87 237 76 231 132 16 40 73 163 185 213 267 379 413 378 326 279 237 194 144 101 73 29 16 -8 -6 22 60 67 69 64 50 40 41 24 6 9 -9 -7 -14
64 92 185 132 151 54 -61 69 48 -42 167 161 226 307 185 100 56 132 209 293 342 385 386 390 301 256 236 193 157 122 74 24 4 -10 -1 23 49 64 75 95 78 65 52 24 2 -7 -19 -13 -18
57 66 76 101 135 32 28 -16 -28 24 69 112 239 188 150 100 29 42 211 247 316 376 409 393 360 244 241 186 143 104 78 41 28 10 -8 3 44 46 71 116 119 79 73 53 27 -1 -12 -21 -12
68 66 132 132 94 131 46 -40 -34 -5 -88 20 65 206 167 112 44 54 170 247 276 348 433 418 391 293 237 182 139 121 103 86 55 12 -1 -3 5 37 50 92 111 95 81 75 76 29 0 3 -24
131 112 98 123 88 71 11 -48 34 -29 -62 -65 64 90 162 184 139 118 134 158 265 270 336 372 366 285 198 176 133 106 96 79 61 44 17 8 -6 12 56 79 108 109 115 121 110 84 53 40 15
71 105 129 111 148 117 8 20 13 83 81 36 104 64 118 144 108 105 205 94 192 212 263 320 323 306 214 201 142 107 71 44 39 46 28 15 4 -14 18 71 102 145 140 139 163 139 98 85 52

GFSSGP_con_3kmhel_039.txt.gz
Helicity
1 10 -6 -10 7 19 25 8 28 14 -21 -22 40 -26 55 -11 0 12 -31 -53 -35 -58 -75 -64 -33 -12 -2 8 14 29 14 20 15 17 17 12 15 17 20 14 5 7 9 6 8 18 24 21 13
-11 33 6 9 1 -8 21 43 26 4 29 -14 73 3 33 32 -32 105 75 -26 -44 -42 -67 -59 -30 -10 -2 5 8 2 4 13 6 1 -2 -2 1 4 -3 -3 0 0 -6 -4 7 12 7 0 0
20 16 -1 9 -10 -19 37 33 7 46 11 -11 35 85 10 -17 12 160 -11 -25 -25 -29 -60 -48 -21 -8 4 -2 4 -5 2 5 1 -11 -10 -1 1 -8 -11 -13 -9 -3 3 3 5 -3 -11 -23 -20
34 -7 26 14 33 -13 -7 10 -20 49 51 43 35 61 47 -6 129 36 -2 -19 -8 -22 -51 -27 -8 -3 -3 -7 3 -8 -9 -9 -9 -11 -14 -8 -14 -11 -5 -2 -1 2 6 5 5 -7 -18 -22 -11
-18 -4 5 24 20 29 1 -20 72 -22 9 7 40 19 81 38 74 81 -4 -25 -7 -24 -44 -34 -10 -15 -9 -7 -5 -10 -8 -9 -6 -4 -1 -2 -7 -2 0 2 4 9 13 9 4 -4 -1 9 14
8 6 9 4 -9 -13 0 -33 46 4 -6 20 77 167 75 -27 54 14 -18 -35 -26 -2 -49 -34 -14 -17 -13 -7 -8 -4 -7 1 14 22 11 4 -4 -6 3 7 9 14 14 14 4 -6 -1 10 19
20 33 0 -24 -54 -3 -5 15 -10 5 3 24 94 150 59 -21 22 -1 -33 -40 -33 -17 -38 -36 -44 -27 -12 -10 -9 0 11 5 7 7 14 4 -2 3 8 8 12 13 6 19 8 1 7 12 23
42 33 28 29 26 -35 2 33 14 -17 -1 90 32 69 105 4 19 4 -24 -28 -38 -37 -26 -41 -45 -31 -17 13 10 6 14 11 4 9 9 8 7 6 11 12 15 15 20 25 31 26 25 14 20
40 37 19 24 60 -2 3 23 -7 13 26 -6 -2 6 113 66 45 43 25 -27 -41 -55 -42 -51 -47 -17 -2 32 22 11 17 13 9 12 14 -2 9 -4 4 29 25 12 17 11 18 31 38 38 30
23 26 73 -17 -40 -49 29 16 11 3 55 14 29 180 220 183 84 59 55 15 -18 -41 -48 -49 -25 -10 14 28 16 10 15 8 4 8 6 12 11 16 13 26 28 22 23 9 3 13 20 30 39
14 -24 8 27 -21 -11 -40 78 4 55 32 33 149 328 329 224 91 40 26 13 -10 -28 -48 -44 -16 -7 13 14 1 2 4 -6 -1 -1 12 17 16 18 2 1 6 15 7 24 4 21 27 31 42
14 -37 -62 -27 75 87 63 76 47 108 32 139 246 441 399 268 138 39 38 12 -21 -24 -44 -38 -11 -8 3 8 -7 -19 -21 -28 -5 1 5 3 11 1 0 6 14 29 15 21 24 39 32 26 28
25 40 -52 79 89 18 86 181 132 122 -16 192 285 318 317 222 122 15 4 -4 -15 -22 -44 -29 -17 -9 -12 -6 -14 -33 -16 -17 5 9 5 -4 14 10 1 -1 7 12 6 23 9 35 45 37 16
25 49 80 93 125 67 122 63 57 34 179 243 312 270 226 181 129 24 12 12 -5 -26 -37 -37 -24 -11 -20 -25 -29 -37 -22 -13 19 7 4 23 20 16 11 13 14 22 9 7 7 12 30 31 3
-12 83 47 83 178 98 27 32 -4 111 157 241 269 199 159 120 88 72 -2 35 16 -25 -38 -36 -26 -24 -26 -42 -40 -34 -5 -2 11 20 13 27 39 28 26 15 1 11 2 8 -7 9 17 26 25
-6 -1 -120 8 26 35 32 -30 76 193 221 190 213 181 130 88 114 69 2 8 5 -20 -30 -41 -26 -35 -35 -53 -43 -34 -12 11 26 13 4 28 26 18 25 19 3 2 16 3 2 16 22 -12 21
81 87 -2 34 2 34 3 22 91 156 209 199 175 201 123 76 40 32 45 38 17 -11 -18 -28 -28 -37 -47 -48 -45 -22 -17 7 10 10 -4 20 22 33 28 26 15 17 4 2 15 10 9 0 16
149 72 32 0 16 37 -42 25 180 176 195 208 143 116 107 123 82 61 30 38 26 2 -16 -22 -27 -34 -59 -52 -38 -30 -9 -14 -20 -6 7 26 17 30 30 17 19 28 12 9 13 7 9 13 14
175 151 60 31 17 71 25 86 209 259 248 138 165 104 81 57 6 -7 25 23 17 -7 -4 -31 -24 -26 -36 -45 -46 -26 16 -1 12 -16 1 4 18 29 48 26 22 11 25 20 9 20 -1 12 35
163 182 126 -10 32 74 65 56 190 313 340 266 258 124 -3 -12 -18 -34 -24 5 8 8 4 -8 8 -3 1 5 -5 -2 3 41 5 -1 -10 14 19 31 29 26 30 28 16 34 25 17 9 19 24
95 126 117 32 67 56 31 56 89 198 196 187 40 69 16 -20 18 -3 -22 -9 7 -11 23 17 29 31 50 48 55 56 34 27 17 23 16 1 13 29 26 39 29 34 22 26 21 18 9 39 27
76 114 101 79 7 64 71 42 102 154 139 112 39 30 115 55 -26 13 35 5 25 33 12 72 74 84 87 92 90 51 24 7 -22 10 13 -4 3 25 26 33 31 26 20 19 23 20 14 13 37
91 123 141 97 11 18 37 147 103 109 53 96 104 44 89 118 66 69 72 171 62 82 52 56 117 107 103 143 115 63 32 4 -6 -8 -17 -9 -7 10 36 26 26 29 9 7 11 11 12 -1 10
115 104 96 99 53 -31 -14 147 160 114 34 76 125 128 121 108 145 103 90 124 165 164 168 99 130 146 132 145 124 75 43 20 9 -31 -19 -19 -21 -10 5 22 17 8 8 13 6 1 2 0 -8
119 169 174 138 124 -17 3 89 86 12 113 232 260 198 220 137 110 139 99 116 132 206 223 189 163 153 159 152 143 96 78 60 38 7 -11 -10 -17 -19 5 24 25 6 7 0 -12 -9 -9 -7 -11
116 157 275 284 230 68 3 53 181 -92 -40 154 241 189 129 84 31 146 149 193 196 235 272 263 227 162 185 181 164 122 90 62 26 23 3 -5 0 16 29 41 36 38 18 -1 -9 -26 -20 -9 -7
128 126 123 158 232 155 75 65 143 136 44 36 146 124 88 82 27 35 131 201 261 268 319 323 261 231 220 217 174 131 108 72 28 12 20 9 3 3 27 49 52 43 43 22 8 -8 -11 -5 -8
110 143 146 157 163 151 151 104 33 152 82 47 59 40 74 72 17 16 49 103 210 282 338 365 339 327 322 238 192 150 120 98 51 18 12 16 0 9 22 46 54 63 60 51 32 2 -19 -13 -18
165 192 174 126 139 116 85 -17 -8 84 90 29 36 76 125 184 142 29 74 119 139 257 287 321 328 346 298 267 197 147 103 75 52 22 7 7 17 16 14 23 34 46 60 68 59 27 4 -6 -30
60 148 153 156 135 132 32 -95 107 18 90 115 -7 48 107 166 177 113 98 183 120 177 242 282 297 325 327 286 243 161 118 84 44 38 27 25 20 25 23 14 18 24 27 60 84 74 49 36 7

GFSSGP_con_3kmhel_042.txt.gz
Helicity
38 26 -1 -3 -11 27 20 4 26 0 -25 1 54 25 -10 7 12 23 -20 -34 -48 -56 -67 -45 -26 -14 -2 2 6 4 3 0 11 9 10 7 13 19 10 8 19 18 18 14 25 26 13 7 0
45 18 6 -15 7 -2 -9 28 37 -8 -23 -31 72 9 12 4 0 87 34 -47 -30 -48 -69 -48 -20 -3 2 7 -1 2 7 0 13 10 10 5 2 6 3 5 15 25 20 17 26 16 7 -1 -11
55 16 -12 40 -4 9 -7 53 67 50 42 5 59 88 21 18 46 173 -37 -12 -36 -54 -62 -42 -13 2 7 6 -3 5 9 5 7 3 -2 1 1 3 3 -8 -4 10 14 22 16 6 -4 -16 -22
40 -4 10 13 31 -22 -17 -5 22 15 1 67 63 86 33 20 103 16 5 -9 -34 -52 -65 -29 -7 3 -1 0 0 12 3 -2 -5 -2 3 8 -8 -8 -8 -6 -4 3 7 7 -1 -2 -7 -19 3
8 -5 13 1 1 3 2 -15 0 2 37 39 43 57 66 67 21 82 15 -36 -17 -53 -62 -34 -10 -6 -10 -6 -5 0 -8 -6 12 15 2 6 4 -2 1 -1 3 8 6 3 -2 5 10 15 13
12 11 -17 17 33 -24 17 33 10 -9 12 5 65 107 79 57 101 33 -14 -36 -37 -33 -54 -35 -11 -10 -11 -7 -9 -5 -10 12 10 11 10 1 -3 -2 -3 -2 8 18 8 -4 -1 0 1 15 22
19 19 16 -9 -11 -67 -19 60 14 -1 2 13 100 95 83 31 15 14 -11 -23 -36 -56 -40 -37 -43 -21 -9 -10 -5 -9 1 7 5 7 2 -1 2 -1 -2 7 17 18 9 3 -1 1 8 21 32
37 34 26 3 -2 -11 26 -19 6 -19 4 96 47 -15 55 -16 -6 -9 -10 -25 -36 -57 -46 -40 -46 -29 -35 -1 -3 4 8 8 0 0 0 -1 6 9 3 7 14 12 16 21 23 22 21 18 32
39 44 36 24 19 -18 13 6 1 3 17 3 -16 17 55 67 12 28 16 -30 -47 -58 -55 -47 -46 -43 0 20 22 7 8 7 7 1 -1 4 11 17 10 22 13 21 24 25 22 16 21 29 28
39 45 14 8 -1 6 26 -22 9 13 33 14 28 140 232 144 87 84 66 34 -13 -29 -57 -44 -36 -33 24 29 21 15 24 21 18 12 8 7 8 17 23 20 20 22 14 10 7 7 12 23 36
26 27 30 -18 -27 -49 56 30 -27 16 39 11 134 239 348 197 112 73 53 22 -19 -26 -39 -37 -30 -8 16 20 14 10 16 10 14 11 11 8 8 13 12 16 7 13 11 14 23 26 25 4 20
34 -32 24 6 26 -43 -39 -59 -38 55 -31 27 220 333 400 251 139 73 58 0 -36 -35 -31 -39 -24 -1 10 19 6 -9 5 10 12 6 4 5 4 1 11 11 16 5 10 11 27 25 23 11 23
20 28 46 70 77 52 58 26 33 28 -22 77 257 335 352 247 110 31 16 -28 -39 -38 -33 -33 -18 4 9 9 -1 -19 -13 -7 5 5 -2 -10 -1 -2 1 7 8 4 5 -1 17 29 19 18 10
-13 62 55 45 78 104 197 117 18 -7 129 158 245 315 279 216 141 31 11 -3 -36 -41 -36 -25 -19 2 11 -4 -14 -24 -18 2 11 0 3 -3 -3 10 14 13 18 8 2 9 11 28 26 25 8
7 111 22 55 48 31 35 31 8 29 158 171 201 255 200 148 91 57 39 24 -13 -29 -37 -29 -25 -5 -1 -12 -21 -23 -18 -5 2 4 18 4 5 17 13 12 17 12 10 -1 10 22 22 25 -2
-37 -15 20 55 33 53 59 88 83 134 132 172 232 219 171 98 69 7 -11 7 -9 -30 -40 -37 -14 -14 -14 -20 -26 -27 -16 -5 8 7 6 7 10 13 11 14 26 11 5 5 -6 7 2 26 26
86 78 52 86 28 68 20 41 36 143 169 189 240 240 169 75 39 -7 -24 -11 12 -7 -32 -38 -19 -12 -29 -34 -29 -26 -18 -10 4 -3 -3 8 25 17 8 15 16 14 2 -1 4 1 12 25 12
131 116 130 70 66 86 36 54 46 93 141 186 193 232 179 108 27 -5 -38 -12 -21 -16 -28 -38 -17 -8 -22 -17 -19 -27 -27 -22 -6 1 -11 -6 23 21 6 5 17 20 7 1 -2 6 5 7 8
173 107 114 108 109 106 64 83 32 96 68 84 140 190 163 180 77 1 -32 -30 -12 -21 -32 -35 -34 -17 -13 12 8 -2 -8 -17 -9 -30 -23 -16 13 22 12 19 20 17 22 9 1 0 3 22 13
131 141 114 99 90 93 72 40 68 134 177 225 247 196 133 94 120 30 6 -32 -12 3 -9 -27 -26 -21 -18 8 26 28 7 5 3 -36 -26 -14 22 18 20 33 36 29 14 20 13 -1 -7 17 37
68 81 97 88 133 115 72 62 62 49 106 134 116 125 124 146 153 112 6 12 1 -2 -5 -10 -17 5 -21 16 66 66 64 42 20 14 -6 -4 23 34 32 33 17 23 15 28 24 17 0 15 26
80 76 47 66 104 136 144 21 86 109 81 98 121 126 104 119 102 89 59 5 3 0 8 -1 8 35 -6 -4 -7 -7 26 16 13 24 12 -5 7 26 25 26 13 15 11 28 29 24 5 5 29
71 67 61 57 63 49 156 146 22 59 72 24 75 101 97 121 129 110 73 69 24 18 -2 11 15 -3 4 8 14 9 1 -15 18 22 13 2 -1 6 13 13 4 5 4 10 18 16 20 4 14
91 93 108 95 92 14 25 129 64 80 -46 -14 52 82 84 105 130 126 55 12 12 -1 25 12 12 -17 32 36 25 23 30 33 35 34 20 27 20 5 4 8 6 -4 -3 -2 6 8 16 21 0
107 129 153 154 140 -33 17 73 91 55 31 25 50 64 100 148 126 80 104 52 35 32 -4 8 -9 -8 -4 19 33 45 75 76 66 60 62 58 38 23 12 1 9 11 7 -10 -11 -2 10 16 16
139 155 294 240 179 36 14 77 93 -59 64 3 73 101 166 189 152 124 105 118 69 97 62 33 25 2 90 59 52 74 88 81 66 54 52 48 63 30 -13 -2 8 10 -3 -19 -18 -18 -4 4 4
174 168 167 151 115 31 90 95 150 -2 45 13 29 146 129 160 209 178 124 130 107 105 150 112 62 40 146 124 138 89 86 99 64 57 33 29 27 6 -17 -5 12 10 9 2 -11 -17 -15 -12 1
75 98 193 222 138 47 104 185 92 126 41 50 39 128 133 200 219 209 238 137 136 148 151 163 141 132 181 218 191 186 169 125 85 64 35 17 6 -18 -35 -21 -4 6 16 12 1 -17 -35 -32 -22
135 168 164 212 213 104 56 91 139 76 75 54 1 61 98 175 200 203 137 179 183 116 163 196 183 173 211 218 219 187 191 169 168 80 49 34 1 -4 -13 -21 -12 7 18 30 25 -7 -22 -25 -27
257 161 181 194 178 136 57 38 69 92 60 77 -3 45 71 170 206 180 99 145 260 263 240 243 222 194 192 228 247 223 216 224 177 128 61 33 25 17 15 3 -16 -11 6 25 34 17 -8 -3 -12

GFSSGP_con_3kmhel_045.txt.gz
Helicity
42 36 4 10 -15 17 21 27 26 6 -8 36 9 9 -3 13 40 -1 -14 -26 -26 -28 -34 -23 -34 -31 -24 -24 -21 -20 -9 -4 -3 -2 4 -3 0 5 15 17 10 10 14 14 24 18 4 1 5
43 36 7 -8 2 -3 -1 43 22 -13 3 0 19 11 17 13 20 68 32 -28 -20 -23 -31 -26 -29 -21 -21 -13 -16 -10 -3 1 3 7 5 4 7 3 4 17 14 19 20 25 21 16 3 -1 -9
56 15 23 28 4 11 -29 43 62 32 43 37 19 21 8 7 19 146 -22 -18 -23 -28 -30 -31 -16 -12 -7 -12 -9 4 7 1 -1 12 2 0 2 6 4 16 16 17 20 17 10 2 -3 -6 -17
42 10 -8 11 13 22 -25 26 46 31 53 48 31 44 6 19 68 70 10 -17 -20 -33 -31 -15 -9 -12 -5 -4 5 2 8 11 6 0 0 0 1 7 17 16 12 6 7 -1 1 4 12 12 22
21 -21 -9 -10 -14 5 3 3 29 3 20 84 25 21 26 20 28 62 10 -24 -16 -25 -29 -9 -10 -12 -11 4 9 12 7 10 8 6 -3 1 -1 -8 -8 17 9 4 -3 -7 3 5 16 15 26
12 6 -13 -1 -6 -19 -15 13 -17 2 28 40 61 63 35 15 61 5 -4 -33 -29 -14 -20 -5 -7 -8 -10 1 5 14 6 9 16 13 6 -3 -11 -9 1 6 5 -5 -8 -10 4 6 14 24 18
30 12 5 -15 -4 -9 -5 33 -16 -2 -5 -1 59 47 53 66 9 -6 -18 -38 -37 -23 -13 -6 -13 -15 -9 -5 -1 9 11 18 14 1 -7 -9 -10 -4 4 10 12 4 -2 5 11 13 14 19 13
23 15 17 -17 -13 -26 -18 18 49 4 17 65 52 8 68 32 -3 -12 -33 -41 -41 -26 -19 -11 -25 -21 -19 -4 2 7 8 8 4 -6 -4 -1 -7 -1 2 20 11 20 22 21 13 18 15 16 -1
36 28 29 37 6 27 16 13 -7 -3 69 18 -8 13 108 64 2 11 -10 -37 -45 -35 -22 -27 -28 -26 -20 16 14 18 9 2 2 -1 2 1 6 9 14 5 17 19 24 29 24 20 26 24 14
8 32 26 18 -14 6 39 16 30 -4 55 9 5 66 119 156 83 78 44 17 -14 -21 -22 -34 -29 -19 1 18 15 19 14 15 11 6 11 7 10 10 15 7 12 15 13 20 22 17 23 42 22
16 33 34 46 29 41 50 11 17 29 34 8 65 117 193 177 118 81 36 21 -7 -20 -29 -31 -26 -2 11 19 23 24 23 15 14 9 11 6 12 17 16 12 9 15 11 22 29 28 27 26 15
23 -6 58 37 39 51 40 48 -27 -2 12 14 110 171 287 183 145 88 56 19 -8 -13 -18 -17 -10 9 20 23 20 13 18 17 17 14 9 7 8 13 17 19 8 2 13 14 18 15 11 12 3
-6 39 25 21 36 79 62 47 -1 0 17 34 151 201 229 203 129 37 25 0 -10 -11 -16 -11 7 16 19 17 12 12 15 17 15 11 0 5 7 8 17 17 8 4 12 20 17 8 2 -10 -13
15 10 59 42 54 62 118 135 -21 1 66 88 156 191 212 214 147 37 19 9 -1 -12 -14 -10 10 15 15 12 8 6 10 13 16 10 -3 3 6 8 11 17 7 1 9 16 17 14 15 11 -38
-2 94 46 15 45 52 56 71 54 39 66 104 114 152 131 153 112 51 14 4 -8 -14 -12 -10 7 11 10 7 2 3 8 17 13 4 0 -1 2 6 17 22 11 6 5 2 14 6 19 11 -26
-10 48 36 13 11 52 29 67 48 54 70 86 117 100 107 117 118 34 1 -4 -21 -19 -14 -10 11 7 4 -4 2 1 5 18 18 9 6 12 9 9 14 24 12 7 4 0 10 2 5 14 -12
42 64 -4 67 23 45 19 60 31 27 33 81 106 87 89 74 47 5 -9 -10 -21 -20 -22 -12 6 4 -1 -10 5 2 -1 8 13 7 4 8 11 10 14 20 17 15 6 6 11 0 10 2 5
121 44 80 14 54 23 43 57 30 9 23 57 85 83 77 81 51 23 -6 -17 -32 -30 -24 -14 8 8 6 8 15 10 0 -3 3 4 -1 1 5 11 9 10 13 22 10 7 -1 -5 1 9 1
164 94 101 91 85 59 14 64 40 27 36 33 62 115 91 91 56 6 1 -14 -32 -38 -31 -25 -11 -8 5 0 12 13 1 -4 -1 0 -5 -7 -2 8 -2 1 6 19 19 2 -5 -2 6 10 4
88 137 129 139 161 103 49 46 31 29 43 65 95 101 137 63 47 14 -5 -7 -29 -31 -27 -25 -17 -6 7 17 42 50 12 -5 -1 -1 -21 -13 1 4 8 5 12 12 21 17 6 2 13 17 22
46 64 107 174 197 127 90 41 43 12 23 1 8 28 50 80 129 58 10 -5 -18 -26 -32 -19 -14 4 21 26 39 55 38 32 7 6 -8 -16 3 7 6 10 10 13 25 26 11 8 6 12 32
53 38 68 126 196 150 93 28 25 17 -10 18 16 38 55 61 64 85 65 27 2 -14 -19 -11 0 9 25 50 19 16 22 17 6 3 0 -13 3 18 11 16 25 18 19 25 23 18 13 18 30
48 21 33 70 120 164 196 114 43 -5 -16 -41 -17 44 47 64 75 117 130 67 8 4 -1 3 24 23 10 13 25 8 4 -8 4 5 -3 -3 -3 11 11 18 17 6 2 15 27 32 27 10 12
107 58 60 67 72 81 47 116 -7 -28 -71 -4 31 24 45 72 74 68 83 62 19 22 9 19 44 18 10 -32 -2 -2 -13 -29 -10 6 0 3 9 10 11 6 0 -9 -9 7 21 31 14 7 1
67 146 153 141 129 35 43 76 26 32 4 9 1 49 64 89 87 77 91 75 64 35 24 31 57 -1 -16 -30 -15 -26 -23 -12 -3 1 1 16 24 24 17 10 4 -8 -8 -6 3 9 11 10 17
74 90 241 210 165 82 61 51 -13 -5 52 20 -2 17 33 48 72 85 101 124 85 79 75 61 32 3 -13 -22 -49 -18 -25 -29 -18 -10 -3 12 24 35 23 22 6 -9 -19 -15 -12 -8 0 -3 2
99 55 83 219 147 93 109 49 120 75 29 -8 20 27 19 33 54 100 136 107 131 65 69 50 53 30 13 -23 30 -19 -23 -23 -40 -4 4 11 25 17 10 3 -7 -15 -21 -14 -16 -19 -14 -13 -5
165 92 114 178 129 55 57 -3 -17 10 41 21 19 22 29 45 54 57 118 177 136 87 87 77 62 32 20 15 47 26 8 1 5 -3 14 26 35 9 -5 -4 -7 -17 -17 -22 -21 -33 -27 -25 -20
93 158 118 95 113 83 70 79 36 -20 2 30 13 19 25 41 69 89 102 157 215 87 117 107 82 70 67 50 60 57 27 5 35 3 30 35 51 7 -2 5 -4 -17 -13 -14 -29 -36 -37 -45 -38
219 234 136 144 114 84 152 76 31 -23 -27 9 14 21 11 34 57 155 124 95 102 150 202 105 144 116 125 114 108 110 106 98 89 103 74 71 75 54 6 11 11 -2 -6 -10 -25 -48 -48 -42 -42

GFSSGP_con_3kmhel_051.txt.gz
Helicity
41 54 91 24 -7 29 60 55 49 19 13 29 41 37 25 99 56 30 16 -48 -43 -60 -53 -39 -44 -39 -34 -30 -22 -21 -18 -11 -12 -21 -13 -7 -5 10 11 11 10 15 24 23 19 22 22 20 35
35 24 2 15 -30 7 29 25 28 42 54 64 51 12 47 73 26 103 50 -4 -32 -32 -27 -29 -40 -20 -20 -28 -9 -20 -18 -15 -16 -9 -11 -6 -7 9 12 17 15 12 15 18 20 21 16 15 12
9 -3 3 21 12 1 49 64 11 34 21 46 36 53 57 20 25 51 30 -25 -9 -16 -7 -12 -21 -28 -25 -13 -5 -7 -10 -11 -3 -3 -2 1 5 7 6 12 17 11 13 12 16 9 6 9 5
9 23 -4 33 46 38 26 41 28 57 27 39 19 25 38 12 37 48 24 -10 3 -5 31 -6 -22 -24 -15 -1 6 -1 2 7 -0 1 1 5 5 13 13 21 18 11 5 2 5 1 -4 8 -3
20 -11 20 4 29 15 18 47 64 103 21 10 18 27 54 45 54 26 -14 -24 -5 38 -2 -1 -27 -18 -11 -3 2 -3 -0 3 -0 -0 4 8 10 18 19 11 3 -4 3 -3 6 7 7 1 11
1 -3 -18 -34 44 36 26 22 54 66 73 3 17 39 25 22 35 7 -25 -21 -19 69 10 2 -21 -9 -14 -13 -3 -1 -2 -2 -2 -2 5 4 23 30 29 5 -4 -14 -8 -7 -0 15 9 -1 1
3 11 48 25 13 15 42 26 44 23 -23 -15 59 27 22 18 -3 -20 -28 -22 -7 42 38 -0 -16 -18 -22 -15 -8 -3 3 2 -1 3 5 11 17 12 20 14 -4 -4 -3 -6 -7 6 12 14 15
15 98 65 -21 2 20 10 96 88 -7 15 74 -11 4 20 21 -24 -33 -28 -25 12 24 17 -12 -17 -21 -15 -18 -9 -4 8 5 -1 -2 11 12 6 25 20 20 3 3 2 -5 -0 -1 23 29 27
41 29 10 17 31 49 44 46 40 28 -12 -12 6 10 79 65 13 -21 -43 -20 9 29 9 4 -4 -17 -21 -9 -10 1 11 -6 -4 6 14 5 23 36 24 10 8 14 9 11 18 26 22 25 15
-13 13 3 2 17 -2 54 40 14 -6 2 12 14 110 111 84 37 21 4 -6 3 7 14 -5 22 11 13 -8 3 -9 11 20 16 9 69 64 7 18 21 13 25 31 22 34 64 35 16 32 27
-15 63 38 43 35 30 87 43 -8 -44 11 20 33 151 103 110 39 7 -10 1 2 -6 -3 42 52 -3 14 54 6 9 14 10 16 6 16 -1 -15 26 16 44 51 54 46 26 43 7 59 78 106
12 13 17 47 30 49 115 58 5 25 110 52 63 86 85 86 35 -12 -12 6 1 -8 -3 30 41 10 39 -27 2 23 -7 14 12 14 23 10 7 23 -1 34 20 -7 25 30 55 -36 23 32 16
-3 27 33 47 53 49 61 -3 57 60 26 89 64 45 45 42 30 -19 -9 14 6 -5 16 50 11 15 42 60 45 29 34 26 30 5 29 53 27 6 5 11 22 22 15 16 30 -13 2 -7 -20
4 7 28 11 14 8 42 78 14 -6 64 82 48 18 28 26 7 1 -8 6 14 -6 19 52 18 33 39 75 67 65 44 48 3 10 4 26 42 16 -2 21 2 28 20 -2 12 26 39 21 -17
18 50 5 5 6 15 14 8 12 -4 63 72 31 12 21 7 -5 2 1 1 12 -12 16 46 7 17 25 49 38 35 42 -2 11 24 4 22 11 4 17 9 25 28 7 -3 8 26 38 25 30
25 17 5 38 35 -5 29 20 37 77 64 63 50 18 26 4 4 7 -1 -5 18 -6 9 27 5 2 5 24 23 60 -1 30 1 7 6 1 -0 12 23 15 12 2 6 15 26 27 -0 49 51
36 28 -0 15 134 -2 -3 60 260 59 50 50 43 28 25 16 1 4 1 -3 25 11 -2 29 22 2 -17 22 13 34 26 30 10 7 15 12 17 20 26 -8 4 35 31 40 11 -4 10 56 31
1 31 -0 8 64 1 18 105 3 24 36 50 36 32 35 34 24 11 -7 2 15 19 11 34 32 42 13 -29 19 28 -2 43 6 7 8 -1 8 4 12 -13 -6 3 27 20 40 17 38 98 29
69 11 12 21 21 15 10 52 -6 44 31 65 43 36 35 53 43 28 -13 4 8 16 10 18 38 49 26 -7 4 8 3 13 1 -7 -4 -6 3 6 2 -10 -3 32 11 8 3 14 31 18 23
56 69 45 19 33 50 57 26 70 62 51 72 46 43 25 28 50 44 -2 7 11 24 11 23 58 61 -7 25 21 15 11 -7 9 3 -12 5 4 -2 3 2 6 -8 5 11 2 10 21 1 28
54 44 40 33 68 45 27 89 38 78 76 70 46 57 40 37 72 54 30 21 18 34 15 26 66 67 23 17 39 35 20 27 4 -6 -15 -4 -0 -2 1 1 10 -0 18 23 13 20 43 18 12
62 26 83 50 66 87 59 62 35 61 30 87 54 70 58 37 41 65 52 26 42 47 23 50 63 80 48 30 -6 15 8 -10 -7 1 -4 -17 -7 -4 -2 -1 4 15 16 13 18 9 42 29 26
66 29 34 80 96 79 85 60 56 28 150 61 55 54 68 48 55 97 72 85 77 74 60 50 71 81 78 35 32 58 10 -4 -18 3 75 11 -22 -8 -4 8 10 12 16 10 13 2 17 12 33
36 55 69 90 89 104 86 68 56 68 63 53 72 76 60 62 58 79 87 72 49 81 93 91 97 85 97 67 -7 63 10 2 -4 -5 -7 -21 -13 -7 -2 6 6 11 8 10 17 14 7 20 9
70 123 147 148 149 99 54 106 65 44 98 8 93 77 82 79 54 60 97 81 99 108 117 141 158 97 106 96 26 78 73 -21 44 28 -4 -16 -6 4 49 6 2 3 -1 2 4 8 9 9 13
52 88 151 143 143 82 67 88 78 35 32 218 71 109 80 88 77 83 86 84 116 124 169 161 194 136 105 123 97 73 103 57 -11 13 10 -4 -6 -11 123 13 -1 -1 7 -1 1 5 9 4 10
58 69 44 62 37 46 53 42 37 34 38 52 3 99 50 82 67 86 86 90 101 84 172 174 213 192 155 107 137 135 117 -17 14 -10 -16 16 3 18 58 10 -12 -2 -1 1 3 -11 4 6 4
191 91 71 87 173 155 49 38 71 57 51 49 39 37 77 54 62 65 81 92 98 90 101 145 147 197 187 166 160 154 126 94 41 78 52 -23 22 22 59 18 -15 -7 -5 -2 1 -8 1 -1 -1
44 114 134 81 79 108 107 65 57 42 44 45 48 47 46 39 70 50 81 95 81 75 63 95 125 137 124 138 160 146 136 95 91 97 56 14 29 45 25 31 -13 -16 -6 3 6 -37 -16 8 -8
55 86 41 148 172 95 68 70 31 47 47 25 50 37 33 34 46 70 54 70 88 71 71 73 84 94 113 118 159 149 169 143 105 37 57 87 13 39 42 20 35 -14 -0 14 19 3 -16 -2 -11

GFSSGP_con_3kmhel_057.txt.gz
Helicity
28 20 21 21 -4 6 17 24 -22 -13 90 22 73 97 17 35 -33 -8 -44 -28 -10 -27 -65 -31 -22 -15 -10 -11 -4 7 15 15 2 8 4 7 9 12 13 15 14 20 21 13 16 19 22 30 38
14 18 28 17 -3 15 23 22 79 141 123 84 243 141 85 48 37 94 8 -13 -8 -8 -44 -40 -23 -17 -12 -4 -5 -9 -12 -5 6 10 6 10 13 14 18 21 24 28 19 20 12 8 10 26 32
8 47 4 -21 -14 -19 55 76 127 136 88 112 98 72 44 37 112 52 8 -12 -14 -10 -16 -26 -13 -10 -3 -9 -9 -11 -5 12 11 10 8 11 12 10 18 17 20 16 8 1 -2 6 13 12 17
-6 -9 18 9 50 5 25 61 30 110 153 90 105 85 22 12 110 -48 -26 -20 -31 1 14 -7 -4 -4 -10 -10 2 7 6 11 7 12 10 8 10 13 19 16 12 13 15 6 10 9 -3 8 19
4 -2 -6 -5 20 4 55 2 48 -2 94 52 139 79 35 -9 11 -32 -57 -39 86 46 12 -9 -3 1 0 2 4 5 9 8 7 8 10 13 17 17 19 10 16 13 11 10 18 6 8 15 18
-9 0 -13 -21 -23 27 48 -6 8 133 72 97 177 112 35 -14 -5 -93 -95 39 99 58 29 10 6 6 -5 13 4 1 2 6 5 11 13 21 27 25 14 14 12 12 14 22 23 27 20 15 16
-5 15 15 25 55 9 46 -3 -24 117 75 28 18 105 3 -13 -54 -76 -16 165 96 77 83 23 -9 -6 -2 1 -1 -1 1 3 5 9 20 25 31 32 21 20 17 17 13 19 29 41 34 22 31
8 40 62 59 28 -3 52 -22 8 77 75 62 59 30 24 -9 -58 -44 36 123 152 88 58 28 0 -15 -28 -20 -5 -6 -1 4 8 10 16 20 26 32 23 12 19 22 15 18 24 22 19 5 24
75 55 113 39 16 20 27 6 12 75 28 -11 -67 35 57 -33 -41 92 94 124 39 16 37 11 -26 -38 -27 -23 -14 -7 7 8 9 6 21 12 2 8 26 17 17 11 23 17 19 0 -13 -9 8
-18 54 39 -15 38 60 20 41 61 76 -14 -52 11 80 32 6 -8 66 119 126 22 -4 -15 -3 -21 -7 -18 -10 -15 -16 -5 0 -18 -7 -3 9 12 9 19 22 17 3 20 15 12 4 1 -2 8
-2 15 -3 -40 93 157 91 -91 -11 4 -12 -35 128 109 56 10 -27 62 128 71 29 -8 -30 -7 -28 -27 -36 -22 -34 -26 -30 -13 3 19 -2 22 0 20 -2 -1 -2 6 9 21 1 28 27 34 71
80 165 172 75 124 171 136 77 9 8 19 150 162 201 115 59 22 77 90 12 -23 21 39 37 -52 -46 8 -45 -48 -39 -29 8 -10 -2 -9 11 -6 11 10 1 10 18 31 15 10 10 25 32 11
70 180 82 37 134 116 96 56 138 128 0 78 57 180 139 67 5 49 15 -29 28 208 204 77 29 12 -15 -7 -27 -29 -35 1 7 0 5 -24 5 5 18 -15 9 41 6 55 47 35 49 42 38
50 36 32 7 68 47 81 67 65 36 15 15 119 191 68 48 -32 -35 -24 -36 164 187 188 85 42 28 -26 55 -45 -48 -3 22 50 38 24 17 17 9 18 5 27 9 30 20 28 41 40 -24 34
40 19 26 20 80 -13 115 43 18 53 23 75 167 154 25 6 -108 -113 -45 41 202 235 202 85 13 47 81 45 -7 0 -22 -48 12 -1 -3 -7 9 6 17 -3 -3 14 22 34 23 14 23 30 1
74 44 -52 13 48 59 97 72 179 215 61 81 126 74 -11 -33 -116 -139 -75 67 258 248 153 58 12 14 -27 3 -22 -46 5 -4 39 28 18 16 15 18 38 -7 42 6 18 28 9 34 22 57 22
81 18 20 14 52 140 117 149 147 219 76 72 112 17 -43 -65 -98 -129 -51 158 237 243 167 41 -20 14 -35 3 -29 -16 85 -13 -30 -3 6 10 14 7 21 -3 7 0 7 23 6 41 30 33 18
12 23 43 26 89 189 157 226 272 207 159 110 49 45 -13 -99 -98 -72 20 153 282 202 136 84 5 27 -15 -55 -68 19 -8 -17 4 -15 -1 16 4 -4 8 19 16 15 -19 5 13 20 44 14 8
55 93 36 8 6 136 278 317 277 109 110 76 -41 34 64 -41 -135 -81 37 211 290 251 178 151 79 6 12 -68 -72 -13 -30 -33 -43 2 18 25 29 14 20 9 23 12 12 0 31 5 27 27 22
65 121 109 59 47 52 415 304 164 199 217 160 -49 -31 153 17 -59 -55 43 237 314 251 175 176 136 64 28 -44 -65 -20 -28 -11 -18 -17 -2 0 61 18 5 11 15 34 -1 26 -12 1 45 37 26
94 106 119 97 90 -37 329 417 323 129 113 217 147 166 107 165 37 -46 68 190 292 272 178 168 161 102 55 -39 -55 32 -13 -33 -40 -20 -5 -16 61 23 23 21 25 2 7 -6 -14 -1 -3 3 2
91 80 92 115 92 26 70 76 112 192 220 315 402 301 115 27 114 75 42 174 276 285 235 189 178 107 70 -18 -88 -46 -25 -21 -14 26 -8 11 20 11 26 29 24 20 15 15 -9 5 -2 -7 -5
50 64 58 93 59 97 25 52 57 252 242 250 492 146 5 8 219 181 147 131 278 309 238 206 192 106 49 6 -54 -59 -40 -8 0 9 6 8 -8 33 31 27 25 13 24 11 9 -16 -14 -12 20
-8 69 104 49 65 63 60 98 44 214 202 305 364 77 -25 -95 51 265 192 128 269 322 267 223 207 124 70 6 -54 -63 -39 -25 -13 -1 16 23 35 13 44 38 27 36 24 8 8 -3 -25 -40 10
61 103 151 104 122 44 32 85 105 1 176 417 377 99 23 -46 20 313 278 181 215 309 290 240 239 170 102 16 -34 -72 -52 -46 -21 -18 22 37 18 4 57 61 28 26 25 19 -1 -11 -26 -19 -19
91 84 174 127 87 28 57 67 56 48 232 365 387 178 69 21 226 211 360 263 231 322 332 256 220 198 146 100 0 -56 -60 -58 -41 27 26 44 23 15 50 56 32 18 33 14 4 -9 -20 -6 -11
104 156 77 111 86 98 84 59 84 10 135 215 250 159 45 239 314 343 244 320 286 293 348 325 244 202 188 135 95 12 51 -82 -73 -36 21 -5 61 20 51 110 69 24 15 28 16 -3 -2 -10 -8
51 95 174 137 108 121 119 96 31 25 -56 284 359 227 299 489 284 328 353 141 125 242 293 283 248 205 185 139 94 98 54 40 7 -40 -18 23 -1 51 48 149 107 46 14 20 8 1 -11 -4 -2
121 142 109 119 163 87 72 31 -67 28 -21 190 371 330 393 422 370 174 114 15 187 95 187 272 324 238 158 139 105 85 76 85 88 32 -33 52 27 73 106 140 117 64 47 29 19 5 -16 2 4
200 96 93 160 171 183 155 19 -107 -146 -21 24 186 243 315 485 375 236 48 32 22 85 173 235 278 347 240 173 140 115 122 120 50 104 38 -7 50 74 113 127 101 71 46 51 43 15 -11 -23 -11

GFSSGP_con_3kmhel_060.txt.gz
Helicity
11 -20 -25 -9 -9 -1 -8 26 40 -7 1 -19 6 -6 -71 -79 -42 -37 -52 -59 -30 -46 -67 -51 -34 -25 -20 -3 -1 4 9 5 5 7 10 17 16 10 11 17 17 20 23 23 29 30 40 40 31
-8 -9 28 -7 0 21 22 32 71 52 115 199 95 23 -41 -67 -31 -25 17 -42 -13 -34 -56 -44 -26 -17 -7 2 7 2 3 5 6 5 9 13 18 14 20 19 20 10 12 16 16 19 21 23 12
17 15 11 -5 -9 26 44 68 34 134 22 112 103 144 46 -41 37 73 -48 -18 -5 -24 -34 -28 -10 -5 1 4 -2 1 2 6 7 9 17 14 19 20 21 17 6 2 0 0 12 14 19 9 9
-3 -3 -9 -2 31 2 23 6 22 145 165 68 127 76 62 -57 55 -38 0 0 15 0 -24 -9 4 5 6 7 8 -1 5 8 8 9 7 14 16 19 13 14 16 17 12 11 2 2 3 -4 -14
14 -8 -9 9 4 19 121 13 3 47 14 38 62 11 77 17 -28 58 16 13 49 16 -16 -11 -2 4 4 6 9 4 4 4 7 8 11 11 11 9 9 9 15 18 15 9 16 19 18 4 17
1 1 -5 -8 -12 27 13 15 -10 -17 14 9 76 138 126 -38 24 19 -1 31 40 48 2 -1 2 3 5 9 6 3 0 3 9 15 18 21 14 3 3 9 20 24 20 14 11 7 18 28 48
-5 3 1 16 -9 64 15 7 -25 74 61 20 66 166 52 -26 -12 -11 1 39 20 42 28 6 -15 -5 3 5 2 -1 0 1 11 10 17 21 9 2 6 8 14 21 28 24 4 -5 15 38 41
6 9 15 20 10 8 26 -7 -26 -11 0 63 107 48 54 -19 -6 0 36 58 44 41 36 7 -6 -5 -14 -8 3 -2 0 4 11 12 10 14 15 11 12 15 17 20 25 16 5 -5 13 34 -16
18 65 57 28 33 7 38 1 -16 -13 -14 -16 -14 -42 114 23 37 45 67 63 45 26 27 21 15 -17 -23 -16 -16 -4 2 1 8 12 13 -3 0 -2 4 26 24 21 24 19 15 -36 11 16 28
7 95 38 -53 1 22 48 -4 -16 12 16 31 39 42 136 122 65 94 56 61 36 57 20 5 8 -29 -30 -1 -34 -28 -11 -23 -23 -12 -5 2 13 14 12 13 27 31 28 21 15 13 0 13 45
3 50 -17 -55 96 40 53 17 3 4 31 4 97 92 180 158 150 118 36 62 36 10 5 -15 -20 -38 -28 -24 -37 -41 -43 -42 -30 -16 -5 19 5 0 -12 -11 -5 4 24 17 24 27 28 25 44
8 -20 42 -3 174 67 -2 -3 -32 5 -17 54 65 103 209 214 235 135 57 12 32 -9 -5 -28 -32 -42 -35 -34 -61 -62 -58 -47 -31 -22 -3 -11 2 -1 10 2 13 3 32 28 64 23 51 15 23
35 132 57 30 223 147 133 111 8 -35 72 100 90 51 200 209 156 83 44 32 14 14 -19 -58 -62 -49 -29 -50 -74 -59 -65 -46 -28 -10 9 5 14 24 19 27 9 12 12 32 56 30 36 45 62
106 107 44 195 264 131 -37 -5 -9 40 137 152 68 57 140 149 155 82 15 46 44 42 -10 -33 -63 -37 -31 -45 -47 -48 -54 -41 -5 -10 -5 12 20 28 10 9 9 9 12 38 43 42 9 21 48
172 177 73 56 279 82 64 17 -13 122 237 96 20 58 78 84 124 64 10 108 111 103 62 17 -34 -19 -28 -28 -12 -21 -31 -18 -5 -19 6 17 22 22 7 -4 -5 7 13 7 23 16 6 -4 34
99 36 76 -3 101 88 48 42 13 161 113 72 78 47 66 -2 23 -44 0 146 214 192 142 68 11 10 -24 -37 -43 -14 -10 -17 -6 -32 5 38 37 13 15 15 14 14 2 11 25 26 -9 43 16
141 43 22 -4 4 59 5 92 84 107 136 154 145 93 62 -21 -75 -74 -3 182 165 238 150 80 72 10 -17 -32 -8 -24 -19 10 5 -16 -4 7 9 15 8 -5 7 -5 4 2 19 30 25 2 9
28 42 41 37 36 92 148 146 118 136 173 204 142 101 102 -3 -112 -111 37 119 165 195 177 115 46 81 -3 -22 -6 17 4 -13 -8 -3 -12 -3 2 20 -1 1 -2 -14 3 24 23 19 39 27 27
26 33 43 84 119 20 208 332 180 201 128 188 78 127 79 2 -166 -151 -70 110 172 188 198 151 62 17 33 -9 -33 -3 9 -5 -14 -22 3 5 -1 -7 9 1 -13 -14 -19 3 1 22 31 26 10
34 54 94 138 87 22 197 310 257 207 118 83 65 53 -90 -37 -144 -181 -3 133 119 188 199 168 47 11 49 -2 -44 26 -3 -9 -22 -21 -6 11 2 2 10 8 4 -2 -8 -16 -3 -13 10 28 7
77 73 120 155 134 19 94 123 111 147 54 56 124 142 5 -50 -50 -136 73 199 193 255 257 175 103 48 46 -15 -36 58 -31 -15 -24 -47 -22 0 4 5 8 3 0 4 -12 -14 -18 -8 -12 -2 19
96 62 149 162 111 111 43 61 130 180 111 62 71 11 48 -76 -89 -57 160 238 225 151 257 232 191 111 26 -6 -20 -56 -54 -51 -29 -13 -28 3 4 9 7 13 15 10 -8 -17 -25 -5 -3 -14 24
136 78 146 83 31 13 64 104 67 236 125 102 98 10 86 -64 -25 52 206 280 301 258 285 293 247 139 21 4 -26 -35 -63 -61 -30 -24 -30 -6 -11 9 10 21 17 19 -2 -14 -33 -22 -20 -7 5
88 185 81 47 41 86 3 86 69 157 256 172 103 -27 43 103 29 73 244 334 294 270 319 315 264 142 40 -12 -44 -30 -44 -34 -40 -10 -20 -19 -14 13 19 21 23 18 23 6 -20 -12 -6 -19 2
55 181 192 100 137 74 36 138 70 25 174 377 384 134 34 190 85 73 154 342 328 367 353 302 260 170 78 6 -39 -60 -46 -55 -28 -2 4 -7 -21 10 28 24 27 18 9 13 1 -9 -27 -23 -6
63 122 165 128 80 54 3 66 64 29 82 317 448 263 155 262 91 28 160 292 429 395 407 356 273 212 135 61 -18 -34 -60 -80 -51 -14 9 21 27 44 38 40 35 30 20 14 11 -15 -43 -35 -30
159 170 73 98 103 131 141 154 131 91 75 160 213 224 235 228 120 62 154 270 394 441 434 420 339 257 205 126 27 -24 -36 -68 -94 -22 -18 26 10 11 25 42 25 24 19 11 5 -2 -19 -41 -31
115 80 167 148 85 107 135 122 137 -126 91 111 131 188 69 206 156 186 223 226 323 436 462 446 435 316 260 197 158 27 -24 -28 -65 -58 -40 -28 -32 -6 18 44 29 13 7 -1 -8 -13 -7 -6 -13
313 259 126 117 124 81 92 108 -96 -170 -65 -18 146 185 173 203 172 267 258 225 334 331 382 406 379 361 277 220 222 130 23 -22 -33 -66 -55 -41 -51 -25 13 33 74 40 19 12 1 -19 -19 -14 -14
137 262 358 218 210 228 184 205 116 -24 -48 54 80 77 173 185 146 205 239 372 436 312 262 307 331 304 285 291 257 175 145 48 -22 -62 -69 -67 -43 19 23 62 93 72 30 21 16 -9 -25 -27 -17

GFSSGP_con_3kmhel_066.txt.gz
Helicity
14 12 10 -7 -17 -2 -4 4 0 85 54 54 43 -16 -31 11 11 17 -36 -57 -13 -52 -34 -30 -19 -7 -16 -6 -11 -5 5 8 9 17 20 22 23 18 19 24 30 24 28 27 20 15 18 17 20
-4 -12 2 -22 -14 3 11 50 64 113 59 -5 54 54 -17 -13 9 16 -10 -46 -6 -41 -31 -27 -18 -6 -4 -5 -11 -10 9 6 -1 10 11 11 13 13 31 42 38 31 19 18 17 7 4 6 -1
-4 17 -5 -1 9 22 37 60 43 80 86 53 35 97 39 -13 7 52 -40 -31 -18 -51 -40 -23 -13 -1 5 -6 -8 0 2 2 1 2 -4 -7 -10 -3 -11 -11 -10 26 24 16 23 22 -8 -16 -9
2 -14 -18 2 24 33 75 117 -5 -122 50 66 42 34 -13 -3 79 -36 -18 -17 -32 -44 -42 -21 -9 3 6 3 1 0 4 -4 -3 -3 -8 -8 -10 -11 -11 -12 -8 -20 17 34 24 20 -4 13 19
-2 -32 -32 3 50 27 39 98 -8 -34 -41 55 35 -7 27 51 1 0 -10 -29 -14 -33 -31 -22 1 6 5 4 6 4 3 -1 1 -7 -11 -3 -7 0 1 -3 -4 -11 -14 10 13 24 35 16 -8
-21 -24 -24 3 2 20 49 42 20 56 -18 7 -6 25 27 -17 -12 -17 -29 -27 -24 -9 -24 -13 -2 1 7 5 9 9 6 -3 -1 -9 -4 -7 -1 3 7 4 -8 -14 -4 0 17 32 35 6 -8
-16 -7 -4 -15 13 13 19 -21 38 23 -42 -23 73 62 46 -32 -23 -45 -31 -24 -28 -27 -18 -17 -15 5 14 7 7 3 7 -6 -1 2 -8 -7 0 -3 10 7 12 6 4 5 20 40 38 23 6
-18 1 5 -5 5 8 13 -37 5 -51 36 9 41 25 47 -30 -21 -28 -8 -7 -31 -33 -23 -16 -19 -13 -8 -2 -2 6 -2 1 -3 10 -3 4 -11 -8 7 20 27 18 12 16 14 20 4 -7 -3
-4 47 33 10 20 2 28 -9 -28 29 -7 6 15 89 55 3 17 25 15 -9 -21 -34 -26 -20 -22 -8 -14 3 1 5 5 2 6 5 -1 -1 5 7 8 17 20 18 25 25 19 15 21 24 11
22 57 13 5 9 42 21 26 15 4 50 -4 32 120 103 36 44 51 35 20 -4 -5 -23 -22 -23 -7 -20 12 27 2 -2 3 3 0 1 13 6 26 25 5 2 10 13 29 33 34 28 44 37
35 46 30 17 16 31 20 21 28 47 55 -9 115 200 131 55 44 21 4 -7 -13 -9 -18 -26 -25 -25 -16 9 -3 3 -4 -3 -6 -1 0 12 24 27 29 33 21 39 2 37 48 48 41 35 21
72 39 50 27 60 47 32 91 -9 44 32 98 158 189 204 121 47 9 -13 -38 -27 -14 -21 -37 -31 -33 -20 13 -9 -11 -15 -19 -12 1 7 19 27 21 18 24 15 21 26 24 45 42 39 32 34
51 79 81 115 73 68 43 55 32 -10 5 90 172 162 146 98 8 -46 -52 -45 -25 -10 -42 -29 -39 -33 -16 -18 -7 -17 -19 -14 -12 -1 13 11 23 20 15 11 21 22 16 32 36 41 38 43 17
79 109 151 130 96 28 45 22 7 -27 73 106 201 144 126 59 20 -23 -14 -7 -38 -38 -45 -33 -41 -38 -15 -27 -22 -26 -22 -10 -7 11 13 19 15 10 7 11 9 12 7 14 28 36 38 33 21
157 101 113 87 53 60 40 58 -2 75 150 152 159 131 92 28 22 8 -3 4 2 -18 -15 -30 -35 -37 -20 -34 -34 -18 -14 -12 -2 8 13 10 18 33 23 12 18 5 7 13 23 20 33 21 16
160 113 84 93 57 50 48 72 21 63 161 176 182 155 87 33 21 -7 -27 -5 -5 -33 -9 -36 -35 -39 -26 -40 -38 -28 -13 -7 11 5 6 14 19 29 23 3 9 7 15 10 4 12 28 20 28
173 129 115 122 59 74 68 79 12 27 64 142 140 169 107 29 -7 -17 -19 -2 6 -27 -11 -20 -38 -28 -31 -33 -37 -23 -7 -5 -6 10 22 17 17 25 8 6 13 13 15 23 13 30 28 18 27
165 166 169 126 79 58 62 113 2 10 -11 28 139 184 153 66 33 -15 -14 -14 4 -31 -32 -2 -22 -27 -20 -26 -33 -29 -18 -14 -13 -2 24 34 13 14 0 9 4 3 3 22 18 13 21 26 30
105 115 135 121 122 91 117 145 124 27 35 44 62 144 175 104 40 7 -8 2 12 29 21 12 5 -8 0 3 -23 -20 -9 -23 -21 -9 7 24 20 11 -9 0 -4 -1 -3 16 20 24 12 10 34
38 57 88 123 81 66 51 76 34 75 60 73 111 137 153 152 78 17 19 14 42 64 74 60 48 30 -12 3 20 24 3 -7 -12 -5 -11 9 6 4 -8 -1 -7 0 -8 -3 5 15 18 13 14
57 26 63 131 174 94 46 18 -17 41 30 32 55 99 146 214 195 88 36 81 62 37 77 124 108 70 30 6 30 85 105 65 23 14 -6 13 1 -3 -6 -6 -2 -5 4 -10 -6 9 27 10 19
82 8 60 162 210 147 78 68 46 51 28 8 43 137 176 177 191 173 92 73 80 60 51 114 144 138 49 28 38 46 21 18 -5 10 -15 12 9 1 3 -6 -6 -7 -7 -18 -14 6 1 11 12
41 38 81 134 187 197 145 46 77 58 6 16 11 108 150 106 158 171 134 101 51 26 63 83 133 130 75 52 75 76 41 25 9 -1 -2 -5 4 -3 -3 -3 4 7 -4 -11 -9 0 2 11 4
40 93 156 174 170 154 147 64 114 75 124 70 103 65 125 84 80 94 116 101 57 64 61 137 146 131 105 74 54 91 70 20 28 13 12 -6 4 4 0 -7 -2 0 13 5 -2 -7 -5 -4 20
122 160 219 212 235 165 156 116 56 128 90 95 101 127 109 115 107 134 99 75 51 35 57 121 147 122 126 80 31 39 62 51 28 18 13 -10 -7 6 11 11 5 10 15 6 5 0 6 6 12
101 140 182 200 199 228 211 149 100 113 147 95 65 92 85 86 92 99 133 72 86 111 97 127 164 117 147 100 26 8 37 42 35 4 4 -7 -16 6 4 17 15 9 8 8 8 1 4 -7 5
124 144 124 209 204 210 243 242 152 260 249 245 197 56 70 66 136 164 152 142 125 149 140 143 172 158 143 154 55 14 28 36 45 27 8 4 -15 -16 5 14 18 12 12 5 12 15 4 -2 -7
130 145 176 228 214 267 307 325 314 326 318 320 261 190 62 89 67 123 139 183 140 161 186 179 183 221 187 179 151 48 39 38 31 19 -4 -3 -4 -28 -26 10 17 21 17 12 15 11 3 -4 -6
229 240 226 167 179 193 245 288 288 328 300 301 203 177 76 67 79 105 139 89 149 151 156 183 199 195 210 145 182 112 59 40 26 28 19 -23 -6 -20 -16 6 10 2 8 8 18 15 1 -1 -9
203 247 192 180 197 236 217 225 181 205 231 163 198 108 187 196 205 137 158 180 124 142 167 167 171 177 208 219 208 173 118 100 28 16 35 34 -9 -2 -20 -14 -16 -9 -7 -4 12 15 9 9 -2

GFSSGP_con_3kmhel_069.txt.gz
Helicity
10 5 -7 -9 -13 -13 -5 33 57 64 23 80 27 12 -9 14 14 2 -16 -31 -38 -22 -22 -10 -16 -15 -23 -25 -20 -11 -6 -2 2 8 19 19 13 18 12 14 11 16 23 29 29 17 4 15 7
3 -2 11 -6 1 20 38 75 136 111 52 26 21 0 -4 -22 27 -17 -6 -34 -27 -27 -24 -18 -11 -13 -15 -20 -15 -5 -9 -14 -1 9 24 24 13 30 27 27 30 16 11 23 27 8 4 3 -1
15 18 9 -3 5 39 89 83 121 72 62 128 42 47 27 13 21 13 -50 -25 -29 -24 -15 -18 -10 -5 -12 -12 -7 -3 -3 -4 10 -5 4 20 20 21 32 22 18 18 4 19 20 -3 -13 -21 -1
7 -26 2 2 13 24 96 87 88 45 95 96 41 8 5 30 21 -25 -26 -16 -28 -24 -7 -12 2 6 -7 -6 -3 0 -2 -2 0 -9 -14 -14 -9 -6 -17 -10 1 13 7 2 10 -8 -33 23 11
-14 -37 -35 -29 -19 21 43 111 -5 -7 43 47 36 -45 41 6 -5 -25 -27 -25 -12 -13 -5 -8 -1 6 4 0 0 1 -2 -3 -6 -9 -9 -17 -17 -16 -13 -13 -14 -5 19 21 28 25 7 9 -11
-30 -42 -18 -12 12 10 25 51 54 3 13 -14 -10 12 3 -30 -41 -30 -37 -32 -20 -6 -5 -6 -2 3 1 3 -1 4 5 5 -2 -5 -13 -20 -16 -13 -12 -10 -20 -10 3 17 36 41 16 -2 -1
-14 -8 -4 -21 23 8 2 30 -39 -2 12 -25 7 -4 -24 -38 -49 -46 -39 -40 -18 -15 -8 -7 -6 3 6 1 5 7 12 14 7 -2 -9 -14 -15 -5 -1 -4 0 10 12 25 35 36 20 17 17
10 12 8 0 9 -14 -32 -10 48 -28 -5 37 8 -45 5 -44 -50 -46 -35 -37 -15 -10 -11 -8 0 2 12 5 9 17 14 20 10 0 -3 -12 -9 -4 5 19 22 17 19 27 35 31 28 9 11
15 29 13 22 34 29 1 -64 -30 4 -11 7 29 -20 40 -8 -36 -19 -22 -23 -15 -9 -7 -6 -7 -2 -1 7 11 17 13 6 15 2 -12 4 5 3 10 18 14 28 35 33 34 26 32 16 11
46 36 37 22 28 36 8 -18 -39 -30 12 21 18 24 76 27 2 22 19 11 -2 -6 -3 -5 -14 -2 4 6 7 17 7 9 12 4 -3 13 10 10 29 -1 8 23 37 41 37 32 39 43 27
24 50 39 39 28 16 13 41 17 -3 -18 -3 103 98 85 52 11 19 6 2 0 -9 -8 -5 -7 3 9 3 7 14 12 13 14 3 11 15 12 24 27 34 31 32 43 53 52 37 26 25 29
72 35 46 27 27 12 12 55 47 0 9 5 69 118 140 58 22 7 11 -6 -12 -8 -8 -9 -8 -1 3 9 12 11 0 6 10 15 25 29 24 24 25 25 22 24 40 46 40 36 32 33 39
49 99 75 50 39 49 10 -6 5 -7 14 44 69 87 100 56 0 -31 -21 -19 -16 -11 -9 -7 -10 -8 -4 4 7 8 1 3 8 24 30 35 24 20 17 24 32 32 33 38 26 37 35 27 24
57 75 98 74 46 22 -2 9 -23 4 17 44 90 99 80 46 8 -29 -21 -23 -10 -6 -7 -7 -5 -5 -6 2 2 13 8 5 11 24 33 34 21 14 19 18 26 27 25 25 26 39 40 29 14
117 135 75 69 34 26 17 59 20 65 65 51 54 64 64 11 0 -17 -17 -14 -8 -15 -14 -6 -9 -5 0 1 -8 4 8 8 22 13 30 19 13 11 8 15 19 11 24 18 24 26 23 15 15
121 122 79 77 23 32 1 60 43 89 126 46 55 34 36 15 3 -26 -30 -23 -18 -15 -16 -11 -8 -6 4 -2 -10 -2 1 11 20 14 15 11 11 27 15 12 6 5 19 22 20 16 11 10 21
152 92 78 82 67 45 25 72 19 24 85 98 63 48 33 8 -23 -38 -38 -10 -3 -7 -14 -12 -3 -5 6 -3 -3 1 11 17 10 15 11 7 7 5 12 17 0 1 2 11 14 14 22 16 20
137 145 131 102 64 61 66 67 6 1 9 33 36 18 27 17 3 -30 -37 -27 -21 -4 -9 -5 2 -2 3 6 -1 10 10 11 8 4 8 8 5 6 12 19 6 8 0 14 22 18 22 21 25
169 161 154 139 114 81 79 105 58 8 8 25 13 4 9 14 3 -25 -45 -22 -27 -44 -11 -7 -6 -7 13 7 -5 0 6 5 4 8 5 7 11 9 8 18 5 8 -1 17 20 17 14 10 19
120 141 152 155 113 80 87 112 60 3 61 23 59 36 20 -15 -3 -21 -40 -30 -22 -25 3 9 -8 2 14 26 15 12 18 10 10 5 4 1 -1 3 2 2 1 14 3 3 9 34 20 9 18
66 70 105 142 124 78 53 62 67 21 24 8 14 42 39 33 38 1 -33 -29 -36 -39 -18 29 32 34 25 10 6 11 15 14 9 3 6 -4 -8 -1 4 2 1 4 12 3 8 13 29 15 9
70 44 70 102 108 85 98 64 60 16 17 6 3 47 66 64 20 31 1 -31 -39 -35 27 61 55 51 38 18 15 8 12 20 12 0 -2 -8 -10 -8 -12 3 2 -1 9 7 7 20 23 27 19
80 61 92 123 135 118 62 60 64 52 22 6 -8 -9 119 102 70 52 45 5 -22 -52 -22 55 69 64 54 48 30 13 17 22 28 8 -18 -11 -10 -15 -15 -4 9 6 9 1 2 15 12 17 15
58 103 136 149 170 102 71 80 59 87 144 106 43 6 27 91 128 79 36 7 -10 -32 -33 34 55 93 65 52 66 33 16 15 28 5 -9 -12 -8 -15 -14 -13 -4 -1 -3 7 -4 -2 5 14 14
85 110 181 167 153 102 124 63 95 122 113 138 143 41 64 86 98 118 90 17 -38 -30 -44 17 32 60 70 60 71 70 31 17 27 15 0 -3 -2 -12 -15 -5 3 0 4 9 13 9 6 9 27
73 97 182 198 166 102 127 56 73 126 85 91 103 65 8 21 81 102 97 97 22 -21 -8 16 35 57 56 38 87 70 43 23 17 21 18 8 -5 -16 -16 -11 1 -1 4 9 9 8 9 16 22
114 136 149 175 198 114 131 139 112 248 229 207 186 134 50 1 11 43 109 96 76 29 10 29 38 40 59 66 56 52 34 40 19 16 14 3 3 -2 -8 -20 -10 -12 0 4 6 7 4 10 11
150 153 149 201 197 151 191 219 203 284 294 278 241 225 115 33 18 14 53 47 80 49 50 36 37 59 73 86 72 50 30 23 34 14 18 12 6 5 0 -21 -24 -14 -6 1 13 8 7 5 5
180 180 190 202 242 177 210 235 270 271 231 197 235 244 201 165 75 52 45 40 50 51 27 53 56 47 48 75 92 76 50 16 30 24 17 10 5 12 -2 -8 -21 -23 -9 -1 5 7 14 15 4
215 189 201 163 178 234 233 221 217 202 159 162 196 239 250 236 234 241 152 50 26 32 42 30 41 58 66 81 122 95 104 49 22 38 15 4 8 16 10 -7 0 -12 -22 -15 3 1 6 10 6

GFSSGP_con_3kmhel_075.txt.gz
Helicity
22 38 57 15 -7 4 -7 31 33 62 44 0 39 -22 -3 127 55 -38 -8 -6 6 -16 -18 -15 -26 -4 -5 -1 12 12 14 20 19 25 17 20 16 12 7 11 17 19 20 14 11 11 14 12 -5
55 6 27 8 5 19 40 53 163 121 29 54 20 -7 9 7 13 47 -2 -2 -4 -11 -11 -13 -14 -2 0 5 -2 -5 12 21 27 28 23 25 28 26 18 8 4 9 16 9 1 1 6 2 -9
91 19 7 -11 -8 27 110 117 110 120 22 63 -18 72 64 -6 26 2 31 -10 0 0 0 7 -5 -6 -4 10 4 9 13 19 16 19 29 29 24 22 17 15 6 9 4 -8 -16 -7 -10 6 -12
38 35 25 7 1 29 103 184 97 77 92 94 -11 -7 11 -15 -10 48 -10 -1 0 30 45 11 0 -3 -1 6 4 9 11 7 13 20 13 9 7 7 7 12 4 4 -7 -27 -25 -8 15 -24 -17
30 43 24 4 29 55 113 79 61 39 108 47 18 13 5 -12 17 2 -12 -2 -2 46 14 5 -7 -7 -8 -1 6 11 13 10 19 2 6 9 3 -12 -12 2 15 11 13 -6 7 0 -9 -15 -10
27 86 -14 -11 76 68 96 -15 60 81 96 39 -1 35 -24 -35 9 -14 -10 -4 25 34 22 11 -2 -4 -5 7 14 17 18 22 9 4 12 7 -2 -10 -14 -7 14 21 35 -5 -33 -24 -19 -5 -6
56 32 -9 -7 53 47 52 -15 20 24 3 2 -16 -20 -12 -8 -11 -22 -19 4 -7 68 42 7 9 -1 -1 0 9 18 26 24 8 6 11 7 4 9 7 -3 0 29 7 6 -5 2 10 9 8
57 4 -19 1 28 27 -55 10 17 23 2 4 13 -31 53 22 -17 -26 -17 0 -5 17 12 15 14 8 5 8 2 16 21 14 1 15 24 14 12 19 17 2 18 -2 -8 -4 1 6 7 10 9
81 23 6 10 24 22 21 17 -1 36 -2 28 23 -14 86 18 -15 -21 -10 22 -4 84 11 12 19 25 21 14 8 8 22 20 13 25 55 87 13 16 5 33 7 0 -11 -8 3 9 21 6 18
11 49 38 30 49 5 -11 -24 -3 15 8 -6 23 80 60 12 -9 -8 -8 -1 8 29 22 29 33 27 5 13 5 37 70 26 14 -7 86 71 60 4 -6 -8 8 10 13 20 23 35 74 91 45
9 31 15 34 29 29 -17 10 -10 24 22 8 5 81 38 19 -11 -6 -3 1 3 3 0 57 61 30 9 11 15 30 7 -2 -9 28 47 -4 19 5 11 5 21 42 44 39 44 54 75 142 20
2 -36 -14 15 3 14 10 -8 -9 8 43 70 13 43 21 21 2 -3 -3 -4 30 23 33 45 9 85 19 -7 11 29 2 32 13 -10 27 16 7 25 34 -20 15 22 21 9 25 7 13 24 65
26 -9 -5 -6 -11 21 23 -11 12 -8 -35 6 2 24 3 2 -6 -8 -8 9 40 36 15 49 24 38 82 41 1 7 -5 11 -5 15 45 34 20 21 28 35 30 9 -2 15 5 27 -1 25 9
20 17 9 -7 19 11 -8 25 34 14 3 -17 -4 8 2 6 -6 -7 -2 5 41 28 17 51 27 6 42 33 26 26 68 13 -19 5 0 43 -5 23 11 38 11 23 30 43 26 38 23 4 3
48 10 -2 -8 12 27 -13 24 10 36 13 7 4 -3 0 -3 -4 -8 8 11 26 24 8 45 18 18 -3 -4 -9 18 -8 34 65 1 6 7 31 10 19 8 16 5 15 7 21 4 30 -3 -5
25 -3 -10 49 15 46 -6 23 46 51 40 11 14 -4 -4 -12 -2 2 3 20 33 10 16 31 -4 20 2 4 2 22 18 36 4 12 15 -4 7 7 49 10 11 -21 34 2 41 10 29 -5 10
31 7 -23 81 -13 56 29 37 71 48 24 41 -12 25 4 -17 -21 4 18 14 48 18 26 21 29 15 1 13 4 -24 -10 18 13 35 43 13 2 0 36 3 13 41 42 26 1 11 17 8 56
26 -13 -9 43 31 0 75 64 39 38 48 26 13 -15 20 -14 -14 13 17 9 50 40 27 21 18 31 5 8 -5 -8 -35 21 21 18 22 -3 32 0 23 16 10 33 17 53 46 47 28 86 -9
0 4 24 68 40 -35 50 46 36 23 21 46 56 16 -1 -3 -18 26 10 34 68 56 35 29 28 36 4 -5 -12 -20 -25 13 15 13 1 -3 20 9 13 -6 5 85 58 68 26 15 35 19 41
37 21 13 91 31 20 61 28 42 -15 44 20 34 -34 -16 -12 18 -1 -6 1 42 77 40 50 35 32 -25 -23 1 6 11 14 26 20 13 6 2 0 14 -4 4 22 33 9 30 13 46 -9 35
22 10 20 96 47 -2 41 13 78 11 -1 128 59 2 -34 3 58 48 37 41 17 89 57 56 28 24 -23 19 22 30 53 38 6 22 5 10 16 15 17 19 24 8 22 17 25 40 27 44 21
8 22 28 69 30 52 5 7 51 103 39 99 25 -17 3 34 40 40 47 23 -14 94 41 32 15 18 4 6 -19 4 15 22 0 15 23 28 11 8 15 9 -4 6 20 73 9 44 78 36 -10
20 32 58 61 19 -3 41 35 75 82 80 41 -20 -17 52 88 47 44 80 14 20 90 44 38 15 10 8 -17 43 -14 18 48 0 64 -28 37 13 -3 27 18 4 4 14 27 16 36 55 72 65
38 76 32 22 5 50 46 -4 -34 70 197 81 29 8 10 5 108 73 38 32 18 39 40 45 30 12 -1 -11 -15 15 38 65 44 72 12 1 19 23 0 24 -14 11 48 43 7 20 37 97 72
39 44 94 79 66 46 33 18 112 110 153 149 23 11 6 114 44 105 -16 57 26 -2 39 55 31 17 4 -4 -5 -14 21 38 71 70 15 -4 7 17 63 18 33 5 8 5 7 -10 42 25 48
37 4 39 90 44 27 22 69 155 117 170 186 75 22 24 52 37 55 61 -29 62 45 32 40 46 27 11 5 -1 7 6 13 19 11 31 36 -7 42 122 38 29 17 28 9 2 -4 7 -22 3
39 55 12 31 21 22 128 189 130 123 153 143 238 175 27 0 134 74 24 68 109 30 47 43 73 34 15 5 9 6 14 8 13 18 15 50 22 50 45 33 20 23 20 8 -11 -7 2 36 -1
71 48 36 50 75 53 132 143 119 141 205 152 225 347 362 213 319 263 296 112 125 76 43 51 46 46 28 14 11 9 5 10 13 27 24 31 37 24 79 39 17 17 20 -9 -17 3 1 -2 -3
75 99 33 51 19 43 87 247 270 183 175 142 189 247 247 349 385 336 347 274 233 248 74 85 41 42 34 36 27 19 12 14 19 26 26 22 26 49 11 33 14 9 12 27 -1 -20 9 -16 0
182 48 31 72 43 45 73 245 202 226 194 135 167 194 200 199 262 385 378 431 188 273 280 157 45 37 46 54 46 30 25 19 25 27 32 32 25 23 22 23 16 12 2 1 16 6 -2 -11 0

GFSSGP_con_3kmhel_078.txt.gz
Helicity
24 39 89 86 4 25 2 36 5 141 18 12 46 40 34 127 -21 16 -9 -11 -4 -19 -18 -9 -15 -14 -13 -11 -2 8 13 14 15 18 13 11 8 6 6 16 14 14 9 12 11 9 6 -1 -17
65 74 32 -5 8 9 21 35 57 203 220 59 121 130 95 13 68 102 -7 -21 -8 -5 -10 -11 -14 -10 -7 4 9 10 14 15 19 21 18 21 20 12 8 6 9 -2 -0 3 2 2 -0 -3 -26
37 46 11 -12 19 43 108 144 54 130 188 16 16 65 65 39 48 51 -22 2 -6 -8 -8 -7 -7 -4 -0 1 5 11 15 18 23 30 28 16 13 14 5 -0 3 -3 -3 -13 -22 1 -3 -11 -37
72 34 20 19 21 24 103 129 -30 166 121 84 13 35 32 -0 101 36 2 31 -6 14 15 15 4 -1 9 4 8 18 17 21 29 21 12 9 4 9 5 4 -2 -10 -21 -22 -15 -1 -19 -19 -26
48 43 29 -0 40 86 152 148 76 111 66 96 19 25 48 82 78 -27 -3 66 54 55 17 13 2 8 8 8 10 14 14 18 9 8 9 2 -5 -8 -3 1 -12 -23 -12 -4 2 6 -11 -6 -3
57 66 -17 10 76 100 78 17 100 101 57 -3 43 85 36 73 -13 -2 95 113 63 21 38 13 9 12 9 10 14 17 16 11 11 14 13 4 -9 -9 -10 -7 -2 -3 -16 -5 -0 6 7 3 -5
152 26 -12 15 80 61 -6 48 89 41 -6 8 6 58 10 18 -26 13 123 36 -2 58 43 9 9 11 20 14 19 26 25 10 17 23 24 23 6 -6 -5 7 1 -15 -8 -2 3 13 13 7 3
26 33 -20 -18 58 63 -29 -8 77 69 -18 -0 23 47 60 2 -30 49 43 30 95 89 -28 18 14 17 16 18 26 25 20 24 23 16 18 4 19 11 7 18 3 -7 -3 5 11 14 12 -7 -34
18 10 18 -32 77 30 36 19 14 40 46 60 18 53 53 -35 -28 65 63 186 112 20 -23 2 74 77 23 16 14 18 18 31 26 24 17 22 -6 16 29 14 7 5 8 11 13 13 -4 -6 11
27 65 26 25 92 105 17 -15 -9 4 63 15 41 61 24 -32 -25 47 43 74 3 9 27 127 48 -22 -4 5 -2 14 7 39 63 32 16 15 37 11 14 18 21 33 32 29 40 41 49 46 40
21 18 -30 16 58 46 20 -8 5 90 -18 21 119 87 13 -13 -34 7 21 94 21 10 147 125 71 37 -49 30 -14 -5 -51 -37 13 40 61 21 25 19 -0 -14 7 21 34 63 51 78 34 134 -3
21 -42 -15 32 57 36 24 -0 6 17 49 38 106 72 7 -3 -38 8 3 24 4 112 83 63 96 18 -12 33 23 7 23 21 -5 23 35 9 29 37 28 -0 21 44 30 23 35 72 79 93 13
50 57 12 20 92 45 -2 14 35 37 76 21 76 20 7 -8 -31 -7 5 48 70 52 83 101 16 -25 42 39 18 32 1 8 18 -4 13 21 5 16 -23 58 3 19 32 -0 13 18 58 22 34
33 46 -9 -22 58 42 35 98 72 17 12 17 79 13 -11 -11 -9 -34 18 46 101 46 112 130 75 34 63 -12 46 -33 -35 26 -2 2 10 57 2 37 -6 35 44 -21 6 18 20 44 3 35 16
-5 27 -24 -8 49 50 112 61 22 10 -16 16 56 -0 -13 -19 27 -31 -2 73 126 2 100 57 21 33 36 -12 -2 -20 43 -9 37 16 52 65 83 14 17 33 31 10 20 1 19 39 21 12 18
8 6 -17 1 29 78 75 28 98 27 31 11 55 -2 2 -27 10 41 -20 65 125 22 67 22 35 -0 4 -25 -15 -1 16 -12 -4 10 30 -4 21 3 -18 35 -6 -9 19 -25 15 40 -7 58 11
24 -7 -38 77 40 104 66 61 21 9 21 24 48 38 48 -20 -5 73 27 75 104 71 51 -28 86 30 17 -18 -20 7 -44 -17 7 -17 60 39 19 3 5 14 12 13 35 -21 20 66 25 35 21
-3 -48 37 106 -31 26 188 170 42 20 29 72 82 44 86 -0 52 -19 23 74 97 100 50 -7 52 92 24 -21 -13 -15 10 29 4 51 44 24 34 5 28 51 4 -6 41 -29 16 16 23 52 62
-36 -5 21 91 60 -9 108 66 -68 52 74 108 83 76 102 47 17 -45 43 97 115 126 54 24 84 85 50 -15 -25 -28 -1 4 12 21 47 57 12 15 16 10 -9 14 4 -1 18 33 40 36 45
67 38 7 111 74 231 131 43 37 12 61 79 115 136 54 80 93 -8 65 100 47 169 103 53 76 63 16 -25 -38 18 -0 -24 28 36 6 36 14 5 25 26 15 26 -20 -28 24 21 52 68 16
29 32 36 121 63 32 -0 73 -35 22 71 49 49 77 60 5 66 78 -6 206 91 121 126 101 72 60 -33 -23 -15 15 106 69 20 -1 -7 45 16 9 -0 5 21 -7 14 13 19 26 64 52 26
24 35 53 27 -23 46 -10 40 123 130 131 171 44 75 14 -28 -1 -26 105 76 72 100 78 129 92 49 -47 19 -46 -37 -11 30 5 -9 20 68 26 3 7 10 -26 28 -5 28 16 8 43 55 85
18 4 59 24 26 2 12 33 104 213 231 191 59 57 41 35 53 -18 131 96 115 44 104 170 74 29 -6 -29 35 -15 56 27 40 57 46 14 12 13 7 -3 -40 -3 37 -7 26 53 43 65 46
32 79 29 47 27 47 14 13 188 307 191 -4 43 32 38 8 111 46 51 122 60 18 127 142 61 31 24 -50 31 18 52 48 -12 29 2 -8 11 11 1 16 -16 6 -0 5 34 10 45 59 85
27 32 92 132 101 47 -1 5 101 193 230 125 -3 129 138 -66 20 104 90 159 -1 123 94 156 70 35 28 3 -21 9 5 52 47 6 -9 -7 21 11 60 49 27 4 -5 8 31 14 50 34 51
21 19 59 75 95 17 13 46 133 -63 -254 -97 22 18 27 139 62 191 70 113 81 39 56 186 104 47 23 30 1 -26 13 39 37 -2 -4 44 15 -27 12 30 43 11 23 19 3 6 -6 4 9
14 44 28 -6 -19 -15 137 182 203 185 235 265 261 410 285 327 408 172 -68 139 65 29 16 189 125 73 52 28 32 15 18 2 41 -13 -12 53 7 12 26 -2 29 12 19 17 23 9 1 -7 2
138 66 52 29 49 57 123 225 211 183 193 250 354 398 402 471 354 254 276 331 148 -41 -3 188 185 92 61 49 52 37 19 -23 21 53 27 61 56 43 77 8 3 1 35 37 25 10 -1 30 -16
87 78 130 62 13 24 163 400 207 301 218 281 325 264 271 356 499 312 244 247 203 301 230 177 155 139 61 54 63 41 34 22 -4 34 36 17 57 24 105 39 -38 9 15 27 25 -11 1 9 12
67 33 73 72 24 42 168 300 76 239 168 168 243 165 183 238 320 478 260 255 327 456 316 170 250 271 61 56 63 53 62 38 45 25 21 29 23 55 114 56 15 42 27 35 28 13 11 21 14

GFSSGP_con_3kmhel_081.txt.gz
Helicity
7 19 12 -11 2 9 -7 -33 -9 -81 -13 115 -43 93 23 3 23 4 -40 -0 -1 -9 -15 -6 -15 -14 -6 2 4 8 18 18 18 7 11 8 4 8 22 23 14 2 4 2 2 -7 -15 -15 -17
15 75 70 18 1 66 -4 -7 35 -15 3 190 122 143 207 99 169 71 21 -16 -0 -4 -8 -14 -13 -6 -2 -2 7 8 9 15 18 15 20 19 7 8 14 12 2 -4 -7 -13 -5 -9 -19 -11 -12
18 26 -13 9 20 116 1 -28 59 122 64 47 5 10 44 68 114 -7 12 6 -16 -9 -9 -10 -3 1 2 4 5 4 9 16 22 18 12 14 12 11 5 4 1 -11 -18 -14 -19 -15 -12 -12 -4
35 19 7 9 55 41 -9 16 87 141 197 195 58 41 -36 24 10 1 18 -23 52 6 -10 -8 1 14 6 6 11 12 13 15 9 8 5 -0 3 6 7 -4 -6 -13 -9 -0 16 5 -5 -11 1
77 14 21 14 72 31 57 28 118 96 69 87 136 133 46 10 -45 -50 -10 67 60 11 -2 -8 2 10 12 15 17 16 18 16 13 14 5 3 -2 1 2 7 1 -2 5 6 11 -13 -13 2 33
42 24 -1 -14 82 82 91 129 210 90 -11 76 232 118 -14 12 -9 66 153 94 65 46 18 11 7 13 18 20 19 15 16 15 6 5 5 6 -4 3 9 10 12 10 12 15 12 -2 6 18 24
81 25 34 24 102 53 15 30 181 4 -4 100 112 140 -35 -29 93 151 143 86 55 53 36 5 -3 12 19 17 22 19 14 15 19 21 22 20 9 7 -0 4 -1 5 1 15 16 8 3 11 14
68 59 -12 53 73 -17 -17 102 50 -24 18 57 115 61 28 55 107 79 53 39 16 5 5 -5 1 -4 -5 4 22 16 12 8 11 13 23 27 21 11 -0 -0 4 11 14 18 23 18 -0 -4 7
22 40 -3 19 57 12 -12 136 28 132 7 -6 27 43 -33 37 72 82 63 44 20 -24 -27 -25 -31 -32 -5 -2 4 5 17 17 22 20 11 25 36 31 5 9 8 15 21 31 22 -0 -3 -3 19
12 45 8 25 131 44 -20 2 27 68 28 -23 45 13 -65 75 101 83 42 19 45 -6 -13 -13 -10 -14 -21 -30 -33 -12 -12 12 52 10 -3 43 71 44 31 26 11 12 28 32 27 13 33 61 50
-16 22 -10 7 98 72 17 -7 43 -24 -16 78 103 25 -61 163 163 97 16 9 11 10 68 39 -27 -38 -31 -18 -75 -45 -38 -6 20 34 56 51 46 19 8 16 21 19 2 13 5 37 50 88 95
19 108 57 70 26 24 38 90 63 15 57 52 130 -16 -103 90 89 -3 2 15 89 50 73 15 -74 -19 2 11 -1 -42 -47 -11 12 25 28 25 53 3 13 24 40 31 33 9 21 62 126 139 101
16 -22 15 56 60 41 16 91 47 14 75 94 115 -30 -85 -66 22 51 55 109 168 140 89 17 11 15 -26 -12 14 26 2 -12 21 -1 8 46 6 19 8 13 26 39 50 40 19 59 74 36 23
22 24 1 28 31 68 99 105 97 -27 19 49 68 -39 -61 -41 -20 103 136 137 173 148 73 -15 23 54 20 15 19 26 -7 -18 -5 -1 -0 14 -25 1 7 3 37 37 43 42 44 68 49 26 40
48 114 15 24 114 57 218 44 39 -0 -36 100 -3 -63 -52 -38 -28 97 145 128 132 115 25 14 57 89 46 -0 -8 17 7 13 11 1 6 39 33 11 5 12 25 11 20 22 15 11 41 44 30
47 63 32 25 118 170 91 48 33 26 73 96 9 -60 -40 -36 61 66 195 184 113 116 45 21 68 116 28 -6 51 -1 -27 -6 6 -2 -24 2 8 -4 4 8 18 21 20 29 17 -3 21 51 39
64 30 -1 21 181 177 101 86 220 -29 10 54 19 -47 -40 40 43 95 136 169 216 134 50 -5 11 51 15 -14 39 -9 4 -4 14 4 7 7 -4 10 5 21 5 -8 6 -1 25 37 49 32 5
33 -38 -38 133 18 128 424 205 111 53 40 29 17 -34 60 90 116 150 163 156 210 171 131 69 3 -9 9 -6 -13 7 14 27 1 -16 18 11 -13 -30 -9 -1 -7 24 -9 -2 20 22 44 26 55
21 33 20 51 151 279 284 47 109 -47 21 97 58 88 150 80 142 104 166 212 158 162 101 136 78 53 -3 -17 -15 -30 -18 -22 -2 11 27 4 2 8 10 3 -26 10 9 17 -5 13 38 67 42
59 16 5 149 102 135 101 80 -45 106 38 131 158 188 150 187 67 138 112 211 164 173 89 186 143 104 17 -18 -39 -10 -28 2 -1 5 22 21 9 21 -5 -25 -6 -26 -5 10 21 28 35 52 53
87 25 35 186 222 273 91 34 40 -79 -18 154 172 195 205 203 95 119 135 136 174 165 103 176 132 85 10 -16 29 59 60 76 16 15 18 19 9 8 4 9 3 -4 5 21 37 21 27 58 47
66 83 43 236 197 119 104 6 17 51 83 94 144 167 181 229 125 114 150 207 235 175 124 133 117 57 -17 44 43 5 -5 27 24 -14 -17 5 6 5 15 7 33 20 12 4 43 35 36 50 69
103 38 29 146 78 60 78 78 48 160 95 88 65 83 126 134 143 102 225 280 244 218 141 121 148 62 -25 -21 92 -4 -6 61 38 40 7 9 -3 5 -5 -6 2 18 32 17 56 48 37 54 68
58 54 14 77 36 126 29 121 156 201 153 133 185 67 83 91 31 93 124 195 218 187 163 142 200 85 -19 -61 17 38 51 22 45 74 24 4 -26 -7 4 -0 11 -26 16 37 21 44 4 70 66
45 55 123 119 120 80 -17 46 101 215 245 259 184 205 9 19 96 67 151 137 209 122 144 138 205 104 10 -38 -12 28 50 -5 6 27 28 -22 -25 -34 -0 24 28 1 -12 -0 9 2 28 60 40
74 87 155 173 127 104 27 60 87 98 255 96 11 69 7 20 114 71 155 235 224 156 241 180 157 106 61 32 -0 -30 44 24 44 -24 22 -7 -3 -3 -10 12 20 12 19 20 17 -1 10 23 32
115 175 18 4 37 75 86 216 386 172 259 327 278 223 207 126 278 130 195 274 113 210 233 184 139 96 76 57 28 -5 -23 39 4 -35 -6 -17 9 58 42 39 2 -3 -0 -0 11 -0 16 -4 13
80 61 98 63 -59 17 76 175 120 187 279 216 287 310 335 407 442 308 157 175 242 309 196 212 153 126 77 70 32 18 1 44 13 58 -7 -7 42 60 86 28 -9 -20 1 -3 10 -0 2 1 9
84 77 76 26 29 22 98 170 295 377 302 214 279 285 311 378 455 443 322 101 342 263 297 269 211 95 53 69 50 42 54 28 21 41 49 68 52 57 28 2 -13 -33 -2 4 25 13 -7 7 9
108 66 35 45 96 14 98 152 177 170 214 129 203 254 239 248 329 362 434 346 274 260 206 282 240 283 166 119 51 54 53 55 29 22 -30 66 67 27 -3 -8 9 -18 -13 -9 39 24 6 10 19

GFSSGP_con_3kmhel_084.txt.gz
Helicity
7 3 -19 -16 3 11 -36 -7 -46 -58 -64 -1 6 36 19 38 15 14 -39 -24 -3 -7 -9 -5 -11 -11 3 9 15 16 16 19 21 18 11 8 17 15 9 6 -2 -7 -9 -6 -2 8 6 9 15
-4 5 16 -9 51 57 -12 -31 2 98 45 118 16 114 126 10 37 18 -16 -22 2 -3 -14 -7 -1 6 6 5 10 11 18 21 27 26 22 15 12 13 2 -5 -15 -17 -18 -13 1 9 6 7 10
8 8 22 13 175 1 -30 -58 60 88 6 6 63 172 49 9 107 23 -26 -11 12 -9 -13 -5 6 2 1 4 8 9 11 20 19 22 17 13 11 7 -5 -8 -12 -23 -21 -8 0 0 12 16 14
-8 0 -20 65 146 -26 -61 -16 16 -21 115 88 105 166 109 30 94 -14 -11 18 12 -12 -13 -2 7 6 5 8 8 6 11 5 9 4 11 7 11 0 -5 -11 -17 -10 10 14 5 13 20 27 20
12 2 13 5 36 0 3 53 37 71 67 13 83 15 41 2 30 27 10 8 21 -9 -5 -3 11 8 10 6 5 2 0 1 1 1 3 6 11 11 9 -8 -9 4 18 19 13 17 19 21 12
23 11 -13 3 29 47 59 62 125 133 75 83 146 88 101 0 23 9 10 -8 4 9 -2 3 15 12 10 8 3 0 2 7 3 2 8 2 12 18 17 8 9 17 22 12 2 6 15 17 20
50 71 37 45 41 40 28 115 87 56 103 12 56 128 -40 -35 -20 -19 6 10 6 18 14 0 -8 9 14 6 5 2 10 20 18 11 5 9 19 15 22 24 17 20 15 3 -2 6 15 3 23
65 33 18 38 37 16 34 116 95 6 -4 33 154 77 5 -33 30 6 26 35 10 -4 10 -8 -13 -10 -11 0 7 7 15 31 23 16 23 8 5 21 18 23 16 8 7 -7 -15 -9 7 20 23
10 24 10 29 20 -38 94 138 140 170 55 70 25 137 30 95 70 31 26 -2 -10 -21 -24 -25 -25 -25 -13 -6 -2 7 14 27 19 17 24 4 11 46 33 33 20 17 12 -4 -20 -18 -1 26 79
12 -9 25 26 -25 2 -24 -35 7 61 19 -5 132 65 129 91 83 67 20 -26 -36 -48 -53 -57 -54 -33 -27 -14 -31 -14 -3 13 17 4 10 46 28 38 39 35 33 33 18 2 3 17 38 64 73
2 -36 26 -36 37 61 50 44 3 100 -15 100 242 143 105 109 61 37 -34 -8 -7 -45 -46 -70 -61 -40 -45 -47 -50 -37 -19 8 5 20 35 64 25 38 37 42 48 48 25 2 11 24 35 65 105
7 33 26 -25 86 103 46 57 12 39 29 75 285 134 108 51 56 26 -11 2 10 -40 -62 -67 -46 -27 -47 -52 -77 -45 -25 4 19 31 23 14 1 4 23 42 32 38 36 14 43 101 99 76 75
28 -11 21 26 50 74 95 62 23 0 8 -10 231 74 35 65 16 49 46 36 31 -19 -48 -57 -41 -4 -10 -25 -37 -35 -16 4 26 22 9 -6 3 6 12 38 49 43 49 37 47 84 77 46 40
18 28 49 17 15 58 118 73 51 5 6 -5 121 96 77 10 -6 36 86 94 48 10 -32 -38 -30 -11 3 -18 -21 -25 4 5 12 -2 -5 -3 -4 14 17 31 41 39 34 34 64 47 46 29 9
50 38 30 -2 -9 33 176 54 39 22 22 25 10 -5 49 43 69 153 185 132 92 42 24 -14 14 10 -1 -10 -16 -23 -1 18 21 20 12 30 15 28 21 31 39 39 31 38 44 64 36 53 33
22 35 37 -4 41 38 16 63 100 80 14 7 -4 -64 -53 115 111 112 186 135 92 60 29 46 77 47 30 18 21 -18 -6 6 2 8 13 19 11 15 19 -1 23 30 37 26 35 23 36 37 34
47 18 27 11 77 32 4 81 -5 42 -13 24 -33 -77 -90 86 204 132 151 124 123 63 93 69 76 78 45 33 -8 26 37 10 -3 10 1 10 21 6 0 10 26 25 35 26 34 32 31 24 34
80 76 40 41 15 105 118 100 21 18 60 40 -4 -46 -61 69 221 212 147 135 102 59 77 86 72 48 66 21 7 -16 2 4 10 8 7 -4 19 7 -9 -1 19 4 7 19 42 36 36 36 90
76 63 38 81 159 197 84 52 -32 -53 96 1 -20 -15 -16 112 106 173 160 152 99 86 75 98 84 11 89 67 10 -29 -3 21 21 -4 -16 -10 12 -6 -15 20 21 29 -7 6 46 45 53 26 81
100 68 93 87 91 147 103 70 -22 45 8 -31 2 21 95 205 158 243 224 154 139 118 103 128 107 18 2 23 -4 -20 25 30 26 7 -6 -12 5 -12 -10 -3 7 36 6 -1 25 26 31 32 48
87 139 110 79 172 162 71 49 47 -22 32 -10 -93 72 140 299 268 180 229 200 177 198 189 145 116 38 4 42 55 79 60 64 12 1 -5 -4 3 -23 -9 -5 -11 -18 24 4 25 11 12 38 48
88 135 89 82 136 123 90 12 68 114 40 22 -20 131 212 257 305 229 217 178 157 158 176 167 134 79 43 60 16 2 -16 3 17 -7 -3 -1 -8 -2 -9 -8 -8 -3 -10 -8 25 23 34 16 29
63 111 69 66 149 166 120 71 19 80 18 94 120 193 248 202 295 235 227 210 159 160 173 169 147 108 74 81 27 -1 32 45 25 4 -16 -9 -21 -12 2 13 -3 -10 12 2 22 31 47 42 31
122 54 58 161 119 145 36 69 55 89 119 150 164 181 221 171 194 202 200 195 199 157 180 169 120 103 98 102 91 26 -2 36 33 35 -7 -20 -24 -15 -16 -5 -6 -19 -10 16 16 30 46 49 46
64 85 171 173 148 83 81 62 65 91 185 209 118 -16 180 194 277 198 243 252 198 196 206 173 131 122 114 119 99 58 24 50 15 -6 -1 -19 -20 -19 -24 15 2 -20 -24 0 17 13 28 55 64
65 68 133 199 143 53 41 70 89 143 158 183 122 121 -16 105 176 173 240 272 266 251 214 204 167 130 123 101 96 71 55 42 17 3 29 -7 -18 -19 -28 11 22 -11 -11 5 8 5 2 21 41
94 144 45 93 113 63 61 113 212 234 410 380 242 234 191 242 185 244 261 311 241 221 194 224 181 121 105 84 90 72 49 37 13 7 33 -21 -23 -2 -10 15 28 10 -5 -9 12 3 5 7 22
41 78 114 130 177 170 118 203 100 175 316 341 323 241 275 357 325 319 311 319 271 248 255 197 112 126 91 79 95 77 64 42 7 48 18 6 -5 14 23 55 48 25 0 -12 -1 2 4 10 -2
75 116 100 70 89 120 142 169 109 88 145 160 147 162 197 219 239 337 362 222 324 272 355 362 132 136 109 90 74 50 48 51 12 9 7 -11 0 13 37 56 29 26 -9 -10 -6 12 12 6 9
83 71 40 125 100 67 86 143 133 139 135 99 107 129 155 179 199 224 255 328 322 174 336 360 195 210 182 114 86 57 35 52 48 17 -2 29 48 29 48 24 24 -17 -9 -10 2 10 3 10 10

GFSSGP_con_3kmhel_087.txt.gz
Helicity
10 -12 -28 -26 8 -13 25 -25 31 -14 -35 -38 -34 21 -20 11 13 16 -3 -15 -11 -16 -9 -15 -15 5 15 21 15 14 13 13 15 13 10 8 6 10 3 -2 -3 6 7 15 25 16 4 3 12
10 -5 -3 -10 26 6 -18 -14 -53 -27 -31 -22 -13 15 35 -14 -7 5 36 -29 -2 -3 -8 -15 -7 6 12 14 17 15 14 10 12 10 8 4 3 3 -4 -6 -9 -0 5 8 11 7 -4 1 -7
-1 -14 -9 26 185 75 -0 -54 19 101 6 78 -4 54 35 2 -14 51 -16 -8 5 -5 -4 1 7 10 4 9 10 20 19 16 7 5 -3 -4 -7 -15 -15 -17 -17 -9 2 6 10 5 6 21 28
-6 -8 -5 84 31 55 -85 -26 54 47 -28 23 32 13 3 -25 41 9 -11 4 1 -0 -1 12 12 8 5 13 20 17 10 4 -1 -2 -6 -0 -0 -12 -10 -23 -13 2 5 10 13 15 17 35 34
-7 -4 19 39 -69 -61 10 40 -52 9 -16 20 19 57 76 60 -0 18 15 -3 13 -5 2 5 9 9 9 15 16 14 13 6 -2 2 -1 7 -2 -3 -16 -9 11 17 16 13 17 18 15 7 44
2 -3 -0 -8 -9 -1 33 35 7 -10 20 74 131 211 149 -32 32 -16 2 3 -5 -1 -2 2 10 7 8 11 12 14 12 6 -3 -1 -10 -5 -0 1 -2 7 15 17 9 13 14 19 6 12 44
11 -5 13 17 3 125 19 36 58 43 67 33 127 235 42 -26 -33 -27 -2 -1 -7 -8 -2 -4 -3 9 17 9 9 15 11 2 -12 -8 -9 -7 -5 2 5 11 10 10 -1 10 12 7 24 41 50
11 -3 7 18 62 67 9 95 -24 49 67 34 127 168 59 -46 -45 -36 -0 -5 -20 -20 -11 -6 -3 1 8 7 13 17 10 6 -13 -1 -15 -13 -3 19 14 23 11 9 -6 -3 11 16 22 24 28
-8 18 14 -7 31 40 18 50 45 63 5 16 46 -12 7 -6 -12 -4 16 -6 -30 -17 -16 -10 -6 1 -1 5 9 6 20 14 1 -2 -15 -17 59 63 39 27 10 5 2 -10 -2 13 40 37 35
-16 21 21 -4 -25 62 -5 59 80 -10 -1 12 101 76 35 11 -6 4 -4 7 -12 -23 -25 -13 -11 -7 -8 -7 -10 3 11 32 29 12 21 32 47 57 47 31 13 15 3 -5 9 43 56 68 75
4 32 42 -3 28 45 39 110 129 33 -7 104 171 51 -0 -6 -21 -15 -26 -21 -26 -35 -35 -25 -21 -19 -19 -31 -13 -2 2 14 22 20 33 45 36 44 54 58 47 30 5 23 30 50 71 86 76
88 -2 17 -21 86 53 27 27 37 10 44 130 155 72 14 8 3 12 -30 -55 -58 -41 -49 -29 -25 -28 -28 -29 -23 -16 12 -2 23 54 45 19 15 25 36 47 37 24 15 13 31 44 52 87 90
46 -6 1 10 34 29 40 27 26 9 13 180 109 51 6 14 4 13 -18 -60 -53 -49 -73 -29 -12 -15 -26 -30 -15 -6 8 13 47 39 40 11 14 8 31 38 45 27 31 25 36 65 62 54 44
-1 34 23 60 -12 14 22 19 50 -15 73 158 112 44 24 30 37 14 2 -33 -49 -52 -82 -47 -16 -2 -13 -14 -6 1 15 16 24 14 5 7 17 30 29 27 37 37 39 46 60 62 52 42 33
27 75 86 -4 -17 -22 52 54 23 80 94 126 68 32 18 9 59 97 22 6 -27 -34 -27 -35 -10 -4 -3 9 14 4 6 13 21 17 -8 9 31 26 25 40 22 35 41 36 47 44 39 67 56
130 122 98 22 2 16 31 32 20 80 86 105 64 15 47 7 48 53 34 48 -9 17 28 -50 -16 -12 -4 -1 2 2 -8 11 26 15 13 15 24 25 44 45 35 38 44 38 30 44 27 37 56
159 81 79 24 13 16 9 2 -45 1 -43 117 75 31 5 32 31 62 78 67 55 57 42 1 -31 12 15 15 -6 -10 6 19 29 26 12 16 12 12 10 17 32 21 30 34 35 43 20 17 38
75 82 43 41 5 9 25 -26 4 -91 -10 25 49 34 16 105 130 113 111 92 63 61 68 35 69 58 35 32 -4 3 31 44 14 15 21 14 -6 1 16 11 15 18 35 51 47 36 38 39 46
139 176 182 85 16 122 11 40 68 -23 12 -47 -11 40 56 161 100 146 143 122 78 72 69 94 127 78 80 82 59 43 8 3 17 15 5 8 -7 -6 18 2 -4 20 23 33 32 28 14 66 70
81 137 135 108 125 72 3 38 58 -29 -18 -2 -31 3 121 75 116 124 121 110 120 82 80 86 103 94 65 66 29 44 19 13 8 3 9 -5 5 -4 9 30 -2 1 15 5 18 31 25 27 65
95 104 112 69 66 58 79 26 -28 3 3 24 17 -9 118 169 183 131 169 139 106 108 85 74 77 84 64 67 52 59 42 25 12 13 6 2 -6 3 12 8 20 21 -9 -4 9 26 35 23 28
76 89 95 102 124 100 31 61 52 155 -4 -40 -47 -33 95 165 199 202 187 145 121 84 39 51 74 77 47 78 52 -2 1 9 6 -3 3 2 -10 -2 -0 -12 -9 -16 34 30 21 17 30 25 9
55 108 86 123 136 126 99 86 25 169 36 -18 -7 17 119 229 226 280 271 191 96 74 81 69 88 96 64 54 58 26 22 9 34 -3 -3 -14 -12 -6 -0 -7 9 -14 -6 11 25 21 24 30 16
99 103 123 120 204 182 125 98 55 75 48 6 6 129 158 202 262 285 225 240 144 91 86 105 107 92 76 78 62 49 10 17 25 25 -1 -9 -18 -11 -8 -11 -3 -4 12 14 4 34 20 30 29
135 156 203 237 196 121 83 113 64 78 35 147 120 127 174 264 291 328 327 334 132 140 105 123 130 103 94 123 112 83 24 -1 6 17 3 -10 -10 -28 7 -0 -14 -1 12 13 26 18 35 31 38
108 170 195 216 187 138 69 80 42 74 145 168 204 228 176 249 198 224 260 270 209 102 118 155 136 107 112 138 122 90 63 53 20 23 24 -12 -2 -25 -13 7 9 -6 -10 3 23 43 35 30 40
127 192 94 152 169 145 127 132 37 67 276 335 278 264 263 252 239 186 247 176 205 121 115 139 150 125 133 133 112 81 81 61 25 15 34 32 2 -8 -2 10 23 10 -4 -6 1 23 32 22 30
87 69 207 206 218 189 189 121 81 80 165 248 248 237 240 211 221 289 283 249 241 251 173 146 174 135 109 118 80 75 79 60 43 51 26 12 12 -10 6 5 11 16 17 -2 5 4 19 14 15
161 160 150 114 160 176 150 132 84 46 85 112 161 171 207 219 194 344 388 346 268 310 264 146 191 196 88 124 91 57 52 51 48 40 37 20 17 1 8 17 11 27 30 21 8 -3 2 8 19
92 156 118 158 212 170 145 121 98 117 87 89 98 109 119 152 166 154 266 364 275 232 246 194 204 288 114 160 129 91 53 40 35 39 24 31 21 32 46 31 26 22 16 16 15 -7 2 4 9

GFSSGP_con_3kmhel_090.txt.gz
Helicity
7 -7 -20 -13 9 -11 -25 44 68 -23 -12 19 -24 4 9 18 25 19 -13 -5 2 -3 -8 -3 0 4 8 10 5 6 10 10 13 17 16 16 11 8 7 13 15 13 14 3 -4 -7 -1 -3 -2
2 -9 -18 -7 70 28 47 87 -17 37 -29 -21 49 20 23 -3 2 4 12 -19 -3 2 -8 -3 6 7 6 10 10 7 4 5 -1 3 10 5 2 0 -2 -1 -3 3 13 1 -14 -25 -16 -14 -3
-1 -16 1 45 85 7 -4 47 49 68 12 28 40 48 15 11 -9 20 -8 -4 -10 -8 -6 4 8 15 15 8 13 8 -2 -8 -9 -2 4 -3 -9 -14 -16 -1 2 7 12 -3 -26 -28 -15 -16 4
-16 -14 -7 63 37 -3 11 -38 -1 60 -24 90 6 10 0 -10 11 2 -2 2 -8 -10 2 9 17 18 15 11 14 14 1 -9 -4 -5 -1 -3 -6 -9 -9 0 5 3 2 8 9 16 23 24 27
-28 -10 38 39 -50 -17 -5 38 -38 17 12 13 28 24 21 45 -60 -10 3 2 8 4 14 10 16 20 22 20 14 8 5 -7 -2 -5 -4 2 -1 0 2 8 0 3 7 15 25 27 23 33 -4
2 -9 3 -27 -38 -43 61 28 6 38 15 39 40 90 65 -32 -12 -21 -8 9 -1 7 6 11 17 25 20 19 14 7 3 -5 -5 -3 -2 6 1 -3 7 8 -1 1 16 20 24 27 19 13 23
-2 7 7 25 -1 36 25 15 -15 -17 20 24 66 141 56 -11 -53 -35 -10 1 -5 -5 -1 1 12 17 21 10 12 5 -5 -13 -15 -8 -5 -1 1 9 7 6 -4 -2 14 18 19 28 36 39 39
-9 -3 -2 -12 9 -13 -21 15 -10 31 60 106 113 96 78 -15 -42 -11 -21 -8 -15 -14 -3 8 9 12 16 12 14 5 -3 -16 -13 -10 -12 -1 10 -16 8 0 -1 3 10 12 23 35 30 46 37
1 8 17 9 -43 18 -27 55 61 49 52 78 -2 98 58 -14 12 20 -9 -14 -14 -9 -3 9 11 9 13 15 15 8 -3 -13 -21 -17 10 61 63 36 38 15 -2 -2 9 12 16 30 29 26 59
11 8 25 -11 22 26 15 34 17 23 28 38 138 183 76 6 5 12 12 17 -3 -3 3 10 4 1 8 7 8 18 9 21 5 18 46 70 70 62 53 26 11 -5 -1 13 26 62 46 59 59
33 47 18 -22 -28 59 59 40 65 62 8 62 137 77 10 -14 -35 -21 -21 -16 -20 -9 2 6 -4 -10 -3 13 24 27 23 17 13 20 43 37 62 67 64 61 53 42 20 35 55 72 61 69 94
64 28 26 -9 -13 45 18 62 2 5 -15 34 86 13 -24 -25 -26 -12 -24 -33 -23 -5 5 -3 -7 -11 -16 -2 15 22 16 17 25 49 38 22 50 59 62 49 40 36 39 35 59 74 76 88 83
68 23 0 5 4 26 77 -50 18 1 20 25 25 -13 -35 -40 -37 -10 -51 -61 -34 -15 -10 -9 -13 -8 -11 -3 7 18 33 31 37 39 31 27 38 37 41 36 21 24 28 27 42 77 70 60 44
41 23 14 25 16 14 46 24 50 33 27 59 24 -8 -22 -42 -52 -53 -64 -32 -31 -45 -39 -23 -18 0 -11 -11 10 15 27 53 34 24 16 15 19 32 31 37 40 19 18 28 33 52 37 34 28
44 43 19 13 0 40 52 63 -7 24 26 81 -7 -12 -25 -31 -24 -26 -32 -23 -18 -56 -19 -23 -26 -12 -2 0 11 5 22 17 25 14 9 9 18 9 25 30 27 34 32 18 36 44 44 40 36
54 75 48 13 31 40 34 -12 -10 70 67 35 9 -16 -33 -33 10 13 -8 -25 -29 -16 -2 -19 -20 -10 -5 -1 6 10 9 8 17 15 11 16 14 15 14 31 33 32 18 16 32 56 62 62 58
174 64 75 57 56 32 -15 -11 43 68 58 15 36 0 -13 8 -4 22 13 7 -3 -2 12 -5 -20 -20 -1 -1 -3 2 -6 5 7 16 18 7 1 6 15 21 25 26 17 18 31 41 43 39 65
94 117 122 61 35 42 -16 -12 39 81 63 48 9 20 2 21 29 30 35 23 7 6 30 19 -19 -21 -12 -2 -2 -7 -2 8 14 17 17 6 7 4 8 24 19 16 20 27 29 17 28 37 56
76 92 137 93 36 74 -18 23 10 76 42 35 27 19 6 36 67 42 55 54 39 35 55 50 23 -2 19 21 31 2 2 0 12 14 11 -3 7 9 11 17 20 20 23 27 16 19 30 34 45
119 127 132 148 31 109 102 25 11 49 40 34 62 68 46 4 56 90 68 79 70 73 79 76 62 42 25 27 12 -5 -3 9 20 2 3 10 3 13 5 -4 2 21 21 21 8 9 5 42 63
108 122 102 67 97 125 63 87 15 6 3 26 46 43 58 64 98 105 107 104 67 80 102 88 61 55 38 41 65 82 55 28 6 10 7 2 6 9 4 6 9 17 8 8 17 12 -2 18 47
98 93 97 48 45 42 58 38 89 65 -49 -39 -9 21 88 116 70 145 103 69 107 90 50 57 61 52 41 52 37 41 39 22 4 0 4 5 5 6 3 -11 -8 16 19 18 34 27 9 7 20
77 75 115 110 132 93 67 57 33 121 59 29 -11 5 12 157 158 139 131 87 61 81 58 39 65 36 49 39 24 24 43 28 22 12 3 8 8 8 7 13 -12 -15 29 26 35 34 22 26 4
107 114 160 144 144 129 78 97 66 55 121 5 -30 -12 28 126 147 108 118 54 120 86 4 26 54 36 52 46 16 16 11 28 22 17 -2 10 10 2 -2 8 27 26 21 7 39 46 42 30 26
135 181 218 188 162 107 90 126 57 33 6 -46 3 -10 9 72 191 209 228 276 54 103 79 52 57 37 60 57 42 21 -5 21 17 17 22 31 25 15 -4 4 5 17 19 6 22 37 30 29 24
146 141 207 189 149 136 135 121 88 48 68 76 105 161 183 196 212 202 226 333 173 23 18 35 56 55 57 83 57 51 36 39 37 26 27 8 18 32 7 0 3 5 19 16 8 16 22 30 27
180 175 142 183 192 151 190 160 81 56 127 180 237 270 271 242 228 242 250 240 308 91 46 17 49 55 65 88 90 72 53 27 33 30 30 27 14 17 16 -1 5 9 23 21 28 23 18 18 24
124 120 255 265 201 192 209 139 72 55 80 162 212 210 244 245 283 260 208 187 270 144 57 27 -3 72 56 71 90 84 54 29 35 40 23 27 25 16 20 16 10 9 9 19 24 26 31 33 28
175 206 222 202 214 168 152 137 90 52 92 128 188 183 195 214 212 207 242 216 215 208 96 95 117 146 168 48 62 79 59 52 46 41 48 29 31 25 2 6 21 12 28 25 28 28 15 15 22
177 174 167 203 219 228 177 163 121 95 71 82 94 95 106 139 167 153 152 249 191 155 134 123 182 148 207 99 86 91 70 62 62 48 56 50 40 30 35 28 18 22 30 35 26 10 17 6 8

GFSSGP_con_3kmhel_093.txt.gz
Helicity
-9 -8 -11 3 3 30 28 26 56 -3 9 8 -11 -3 3 23 27 9 -6 7 9 11 15 18 16 13 8 8 15 11 -3 10 8 3 7 12 17 6 1 2 3 -4 -17 -8 3 1 5 2 2
-11 -16 -17 -2 -4 -41 -11 52 -10 18 4 4 42 29 15 13 16 -2 -2 3 5 6 12 17 21 16 13 2 -5 -7 -7 2 5 7 14 8 1 -1 3 -1 2 -8 -4 -7 -9 -3 4 8 1
-10 -25 -18 19 41 7 -31 29 8 43 -8 56 19 23 15 30 -1 4 -6 6 6 1 3 7 8 2 -2 3 -5 -13 -8 -4 2 3 -2 3 -0 -5 -0 -1 -6 -10 -7 -8 -11 -12 -5 6 4
-28 -24 -18 17 35 47 20 2 23 -35 -17 61 3 11 14 28 8 -2 2 5 6 3 7 3 6 1 2 -6 -6 -7 -4 -3 -0 5 3 3 -3 -1 10 5 -3 8 10 9 9 16 13 27 38
-23 18 -10 -65 7 55 24 -7 24 -3 7 28 40 17 14 32 -21 5 3 2 8 14 12 5 11 12 7 1 -2 1 -3 1 7 13 12 6 6 2 2 1 -0 7 19 29 35 18 10 9 13
-9 -20 8 -24 8 30 8 49 1 39 -9 34 9 16 27 -0 -13 -5 -5 1 5 17 14 10 15 11 6 2 -0 -1 -6 -2 2 8 2 3 1 -0 5 6 6 5 9 16 18 4 13 27 34
-4 -12 2 16 -12 -33 2 -0 2 19 18 24 -3 44 23 -7 -27 -12 -9 -4 5 12 15 14 17 11 4 6 -0 -6 -6 -7 -7 -4 3 1 12 6 3 5 4 4 19 20 26 27 23 39 27
-5 31 7 -20 -15 -19 11 24 22 -8 33 24 -7 15 44 -17 -23 -16 -11 -10 1 10 13 11 9 5 15 23 10 -9 -15 -3 -9 -5 8 -2 -12 -7 -4 -0 1 -3 18 25 25 27 21 47 36
5 11 -2 9 -27 -35 16 -0 -0 16 29 35 33 6 57 -11 -12 -7 -1 1 5 9 10 14 7 3 19 23 4 -9 -15 -13 -14 6 38 -1 -4 -3 -2 14 -10 6 14 21 28 28 34 58 54
-2 4 13 37 -45 -10 -12 -2 -25 11 28 41 23 55 60 -1 7 18 15 17 17 16 18 15 11 10 13 12 14 4 6 7 11 25 18 16 -14 25 11 14 7 14 9 28 41 31 38 69 68
4 17 24 -28 -70 9 52 -27 -29 35 13 33 95 129 50 8 2 -1 -3 9 16 21 19 22 9 5 17 21 25 24 24 18 18 23 18 19 22 30 33 37 23 19 26 50 51 48 51 61 84
37 63 27 -30 -7 14 10 38 -2 34 29 19 80 113 27 -6 6 3 12 12 14 20 15 19 5 -1 8 24 26 24 31 28 30 28 24 19 31 36 33 31 30 35 46 49 58 67 83 67 76
45 76 -9 -19 -18 23 34 24 60 37 22 33 34 15 -3 -13 -10 -3 -2 3 14 26 13 9 4 -1 1 6 20 30 38 47 30 29 25 31 26 29 36 28 33 33 46 37 57 61 62 55 44
72 38 13 -22 -15 12 18 70 83 66 25 19 -7 -6 -5 -8 -1 -9 -10 5 8 7 7 9 11 -0 2 1 13 32 42 41 34 28 25 22 23 29 29 28 23 24 35 34 49 41 39 38 28
77 29 35 -3 20 27 67 20 66 65 4 18 -14 -12 -17 -39 -26 -35 -2 4 9 -2 4 6 4 15 8 7 10 15 44 27 24 17 13 10 23 13 26 24 19 22 23 23 27 28 27 34 36
74 57 50 11 55 63 54 -27 5 54 -7 9 -15 -15 -24 -38 -15 1 10 11 12 16 10 8 13 15 12 6 7 9 12 13 13 3 7 20 21 19 15 25 20 15 20 18 16 33 46 49 69
85 46 43 12 10 49 23 103 34 43 10 21 -34 -38 -34 -28 -5 -13 8 25 14 28 24 12 14 14 13 14 17 13 -1 12 17 15 12 5 7 17 17 21 25 21 13 26 34 31 45 56 85
57 59 33 29 37 43 -54 19 68 51 8 3 -39 -56 -23 -22 -12 15 11 34 35 39 35 20 14 4 2 -7 6 5 4 3 9 14 14 13 9 2 4 11 23 21 18 26 27 22 31 53 66
57 53 52 90 35 29 37 28 52 -13 -33 -32 -30 -50 -42 -13 19 12 21 22 39 48 48 37 24 9 -4 -14 -6 3 -2 -5 -0 4 11 11 6 -5 6 9 15 22 21 21 13 9 25 27 56
74 62 55 72 40 106 163 60 57 19 -18 -40 -16 -27 -4 -22 -32 -6 10 29 39 62 55 47 33 15 7 -1 6 2 7 7 1 6 10 16 17 6 12 8 8 17 23 27 15 16 14 28 59
98 71 61 63 123 176 205 71 25 7 35 -11 5 -3 -13 2 -6 -7 15 31 27 37 60 48 37 6 11 11 -9 4 15 13 7 1 17 21 11 9 10 21 16 17 24 16 14 14 8 25 38
96 77 85 60 38 51 2 42 52 -27 45 -45 -46 -13 -20 -14 -10 19 42 32 38 39 43 58 33 23 18 20 8 4 7 7 8 17 -3 10 10 7 2 16 30 18 16 13 17 18 12 19 42
121 85 97 73 91 61 10 39 154 50 33 113 41 -36 -23 -20 -13 17 57 48 40 37 50 48 29 31 24 37 16 5 12 9 6 8 16 1 8 6 2 -2 13 30 32 13 25 21 22 20 25
102 135 132 131 111 102 13 5 -8 31 108 78 60 25 -30 -62 -31 -19 39 -1 -5 5 11 25 40 24 13 28 15 4 4 9 13 18 18 6 4 4 3 16 19 15 21 26 26 39 31 34 25
121 126 184 123 126 140 89 44 33 23 24 48 12 52 12 -13 -21 -15 28 4 -2 9 20 31 30 35 26 26 12 -16 -7 4 4 10 -0 7 13 8 12 20 21 28 24 21 21 39 35 28 36
114 111 198 145 135 94 98 83 73 23 50 1 -50 -10 49 45 22 18 38 108 161 98 21 2 -3 10 25 12 18 -10 4 14 23 17 22 12 8 2 5 10 10 19 18 7 10 23 28 23 33
145 148 135 165 159 67 120 106 60 38 57 81 55 77 45 76 73 55 37 63 222 171 -11 -66 -22 -24 2 6 15 3 12 28 26 29 27 24 15 11 7 -3 -3 15 13 14 16 9 19 26 28
105 106 147 185 133 95 104 160 103 49 55 103 96 114 114 81 93 135 110 111 200 283 181 65 34 -24 -25 17 36 24 14 37 42 37 38 37 33 25 17 9 11 11 8 10 18 21 25 22 18
151 142 184 158 200 85 66 94 139 82 42 90 113 124 117 115 113 122 108 123 175 280 318 67 38 -31 -38 46 56 68 28 41 54 42 41 44 34 26 12 9 18 3 8 21 17 16 21 17 21
163 153 149 139 193 217 138 78 121 117 72 50 82 90 99 107 108 118 124 102 91 117 218 182 75 3 34 73 102 59 40 38 56 56 46 45 31 37 35 32 11 11 24 9 21 20 11 3 10

GFSSGP_con_3kmhel_096.txt.gz
Helicity
11 28 25 43 36 33 -0 22 -1 -13 -12 8 -13 26 -14 47 31 -7 -12 -2 1 20 21 31 22 22 19 2 -5 8 22 27 27 24 20 18 3 2 -4 8 -11 -13 -12 3 1 4 4 11 10
-2 3 12 -12 11 8 -0 15 7 1 -36 -15 41 43 21 -8 -8 5 -13 -12 15 15 27 22 19 19 4 -10 -17 -9 10 14 18 15 8 5 -2 3 8 -0 -13 -16 -17 -12 -4 4 7 9 9
-4 -13 -10 -4 83 6 3 -7 -12 -22 5 33 25 29 41 30 -2 10 -6 5 11 1 6 17 21 14 5 -9 -15 -4 5 5 7 9 12 3 -2 -1 -2 -12 -15 -14 -13 -9 -11 -3 3 9 17
-2 9 6 11 -45 90 -27 -12 -16 -2 18 46 14 -2 39 35 14 -6 8 13 8 12 8 13 9 -2 -5 -9 -15 -4 -1 2 6 9 11 1 -10 -5 -8 -11 5 -4 3 2 2 12 15 14 23
-8 -46 -5 15 28 -33 -43 -28 -11 9 12 18 59 9 -9 10 -11 2 5 7 6 8 8 4 -4 -8 -12 -5 -6 -2 9 8 10 11 11 16 11 6 5 4 9 13 20 16 -0 14 28 23 28
-11 -22 -41 4 -28 -49 21 -18 3 18 19 13 18 7 32 -0 -0 -10 -8 -2 6 -1 -4 4 -1 -2 -6 -3 -2 -1 7 -0 8 21 16 3 -1 5 8 2 8 18 24 22 12 20 29 26 17
-4 -19 -21 6 -8 -13 -37 -4 -9 -2 4 16 2 -13 -3 4 -25 -18 -12 -3 1 3 -2 7 9 2 -2 -3 -2 -1 9 1 -5 -6 10 -6 -0 -4 -1 -12 10 21 25 23 13 17 23 16 15
21 3 38 12 -22 -19 -43 -16 -7 -0 35 32 -14 -13 61 19 -12 -18 -9 -1 1 2 5 -0 4 14 14 -2 -9 -8 -3 -1 -15 -8 -15 -6 -9 -10 -3 1 -12 -2 11 6 3 7 16 13 16
17 15 5 3 -34 -54 -32 -33 -2 44 11 10 20 -9 73 18 3 5 5 8 13 9 10 10 4 6 20 6 -5 -11 -5 -12 -17 -21 2 36 7 11 16 20 3 1 11 8 1 -4 15 10 22
-5 -7 9 66 -32 -21 15 -19 -9 -2 -2 12 37 77 66 25 14 21 16 16 20 20 18 -3 10 12 17 13 2 -3 26 12 5 -5 7 -0 -6 25 11 -6 -1 -0 23 20 25 24 42 62 35
-5 16 29 26 -38 -15 9 -21 -19 5 -3 -5 46 75 70 27 8 9 8 11 15 19 10 8 3 6 20 23 19 17 16 14 10 6 10 -4 -3 9 7 17 22 23 68 42 39 45 37 26 32
20 14 72 -27 -26 -19 -10 -15 -36 -15 37 -8 33 86 56 19 10 15 11 12 11 13 13 4 6 14 19 23 23 20 15 17 11 4 7 7 9 16 18 25 23 36 27 38 42 22 31 30 33
23 37 37 -13 18 38 1 2 34 21 10 11 26 33 27 6 6 -2 -4 2 10 14 13 6 1 4 7 30 17 27 24 18 -2 7 13 15 10 13 15 25 23 29 23 15 22 23 28 18 14
71 45 29 17 46 16 27 36 54 28 25 35 13 13 14 5 10 -7 -7 -3 10 7 11 -0 1 3 4 -5 14 25 29 14 9 7 11 20 13 24 19 27 25 15 16 15 18 20 21 23 9
82 46 44 65 24 32 20 62 42 34 24 21 -8 2 8 -3 -1 -16 -15 -5 1 5 11 6 -3 -2 -4 -1 20 24 27 3 6 -2 11 15 19 12 22 20 32 26 14 24 11 14 14 14 15
50 27 97 36 52 73 102 42 58 33 22 11 -9 -8 -11 -17 -15 -21 -15 -11 -7 -0 5 3 2 -1 1 -11 19 22 16 15 6 1 3 10 11 15 19 20 27 28 29 20 18 27 14 24 28
85 37 42 60 51 106 66 41 34 75 19 13 -9 -2 -3 12 3 -26 -27 -21 -8 -5 1 -2 -2 -6 1 -11 3 14 -0 7 1 -1 7 2 4 7 12 15 13 35 23 22 26 14 39 30 38
58 45 18 39 115 114 65 50 44 44 25 -13 -0 4 5 13 6 -13 -18 -23 -10 -6 -0 -0 1 -9 3 -2 11 9 6 7 9 8 5 9 8 12 18 3 11 36 35 19 18 31 27 47 54
8 104 27 20 60 90 -24 38 51 45 -60 22 -8 -27 -10 -13 -13 -13 -5 -16 -9 4 7 15 4 -7 11 14 16 5 10 4 9 8 -2 3 3 2 6 1 7 24 28 26 23 24 28 23 47
24 -26 37 115 53 69 42 25 57 -12 36 8 -21 -13 -13 -15 -3 -15 -12 8 16 14 24 20 10 -6 10 1 4 17 5 4 -0 -3 -5 -1 1 3 -0 7 3 24 12 16 16 25 36 30 49
55 24 16 34 97 118 67 47 57 62 58 28 -45 -16 -16 3 -0 -3 -0 20 7 26 41 35 11 -4 -0 4 -1 12 15 6 3 -0 -3 -12 -6 -4 4 5 17 8 35 -0 15 7 42 26 39
42 93 71 34 -1 56 39 33 9 84 61 8 -42 16 -27 3 -12 -4 -1 5 27 17 29 27 7 -6 -10 -4 3 10 8 22 23 12 -0 -13 -3 -4 -6 12 15 15 14 12 1 9 18 62 53
103 86 56 21 35 28 -27 -9 -38 39 132 30 -38 -9 -10 -0 -5 -13 4 11 12 -5 11 12 1 -11 -6 -11 18 -15 17 33 24 10 -0 13 8 2 -4 6 24 20 5 14 23 16 28 13 51
128 95 81 53 19 8 -3 -26 9 112 120 20 -1 2 -16 -18 -16 -11 7 6 -11 -19 -8 9 16 -4 1 -5 3 18 29 11 20 17 7 4 6 9 5 7 10 17 44 31 26 31 27 43 39
120 116 119 83 71 54 20 -4 -3 -26 3 60 9 14 -9 -32 -35 -40 -54 -12 -33 -6 2 26 24 13 5 -4 -9 20 22 31 24 18 26 9 17 12 28 12 15 19 26 32 39 38 42 38 43
64 94 106 72 60 52 78 67 42 56 44 -16 -3 -1 -21 -36 -44 -59 5 -17 85 -2 44 66 15 -1 5 -4 -6 -2 5 5 23 19 14 26 22 6 32 16 11 16 16 15 23 11 35 31 30
76 100 62 130 65 46 52 77 31 17 18 23 2 7 -6 -9 -46 -36 51 45 75 148 134 112 71 22 -23 -20 -8 -7 10 30 40 21 22 22 27 22 11 14 5 3 7 -2 8 7 15 33 19
67 42 73 100 95 54 50 36 52 42 29 46 33 11 14 12 2 18 39 74 96 171 186 135 73 53 28 11 25 13 13 20 39 36 24 46 43 20 24 8 2 -3 -8 3 12 22 16 16 23
110 88 66 42 44 42 31 -5 110 78 52 52 78 140 146 77 60 58 84 93 78 201 301 252 134 101 22 46 23 44 32 32 31 52 53 39 50 32 28 21 7 6 -2 1 5 17 36 20 20
20 36 36 81 43 73 69 89 125 121 70 48 51 84 91 101 126 86 70 108 155 145 233 299 327 48 55 30 -25 34 43 44 36 39 47 46 29 28 35 33 16 23 18 16 20 15 22 12 15

GFSSGP_con_3kmhel_099.txt.gz
Helicity
46 96 66 53 68 105 5 33 14 4 -8 -32 -26 8 -101 108 88 31 -12 -6 -2 21 21 22 12 11 -14 -8 -8 7 13 14 17 18 9 7 -2 -5 -15 -6 -8 -8 -1 1 3 10 15 9 15
79 -6 42 4 78 1 18 28 17 -9 -24 -27 12 23 27 -18 -0 32 -14 -18 -3 2 22 27 13 6 -2 2 4 12 10 15 19 13 6 2 -1 -0 -4 -15 -8 -9 -4 7 6 5 8 11 18
57 12 -12 63 84 1 30 26 24 9 -10 5 -3 62 35 3 -12 -7 4 12 5 6 27 14 14 7 -8 -5 5 18 19 18 13 3 1 -4 3 -6 -7 -5 2 2 -0 -3 -0 3 13 16 21
13 -4 8 99 12 125 29 3 32 20 46 33 32 3 11 21 -9 6 8 6 10 94 68 3 3 5 -2 -21 -11 6 7 5 4 -2 -9 -9 -7 -10 1 6 7 1 -7 -5 5 1 -0 6 14
-19 2 1 57 25 50 13 15 8 6 -13 3 30 37 32 -21 14 17 -4 58 55 61 22 10 -0 -5 -4 -10 -3 6 12 13 5 -19 -12 -10 -5 -3 2 3 4 5 -2 -7 4 8 6 9 9
5 -30 2 -6 30 18 3 6 -0 4 -10 31 67 37 6 -6 2 15 67 60 30 88 32 20 -1 -7 -5 -7 -0 11 10 10 10 12 13 8 3 -1 -3 10 12 13 -5 -0 -2 4 4 3 4
-14 -29 14 26 6 -14 3 5 4 5 -18 28 18 43 16 13 -2 -3 -13 1 6 61 45 38 22 11 -5 -7 6 15 2 -11 15 5 -0 -3 -1 8 5 4 3 -1 -9 -5 1 4 5 3 6
14 -8 -5 125 -6 11 -18 -8 16 15 17 23 38 11 53 25 6 -0 -5 -12 10 82 -3 -11 74 13 -3 -11 7 -0 4 2 16 2 7 8 7 13 13 11 -6 -4 3 -1 4 8 -3 -9 -10
8 -0 50 53 14 33 6 -1 9 99 41 9 6 47 58 9 -2 7 -5 -7 16 18 39 46 23 5 -9 -9 2 5 11 11 1 11 20 50 11 15 22 7 4 6 -7 -10 -7 5 15 7 -33
-7 2 -8 50 4 28 1 3 17 10 9 31 36 81 86 13 -0 10 10 6 9 4 -1 40 10 24 40 -25 21 18 22 28 23 -8 4 29 -15 10 -2 -14 11 14 25 31 40 26 64 93 98
1 16 81 29 -7 22 9 37 -3 42 -4 24 55 47 57 17 -1 2 5 10 -4 -7 -4 11 57 9 7 6 14 21 -16 -6 15 13 14 4 24 14 11 22 27 65 54 37 71 111 28 82 51
8 31 23 80 -0 9 4 11 1 11 17 39 39 53 38 9 1 1 1 1 3 -5 -0 4 5 30 22 33 13 -12 -3 9 9 -7 4 11 13 11 28 2 -4 57 1 23 -1 -0 10 -4 37
6 17 49 60 -6 31 37 -11 20 55 85 57 22 19 18 -2 -1 -2 -4 -2 1 10 -1 5 -2 37 11 33 10 25 17 10 -1 6 29 4 2 12 11 39 -2 26 23 26 -6 -2 22 2 -0
57 47 45 33 59 150 -1 35 -0 24 6 47 15 3 2 4 2 -5 -4 -2 1 4 -2 -10 -1 -3 32 25 38 46 -14 7 -2 -0 15 33 -2 7 18 11 32 14 20 15 7 41 57 14 -21
22 57 84 122 67 94 86 28 47 43 41 35 5 -4 -1 -0 13 -6 -3 -0 -1 5 5 -11 -9 -9 -7 9 14 34 40 -4 12 -1 24 19 13 32 31 13 25 8 21 42 58 33 43 -1 11
24 64 120 39 104 215 123 70 89 36 36 26 1 1 -7 -0 12 -5 -2 -2 7 20 7 -1 10 -5 10 -15 50 41 33 -3 -3 -2 3 6 14 21 51 53 19 14 58 22 40 23 20 22 6
38 81 64 138 60 170 203 122 102 40 -3 2 3 14 3 4 19 -2 -6 7 7 20 2 -5 -14 -5 -18 -6 7 25 20 53 15 -8 -1 -1 10 31 56 29 -18 78 57 36 13 31 32 48 29
48 66 31 110 122 105 177 151 117 50 65 -3 2 15 13 24 21 7 -4 32 5 9 -4 -11 -12 -9 9 2 5 -6 4 28 -2 14 78 -2 -8 16 51 -5 27 34 27 16 43 71 63 58 72
69 54 86 111 175 217 113 64 86 80 77 107 4 -1 20 17 51 11 8 32 17 9 -0 -11 -20 -9 7 16 23 -6 15 4 13 49 -2 10 -4 6 21 5 21 71 28 50 44 87 56 11 63
-21 40 30 52 54 96 86 60 118 61 33 101 67 1 21 30 78 23 17 24 22 12 7 -12 -23 -9 6 22 21 21 10 3 6 41 -7 13 4 -1 31 39 15 28 -6 17 23 65 74 -12 64
-11 2 -14 24 55 46 40 79 57 99 -4 58 87 48 60 6 62 26 11 26 36 30 16 4 -18 -19 8 9 2 31 39 16 -11 20 15 4 -1 10 10 16 31 16 28 30 28 54 79 40 19
26 22 -99 83 7 31 20 27 4 54 103 -33 93 61 71 25 22 57 39 4 23 56 15 27 -5 -0 -6 20 18 12 16 12 18 21 1 45 -3 -1 9 -8 10 13 38 31 12 18 104 87 11
19 36 12 75 18 -25 -98 -11 35 96 85 46 108 77 12 -15 31 90 38 5 21 57 36 22 5 2 17 -6 60 -5 16 21 41 18 27 41 25 3 5 7 -18 -3 19 -17 57 31 40 94 114
46 22 19 52 19 -1 -74 -130 -31 -5 -23 70 35 18 5 74 26 61 14 41 -1 67 56 44 27 11 8 10 21 37 37 41 23 36 23 4 51 27 6 11 -3 18 36 3 -9 -3 29 56 77
56 31 22 47 79 50 57 -34 15 86 43 -28 14 -16 12 32 -2 -10 45 97 26 67 56 81 37 17 17 11 11 17 24 38 43 27 18 7 59 9 83 41 15 1 31 34 39 11 19 21 52
54 32 42 40 38 6 -29 -29 -3 36 55 50 78 4 2 45 -15 -11 84 73 -5 27 55 58 55 25 21 20 18 21 18 -8 32 26 48 46 41 -13 24 20 22 13 29 17 14 1 -12 13 19
22 91 31 58 47 42 77 91 131 27 14 -6 6 42 18 -13 89 -3 -12 149 110 98 45 102 104 55 37 31 30 26 32 43 79 47 46 47 -8 55 39 30 21 10 14 7 13 20 -8 -4 29
55 22 68 52 25 88 62 61 59 39 1 -0 10 -0 50 7 -29 6 139 130 191 170 178 148 80 110 91 32 32 26 14 22 41 29 38 28 23 46 1 14 15 15 8 8 14 19 36 19 36
52 57 46 27 40 22 17 15 73 28 57 19 27 22 24 15 7 24 118 120 211 162 188 243 178 111 130 78 85 58 37 36 23 35 35 35 35 37 29 26 11 11 17 4 8 -7 39 12 18
15 32 16 56 25 42 33 27 57 59 84 103 98 145 174 227 118 130 156 167 187 147 221 277 348 321 155 155 124 74 55 43 54 61 40 42 47 44 34 24 29 22 10 12 27 9 1 23 4

GFSSGP_con_3kmhel_105.txt.gz
Helicity
26 72 52 21 120 100 -2 -22 32 50 55 28 6 111 93 41 41 33 22 76 73 41 8 8 1 -7 -11 10 7 2 5 -2 2 5 2 -12 -14 -5 0 4 0 -1 -5 -7 -8 3 6 10 43
22 44 8 108 85 48 49 75 107 14 43 117 32 139 221 136 112 60 6 5 29 27 15 2 0 1 -1 -9 -2 -1 -3 -1 -4 -4 -11 -17 -14 -9 -3 0 1 -1 -8 -6 -11 -1 -3 12 31
11 21 -23 -13 76 43 71 84 73 11 4 12 17 -4 -26 47 60 26 55 59 37 32 24 10 10 10 3 -9 -11 -14 -15 -11 -13 -6 -9 -9 -12 -13 -7 -3 -1 -7 -9 -6 -17 -14 0 6 27
7 -14 -16 -86 15 57 169 76 108 43 -48 87 138 74 100 108 40 61 89 208 115 71 37 19 17 9 8 0 -3 -7 -16 -13 -13 -8 -6 -10 -10 -4 -7 -11 -13 -14 -14 -31 -28 -13 -11 11 51
56 -9 -22 48 43 57 137 30 77 53 -16 83 209 96 55 38 32 27 65 125 85 62 26 27 12 12 -3 -2 2 0 -1 -13 -4 -1 5 5 6 7 5 -8 -14 -24 -22 -10 -24 -11 -12 19 42
1 -26 44 -35 52 157 106 -4 70 132 85 183 150 94 -30 -13 46 51 128 47 89 45 34 18 11 14 9 7 11 8 1 -1 7 15 18 15 11 13 11 11 -23 -23 -26 -25 -17 -5 -9 0 27
3 -18 28 117 162 121 28 -7 56 32 153 159 117 42 -27 36 76 68 62 56 117 13 4 1 -3 5 -1 0 3 -1 -2 4 7 10 16 9 10 11 13 6 2 -4 -8 -5 7 16 4 -8 7
14 -49 34 65 47 43 -46 8 52 32 26 194 191 17 -12 27 38 22 -2 19 93 12 -55 -24 -9 -11 -15 -4 -4 -5 -1 2 5 13 18 16 0 -9 -20 -9 6 22 16 5 13 15 6 9 24
56 53 59 83 -1 -15 78 -17 9 38 68 141 53 46 -30 40 -17 -9 -23 77 79 3 5 -44 -37 -18 -16 -8 1 -9 1 4 9 7 20 10 -14 -13 21 25 10 22 37 34 31 12 10 22 28
62 52 43 -7 139 29 -7 23 30 -3 -23 140 119 37 -27 -20 34 -33 60 135 87 33 -7 -41 -16 -5 -7 -3 -13 -8 4 6 -11 -1 0 20 11 20 -3 10 34 41 26 44 49 66 38 24 0
48 24 25 52 80 148 19 54 42 43 30 172 74 -16 -71 35 -16 58 98 145 29 -33 -22 -19 -44 -44 -18 -34 -47 -28 6 -4 2 1 -7 39 23 62 27 60 42 62 45 8 35 82 103 69 69
29 103 10 66 -53 105 13 39 -15 -12 29 146 28 -42 -11 48 2 2 61 66 78 37 12 12 -3 -16 4 -63 -44 -15 -13 -3 -14 -11 10 8 30 36 33 11 12 128 104 28 59 84 161 184 111
16 18 125 6 76 35 12 22 -2 46 261 171 79 -1 59 17 7 83 140 55 78 25 27 56 -13 -15 -8 -19 -24 5 21 2 -19 4 11 -11 29 4 43 62 38 31 42 66 88 81 82 90 60
8 2 80 35 40 -22 -25 54 141 50 179 172 70 -44 -38 -19 3 145 68 86 85 27 -18 38 65 51 11 19 22 41 -13 -21 1 8 34 15 21 -3 27 52 80 98 79 97 65 61 80 81 57
-8 -3 33 47 -31 -73 182 61 160 158 124 96 26 -54 -33 36 125 85 85 138 86 21 -8 28 -1 60 24 -6 61 -2 -18 25 31 29 15 29 12 -14 17 72 159 108 205 169 100 81 38 48 62
20 51 28 83 16 193 50 170 20 166 62 41 -1 -65 12 119 110 142 154 143 135 82 -19 -19 -15 3 48 84 53 67 50 55 27 11 -5 34 13 7 47 36 78 63 16 55 100 119 99 74 79
51 45 19 74 154 224 139 138 120 -58 74 57 -28 -47 65 152 152 153 183 181 134 52 -3 -36 -27 -15 -12 32 80 -25 55 -5 -16 -8 4 12 -2 12 52 45 41 48 22 87 109 61 27 91 70
88 38 23 103 254 102 151 214 225 257 50 14 4 32 98 202 97 129 205 207 154 117 51 28 -14 -25 -6 51 65 49 3 61 19 2 -2 1 11 15 33 9 15 14 85 85 86 77 77 61 29
135 124 39 -4 76 173 230 246 275 456 246 159 31 159 104 142 132 172 291 247 161 104 33 51 -7 -16 -31 -8 25 16 -7 25 8 -4 5 15 10 0 7 16 7 46 116 114 61 79 84 100 53
87 24 38 -122 -188 38 172 208 308 238 210 214 312 261 67 194 162 217 261 215 136 114 76 44 22 -13 -38 -26 31 33 42 36 -3 -8 9 14 2 10 4 -3 14 26 44 68 87 106 125 87 68
-71 -5 -32 -74 -186 3 32 110 219 172 135 216 274 222 261 324 163 204 222 152 108 122 118 75 31 3 -9 52 35 55 58 36 39 46 28 31 7 -14 -29 -22 7 15 30 48 92 165 87 90 99
59 6 42 -103 -124 -207 59 110 159 22 -68 145 148 119 230 196 104 230 209 214 179 118 99 109 24 -9 -15 -12 -32 -15 -1 -10 10 10 24 14 38 5 -19 -29 -10 17 19 28 96 170 86 46 78
68 69 -7 -32 28 -78 53 84 104 92 -30 -4 41 109 141 229 183 141 143 259 156 176 113 90 62 13 -19 -23 -14 -23 -28 -13 -2 -10 -5 -5 19 35 13 -40 -50 -24 6 43 80 105 81 72 59
103 126 75 -22 6 -2 -38 20 25 -40 52 -38 2 90 152 212 201 132 88 190 178 188 155 105 74 7 0 -3 8 2 -13 73 34 -15 14 32 -3 16 18 16 14 16 -10 10 23 61 54 51 45
85 70 17 -15 -4 -49 -3 -8 104 34 -8 -21 13 -13 118 165 169 81 30 153 231 222 195 154 88 33 45 38 43 6 50 45 24 9 29 1 22 19 35 33 -1 16 19 16 37 33 18 35 49
32 74 26 -68 -72 -34 0 5 30 105 224 73 33 -41 35 143 123 100 -45 195 198 202 191 144 108 88 76 41 24 26 24 28 29 36 35 29 43 11 55 28 12 -2 3 8 11 7 47 27 37
45 68 30 45 1 -28 6 37 38 20 40 16 37 28 38 140 116 135 75 205 247 310 194 183 101 100 77 33 33 24 33 73 67 62 45 33 33 -11 27 12 6 6 -18 -14 16 -22 65 35 26
17 60 51 141 33 -20 -49 30 26 -26 -17 -39 -105 -103 9 110 53 116 119 198 308 196 161 180 87 53 76 40 33 61 62 65 55 66 52 17 -4 3 -1 44 -2 -9 -4 10 20 44 36 12 43
57 46 51 74 99 44 7 -38 -33 11 -65 -68 -135 -136 -43 -60 -37 91 165 178 206 26 25 163 104 9 29 45 83 65 68 45 46 62 73 33 31 2 -8 -7 10 -6 -13 11 10 5 5 4 18
47 56 11 47 45 46 9 54 24 80 75 76 33 19 -10 -36 58 148 183 192 231 136 64 56 23 -1 42 132 188 136 45 55 26 87 81 58 22 46 23 19 22 21 27 21 10 5 9 -1 7

GFSSGP_con_3kmhel_108.txt.gz
Helicity
21 9 3 -52 -36 44 30 32 79 5 10 -15 11 21 72 30 40 53 -40 -19 23 22 5 8 10 10 12 -10 -22 -14 -4 -5 1 -5 0 -10 -19 -22 -13 -10 -11 -7 -7 6 4 9 19 23 26
-6 -3 -37 -22 62 147 128 149 153 27 47 118 69 147 64 45 125 35 6 1 24 29 8 7 8 -5 -10 0 -2 3 -5 -8 -4 -4 -6 -17 -16 -12 -9 -12 -8 -9 -7 10 7 17 27 31 29
-11 19 -8 57 94 105 110 -14 63 -36 -7 55 81 44 -5 16 48 -21 3 24 22 15 8 9 9 6 -4 -11 -10 -7 -7 -4 -7 -6 -11 -15 -18 -13 -6 -10 -14 -4 -2 11 11 20 22 28 21
-19 -10 -13 42 84 85 104 -19 26 127 112 110 60 33 -40 7 -38 -28 -11 17 24 3 -2 4 8 2 -2 -1 -6 -13 -9 -1 -2 -8 -11 -12 -7 -12 -15 -13 -6 -1 9 17 14 21 29 34 29
15 -11 -37 23 69 43 81 36 -1 154 6 73 126 1 -38 12 64 19 38 81 62 10 10 4 2 1 -2 -3 -6 -11 -13 -12 -14 -14 -17 -18 -20 -27 -24 -14 5 18 28 23 18 14 28 41 51
1 12 61 16 9 32 131 46 172 161 103 115 111 63 0 63 94 31 35 81 91 39 20 14 11 -6 -4 -3 -4 -6 -10 2 5 7 16 17 16 29 -21 -9 2 20 30 27 22 16 29 38 41
70 26 93 41 42 69 194 100 175 175 150 42 105 85 -21 62 61 14 51 80 41 32 15 4 2 0 1 3 0 -4 0 5 8 10 11 15 15 22 33 36 35 30 25 20 17 18 33 43 45
-3 -14 37 81 69 71 79 84 172 217 40 74 195 37 -8 9 45 25 29 21 14 9 2 0 -7 -8 -12 5 0 -1 4 3 3 8 11 7 11 33 44 42 41 37 35 26 6 -1 17 30 63
12 32 27 118 4 82 104 46 80 123 105 63 18 73 -26 16 69 49 47 8 -4 -20 -21 -18 -14 -14 -12 -3 0 4 9 16 18 10 13 -9 5 25 40 42 39 37 38 37 32 18 19 24 71
31 28 73 24 141 176 119 5 20 108 42 19 129 82 -2 18 66 76 15 -21 -11 -47 -42 -29 -21 -16 -19 1 -15 -12 -10 -13 -17 -25 -22 -20 3 30 4 5 11 15 27 31 36 45 51 46 62
62 99 50 0 108 165 140 -52 30 148 94 168 203 136 20 36 44 56 79 3 -16 -30 -74 -38 -31 -29 -22 -29 -25 -25 -8 -12 -14 -15 -7 5 10 36 24 28 15 29 40 36 37 49 64 73 82
86 93 60 -115 67 62 12 -57 88 275 53 158 123 71 -7 53 59 64 93 45 18 -2 -66 -46 -41 -28 -37 -49 -36 -27 -30 -24 -6 -5 3 -5 30 39 37 42 61 34 62 49 74 85 97 112 119
80 80 9 -105 -26 47 54 67 125 91 83 55 24 33 3 86 77 118 82 23 30 -28 -59 -57 -22 -25 -9 -22 -8 1 -23 3 1 14 19 10 48 64 101 49 44 58 72 48 48 53 110 140 117
98 -13 72 144 53 91 82 84 178 51 120 127 31 -15 10 113 193 150 98 24 50 16 10 -7 -14 -9 -5 -4 -2 -7 -9 2 10 5 23 39 59 52 87 63 81 61 33 21 44 78 99 129 93
58 63 65 36 116 162 107 92 62 191 111 110 44 15 -16 143 211 197 96 39 26 12 33 37 -31 -14 13 5 1 -10 4 10 2 5 17 18 41 49 55 65 113 107 84 103 84 114 119 36 50
34 39 42 -19 -11 66 61 12 37 83 164 104 87 1 78 172 213 96 135 61 -6 17 51 39 11 38 -10 -23 -10 -24 6 2 5 14 2 24 20 38 72 74 69 100 200 136 91 162 109 82 71
77 44 19 70 92 96 142 157 109 134 112 15 22 -3 107 180 176 97 102 102 21 39 35 27 11 60 74 56 48 -13 5 9 -2 13 2 14 21 21 0 7 18 53 99 96 129 96 74 103 106
35 76 65 131 182 118 136 68 161 89 108 1 -4 8 146 160 235 170 117 124 34 35 12 -2 -3 71 65 77 68 99 -9 -9 -13 -12 -10 16 16 -11 1 11 25 44 55 66 95 49 48 61 97
36 54 76 44 -9 42 89 175 162 194 -5 17 -49 83 128 154 216 212 133 149 62 43 47 3 -18 2 -4 89 59 14 -6 -4 -14 -15 -6 -16 -3 -16 20 3 15 28 42 80 91 116 77 83 30
146 63 35 -41 -110 -52 12 39 216 197 175 130 134 138 197 147 206 232 193 157 103 77 39 61 -13 -19 -26 40 45 32 13 3 -14 -8 -7 -9 -8 -10 -24 -4 21 17 46 79 101 61 89 62 42
18 -11 -62 -81 -98 -107 -116 121 241 190 204 141 274 296 290 232 230 273 209 216 127 148 101 89 19 -18 -13 34 42 79 66 47 33 16 14 27 11 3 -44 -17 -5 19 27 69 89 95 106 74 58
82 -6 -67 19 8 -24 30 10 104 108 110 231 269 318 327 287 176 223 178 196 179 132 104 76 38 16 7 -5 -10 -5 6 10 6 -1 7 0 6 9 -31 -22 -18 28 13 49 73 92 119 59 68
81 73 41 23 -5 -41 8 60 98 148 123 102 211 211 249 364 198 193 157 181 130 116 89 61 66 33 13 -8 -26 -21 -12 -6 -4 -4 6 4 -3 45 6 -3 -10 6 17 52 77 65 122 82 59
252 206 91 -15 15 3 -27 11 31 99 41 -34 74 202 238 292 238 168 144 154 133 109 89 86 63 60 30 30 -27 -15 1 -1 -13 -12 0 -9 -2 14 36 19 -25 -1 21 19 41 49 45 67 63
148 111 41 0 -14 -6 24 10 -54 97 85 -81 42 120 209 239 326 245 151 117 116 105 94 95 73 31 44 55 26 8 -2 10 3 -3 -10 2 6 4 7 25 29 42 30 21 39 44 45 46 65
-7 23 9 -32 10 -17 -32 23 1 11 11 60 25 76 197 241 289 261 186 160 121 153 113 92 90 47 46 69 57 29 18 -7 -9 -2 -5 -7 1 13 10 28 33 22 29 34 53 44 45 60 45
38 13 1 58 46 -1 -23 64 -47 -21 34 35 129 95 143 244 279 192 224 229 219 224 137 108 114 74 56 69 66 50 25 21 5 11 24 -14 3 -2 31 23 66 43 41 27 20 56 51 52 51
90 48 79 58 17 -10 -38 -77 -19 24 7 34 92 160 138 147 181 173 211 218 253 309 316 165 104 102 59 79 60 48 58 45 47 37 21 15 -2 4 21 24 24 23 33 29 31 42 41 27 56
85 115 79 55 29 31 -12 -80 11 43 56 135 119 91 160 161 106 189 189 268 245 260 261 221 112 80 80 56 54 40 60 66 63 36 28 33 28 23 11 26 47 20 5 9 35 32 20 14 29
38 66 48 55 32 42 15 15 -101 51 18 121 98 52 -43 81 185 172 187 234 267 195 190 123 73 31 30 60 89 67 59 77 78 48 30 25 19 34 20 5 4 13 27 31 20 21 18 16 4

GFSSGP_con_3kmhel_111.txt.gz
Helicity
11 21 14 -13 -10 6 20 -1 -3 44 49 -5 58 32 57 -6 61 63 -39 -26 -45 -28 -5 10 13 16 -5 -2 -11 17 3 3 5 10 7 9 5 15 20 15 22 24 15 19 20 24 17 17 13
-4 2 -25 31 -4 115 45 6 59 33 60 162 94 95 47 70 53 35 -2 -35 -3 -9 -18 -16 -13 -5 -19 -13 -13 -2 -3 3 -2 -0 10 13 5 12 10 12 17 19 24 22 25 26 24 19 14
-6 -12 -24 5 50 101 71 32 96 81 15 114 55 54 1 16 7 4 -37 -3 13 -3 -9 -8 -15 -11 -19 -6 3 -1 -1 -4 -4 -4 -10 -9 -4 2 9 17 21 21 23 22 22 25 34 34 20
-27 -49 -57 72 164 127 71 123 49 51 11 14 171 93 30 -5 -5 -18 5 34 24 9 5 9 3 -3 -10 -14 4 -5 -5 -11 -12 -15 -18 -24 -18 -7 8 15 20 25 21 23 18 26 33 28 -0
-26 -49 45 119 82 38 7 40 73 45 -5 22 34 33 5 -46 -18 8 6 26 48 15 12 5 9 -1 -1 -1 -5 -8 -10 -8 -11 -5 -15 -22 -17 -2 21 32 36 34 20 25 29 35 45 50 23
6 -40 36 94 90 91 26 54 143 160 94 85 97 73 7 -24 28 -7 14 34 38 27 11 6 2 1 -4 -3 -12 -5 -3 -3 -3 -2 10 9 21 12 25 34 33 31 29 31 36 49 52 45 19
17 -17 100 64 127 74 70 93 115 64 41 6 60 27 -13 -51 -29 2 32 31 23 22 14 3 -2 2 3 4 7 3 8 7 15 16 19 26 29 26 36 31 29 26 22 22 22 33 49 57 48
48 27 116 120 98 48 83 74 73 113 35 84 80 17 -26 -59 -25 22 24 25 24 9 4 -0 -13 -8 -1 5 3 8 9 10 14 21 22 19 18 27 31 40 33 34 31 25 29 34 50 70 70
-25 35 39 101 77 99 63 101 19 62 95 5 32 13 -56 -9 19 55 22 6 6 -2 2 -2 -8 -8 -10 -5 -3 2 9 9 16 26 27 26 35 28 31 40 46 52 52 43 37 41 62 86 96
23 81 27 69 131 197 157 117 111 96 74 29 113 108 7 41 74 46 6 -9 -2 -11 -6 -3 -7 -3 -8 -1 -18 -7 -2 -6 -7 12 35 37 42 47 40 27 27 31 35 39 51 57 67 67 111
19 42 89 21 122 200 193 73 87 141 83 108 177 176 32 20 6 41 -3 -6 -19 -30 -20 -13 -12 -11 -12 -12 -9 -7 -2 -14 -18 -10 30 31 40 38 39 44 46 46 45 39 47 64 82 108 124
79 68 140 6 50 103 124 119 59 163 82 134 198 153 76 34 24 24 11 -27 -34 -57 -43 -22 -23 -22 -21 -27 -32 -18 -3 -10 -17 -4 19 36 31 18 13 38 50 64 34 43 33 47 77 103 112
59 77 48 7 54 96 121 92 31 95 169 149 126 106 83 51 24 -1 -11 -4 -17 -54 -52 -34 -29 -16 -24 -25 -16 -13 -10 -3 2 -0 15 44 50 71 64 39 45 62 50 52 50 73 101 118 122
50 76 23 -72 -106 77 56 9 79 35 196 151 113 84 45 72 63 18 12 3 -2 -43 -53 -60 -33 -21 -15 -23 -8 -4 -3 4 2 19 32 53 77 93 47 42 58 76 69 43 63 90 94 95 108
86 48 55 49 -23 83 86 18 53 124 136 159 60 55 49 76 79 87 66 50 7 -39 -31 -43 -41 -23 -5 -5 4 -4 -16 12 25 29 28 42 60 40 25 47 73 85 83 93 81 75 72 104 122
34 56 24 84 64 60 136 82 44 123 95 99 28 104 98 99 137 67 95 96 12 -39 -26 -6 -12 -17 -0 -9 -5 -14 1 14 1 15 40 25 21 26 40 71 66 74 104 75 94 115 95 95 86
73 45 31 104 151 112 149 14 51 111 173 34 27 123 108 123 107 71 71 89 38 5 13 41 19 -10 -12 -20 -17 -25 4 24 14 13 15 7 -3 5 29 45 103 58 87 124 130 155 112 112 105
86 25 26 34 92 35 107 90 139 99 73 32 -5 155 167 139 103 114 75 43 42 7 57 92 85 14 -33 -22 -3 14 6 6 1 20 16 14 7 -12 -30 26 68 65 70 133 87 108 66 63 78
48 46 42 29 10 102 240 160 75 187 76 10 74 188 149 154 98 94 43 15 31 4 98 102 107 28 30 31 52 35 -1 -13 -2 4 15 -4 8 20 -5 13 32 37 61 76 79 67 63 55 64
74 74 31 4 -70 -34 -94 40 91 191 85 108 79 164 134 147 96 103 58 20 25 -3 40 82 106 35 8 -3 43 26 9 -3 2 -3 -4 -1 12 3 -11 -18 -0 5 30 50 71 92 70 45 60
105 59 -20 3 -40 -46 -47 -68 6 144 146 104 169 132 183 215 152 104 92 69 56 36 60 81 59 40 5 16 79 87 58 50 4 2 -6 8 1 -9 8 -21 -6 6 38 54 65 63 64 49 74
84 36 5 24 -15 2 14 -38 34 94 127 94 139 185 183 205 173 155 103 111 77 57 54 35 21 38 22 36 40 22 26 35 15 13 7 5 19 -9 -26 34 22 13 22 62 65 54 48 52 45
59 109 52 -11 -7 -15 -1 -22 -38 34 139 72 88 215 262 255 216 171 121 132 70 57 67 64 33 57 61 38 30 1 -2 2 15 18 -2 2 12 14 -2 -33 -26 -25 26 59 83 78 55 51 42
215 162 89 -4 -64 31 2 12 14 27 -70 178 127 206 218 227 160 167 139 118 72 60 63 55 53 21 31 22 17 -5 -11 -5 -8 -0 -4 -5 6 18 23 -23 -23 -5 10 47 63 61 59 55 69
243 146 105 89 57 15 -0 31 45 -7 22 105 208 266 202 250 197 179 187 124 113 93 57 56 50 17 1 37 31 6 10 -7 -2 -2 -7 -3 7 19 17 32 -16 -16 11 11 38 54 67 66 68
95 51 51 28 -0 12 -20 6 -12 26 54 113 364 238 224 168 187 182 183 159 92 109 63 68 62 39 23 4 -2 21 3 -20 -16 -10 -20 -13 -15 -16 7 12 11 18 27 44 73 61 53 57 67
43 29 14 38 75 24 -21 -7 4 -15 25 47 33 42 195 229 142 162 179 157 122 107 91 72 78 34 56 33 20 20 16 11 -4 -5 -21 -22 -17 -3 14 13 11 21 30 41 73 77 59 60 63
22 71 58 73 44 -6 -27 -82 -45 18 -17 3 33 196 163 78 149 221 165 139 120 137 108 114 77 82 66 63 44 34 43 37 29 19 -11 24 19 21 22 13 18 28 29 35 51 61 66 72 64
93 91 91 51 27 -4 2 -1 -112 -61 85 97 61 130 223 253 373 232 128 125 165 231 184 165 121 111 98 80 72 54 47 51 41 41 43 40 34 32 24 23 40 32 14 17 28 43 45 51 65
58 36 66 62 46 32 32 31 5 28 4 92 93 65 120 174 290 318 218 181 215 201 185 205 199 160 119 122 89 64 61 75 44 30 29 43 45 43 28 23 23 16 26 18 22 40 34 19 31

GFSSGP_con_3kmhel_114.txt.gz
Helicity
-12 10 2 20 -1 -2 -0 4 35 45 4 8 41 41 72 39 31 60 -12 -15 -26 -14 6 23 48 51 20 -2 2 -0 -2 3 5 8 20 15 16 14 15 16 22 11 19 15 16 14 19 18 20
-15 -6 -17 -1 39 21 29 16 47 55 16 74 84 79 53 70 35 30 -4 -32 -7 -3 9 16 9 6 -2 -16 -17 -4 -6 3 6 7 19 16 18 13 15 18 26 17 16 20 12 16 14 20 9
-9 -6 -10 19 59 34 43 33 69 86 98 175 65 14 13 6 7 24 -36 -9 15 -10 -13 1 -6 -14 -9 -12 -12 -2 -4 3 6 12 9 12 17 13 6 12 12 20 22 28 30 28 25 -0 1
-14 -37 -18 49 82 50 25 58 70 89 104 52 149 108 48 36 14 -27 8 15 26 -12 -15 -10 -8 -15 -11 -7 -4 -4 6 9 1 -2 6 9 19 27 20 19 22 19 22 29 39 43 38 3 -1
-28 -41 42 100 94 59 38 34 13 52 80 100 44 73 39 -13 -39 -15 6 11 30 1 -4 -4 5 5 1 -3 -3 -7 -11 9 -4 -8 -3 11 19 25 31 18 23 18 31 34 38 49 46 -2 3
-7 -12 114 76 55 56 20 34 36 77 60 59 127 173 40 -21 -17 -16 -7 4 -5 1 -5 4 5 1 -2 -1 1 -2 -7 -9 -12 -0 13 17 28 28 34 31 26 24 32 35 44 51 45 16 28
-7 24 86 95 134 74 13 26 51 80 51 16 75 109 27 -26 -24 -8 -0 1 -7 -1 -8 3 6 9 -0 10 6 6 12 17 18 24 24 24 25 21 25 32 30 29 30 35 44 59 58 47 46
26 58 91 52 114 28 30 23 41 35 -8 14 22 33 10 -61 -21 6 -4 -9 -8 1 2 10 8 -1 3 9 9 4 9 18 17 22 19 11 13 19 30 43 33 32 30 29 46 59 58 56 56
29 68 55 92 126 106 67 38 11 26 46 5 -15 37 7 -12 -1 12 8 -4 1 4 6 1 2 -10 -7 20 18 11 15 16 19 30 22 41 47 43 33 23 25 30 36 39 42 61 66 75 96
4 61 84 112 114 155 28 84 30 75 44 7 88 130 89 24 4 15 7 14 -3 2 -0 -5 -4 -5 1 9 6 7 6 21 39 37 39 49 55 55 44 37 41 55 58 56 65 77 69 86 112
17 28 66 80 184 104 141 19 39 105 16 29 116 135 76 23 -11 7 10 28 4 -8 -4 -4 -3 2 1 4 10 12 4 -4 13 24 32 52 58 61 64 63 59 48 37 59 68 83 90 120 123
32 30 88 150 111 79 97 93 -2 49 17 66 100 153 50 8 -34 -8 9 6 -14 -23 -16 -7 -2 -2 7 5 -0 2 -8 -2 1 31 39 47 44 41 44 44 43 31 32 46 72 87 97 111 113
38 37 85 165 33 29 73 65 60 -11 59 130 132 124 52 -4 -30 -14 13 24 -13 -30 -32 -16 -11 -8 2 -4 3 3 7 2 5 36 56 46 24 27 63 52 53 38 46 52 68 82 87 90 84
41 61 65 42 34 76 75 65 51 19 99 151 134 106 67 -5 -10 -3 24 10 -10 -21 -30 -25 -15 -10 -10 -11 -0 -0 8 16 18 29 40 25 49 62 56 74 73 62 54 64 70 78 79 71 82
53 46 72 81 35 21 148 70 18 55 103 171 82 71 29 -19 14 39 39 29 -2 -43 -29 -35 -25 -20 -15 -3 1 -3 5 4 14 27 27 49 61 41 58 62 73 61 53 63 68 71 68 71 79
36 44 33 47 56 -7 126 3 39 64 112 128 60 63 7 -36 16 32 37 27 -9 -18 -13 -41 -24 -21 -19 -6 -3 -9 8 28 27 18 14 21 35 29 57 64 63 80 92 87 86 77 81 76 76
100 70 45 8 73 103 130 28 132 58 132 137 81 49 29 -6 -16 28 50 12 14 -15 -19 -26 -37 -27 -23 -14 -15 -8 5 24 17 14 21 18 15 34 70 48 61 80 85 90 103 102 82 76 88
87 70 48 -6 1 110 143 46 140 128 82 144 83 64 48 26 32 49 57 8 -6 -17 -22 -5 -31 -24 -13 -27 -33 -30 -6 14 9 7 4 15 25 25 36 42 45 62 80 91 79 81 78 76 65
57 59 41 -10 -71 27 44 57 194 151 107 96 101 57 61 26 56 61 41 16 10 8 12 -9 12 -23 7 3 4 -7 -2 -2 7 18 -3 10 17 9 -2 22 28 48 54 93 82 64 61 74 60
57 67 48 24 14 3 -37 41 87 179 103 94 74 51 76 4 49 63 65 40 27 37 50 12 28 15 2 -15 16 20 -7 -11 -0 8 10 -4 7 17 18 20 14 11 40 66 65 54 48 56 66
69 81 37 36 29 25 19 -56 -169 86 90 71 1 47 107 104 72 73 90 64 22 51 62 37 53 21 -8 -17 16 92 71 30 9 14 13 1 -4 3 -2 -10 3 6 8 34 40 37 38 41 60
84 56 85 56 63 4 2 -32 -101 34 -13 -14 -33 43 94 105 87 117 110 71 45 36 47 28 50 20 -16 2 5 27 11 6 7 9 19 10 5 -6 -7 -7 -8 -3 -2 27 54 44 42 40 38
71 143 119 79 76 45 11 45 40 110 66 136 -57 42 32 93 118 92 115 116 14 24 66 31 41 34 -7 -3 6 24 3 17 31 17 15 16 10 -0 -12 -12 -15 -14 7 30 49 53 47 43 50
123 178 174 98 59 46 -38 -26 21 60 -126 20 39 37 56 65 88 93 90 75 -1 8 50 40 32 -3 -25 -19 -1 25 30 12 12 17 17 20 15 15 5 -16 -22 -7 14 20 37 58 68 68 47
150 234 124 74 72 32 8 -11 44 28 -40 76 -29 111 51 85 63 82 114 59 -16 41 57 54 45 9 -2 -6 -15 -9 1 11 13 15 3 9 11 19 13 5 -16 5 13 10 33 42 46 51 52
150 142 71 53 60 59 37 -24 6 -6 85 42 139 180 134 128 147 117 129 97 40 17 74 68 62 23 8 16 8 -3 -4 -11 -18 -14 -4 -0 9 4 12 23 31 31 25 19 39 43 48 58 63
80 73 39 37 60 41 7 -7 -12 80 134 166 279 303 157 152 193 110 118 67 73 68 44 91 88 26 23 -4 -3 16 36 28 -22 -3 23 25 39 34 6 10 37 30 47 38 51 59 50 55 54
43 72 91 78 37 32 65 11 -28 -30 -14 90 158 271 247 179 158 159 80 43 85 72 55 72 83 92 52 38 31 25 18 33 37 36 25 30 38 31 27 3 20 19 33 38 50 54 54 52 59
112 106 78 20 28 36 73 26 -21 -47 39 -62 -55 74 69 120 256 205 75 61 67 81 90 80 91 91 71 50 67 67 49 41 39 39 44 48 40 38 34 28 13 22 31 39 54 57 48 40 60
64 72 82 39 35 32 33 60 22 -10 -4 89 -36 13 19 149 206 246 113 96 142 94 72 84 100 87 106 86 69 68 82 70 62 59 71 61 43 42 34 42 42 51 49 29 29 36 51 47 30

GFSSGP_con_3kmhel_120.txt.gz
Helicity
39 44 43 43 55 25 22 18 33 46 48 33 35 39 9 15 20 3 39 -11 -11 21 -11 35 44 23 -21 -17 -12 -10 -8 5 10 9 14 18 14 20 16 20 18 20 24 21 23 14 11 7 6
17 -1 34 24 43 19 11 17 41 52 62 41 53 37 30 -7 -5 25 13 -9 4 13 24 23 33 28 2 4 -4 -1 2 16 23 25 23 19 16 19 13 19 20 17 19 21 6 5 9 10 6
9 -7 22 32 24 1 15 14 48 60 87 37 43 1 7 7 43 30 20 -1 1 -4 14 -11 1 5 3 10 2 8 11 23 23 17 12 9 14 16 26 15 20 22 22 22 5 2 6 10 8
12 19 14 14 4 4 10 16 65 94 80 29 43 36 55 -27 8 6 24 8 14 10 5 -16 -8 -0 6 14 3 3 4 3 -1 -6 3 15 16 15 20 18 23 26 20 15 6 2 6 10 -5
24 20 26 20 1 19 26 26 39 65 65 57 44 58 72 -8 -16 36 31 13 9 8 -2 10 -10 -3 8 17 13 9 8 4 3 14 12 14 17 18 10 18 21 23 21 8 -10 2 10 15 12
14 19 31 19 19 35 31 15 31 44 83 58 73 107 41 -6 20 22 22 6 -0 4 -0 25 -4 2 9 10 16 15 12 4 10 13 10 10 15 10 17 14 16 18 19 19 -3 5 18 19 19
4 27 -5 20 29 24 23 10 27 52 64 53 61 54 69 49 8 5 2 -5 -8 -3 -9 2 14 -2 10 15 10 7 11 17 16 11 8 9 8 10 14 10 3 8 16 15 12 19 10 20 31
4 5 32 -20 16 21 25 16 13 35 16 38 21 35 94 93 22 -0 -0 -6 -18 -8 -4 -3 -1 -6 14 11 20 12 14 21 19 13 7 -0 13 11 8 6 8 10 18 15 17 17 20 34 45
-12 13 11 12 3 20 34 22 -8 26 53 31 1 6 89 82 33 16 11 6 -6 -8 -3 -2 -14 7 37 26 20 12 10 16 20 17 11 14 7 4 3 32 13 13 17 25 26 31 42 70 66
-5 -1 38 71 100 54 -4 4 10 29 41 40 29 64 47 56 34 31 26 16 3 -5 -11 -30 -11 -11 -2 25 14 13 16 18 22 26 24 14 20 38 24 21 27 32 39 40 44 62 81 116 44
-7 -4 65 84 92 43 -32 -4 9 20 48 58 64 100 54 38 29 22 13 9 3 -5 -7 -5 2 -5 -2 -2 6 24 20 13 11 19 32 33 14 19 31 33 34 33 64 54 70 83 54 38 48
17 14 22 82 90 118 19 36 -28 22 48 21 69 81 47 27 24 18 14 5 1 -0 -0 6 8 9 4 3 21 24 23 17 11 21 23 31 27 35 48 43 38 52 50 58 75 42 51 44 34
21 43 36 78 127 65 -34 -4 8 7 15 51 76 47 28 23 12 1 -11 -8 -5 2 -3 -0 4 12 10 16 17 23 22 17 11 10 19 26 22 25 31 28 36 59 52 52 62 49 44 38 14
39 35 40 51 84 -11 -38 -18 -32 4 17 53 72 50 33 9 7 -3 -9 -12 -3 -3 -3 -11 6 4 7 5 7 14 27 22 18 14 11 3 -1 23 16 25 30 39 57 52 50 43 47 31 -5
38 34 28 20 40 10 9 -11 -9 11 24 40 53 48 23 -10 -0 6 -5 -12 -5 -3 -13 -11 4 2 3 -3 5 13 12 11 10 7 -0 9 27 10 36 32 39 48 56 62 52 54 44 17 2
4 16 13 32 22 18 -17 18 72 6 12 45 33 40 10 -2 -0 -1 -1 -8 -16 -14 -8 -3 2 -6 -3 -8 10 6 -2 16 12 12 21 24 9 18 42 40 40 43 68 64 47 36 30 18 10
24 54 40 36 2 6 -20 74 109 82 -19 52 2 38 10 -1 -8 -3 1 -9 -7 -19 -10 -5 1 -4 -6 -5 6 8 -12 9 13 7 14 7 1 16 39 43 39 61 72 68 49 17 33 15 10
62 45 43 47 32 2 7 33 133 38 -14 -2 13 15 21 5 2 4 3 -4 -3 -8 -15 -11 -4 -13 6 -4 10 3 -0 10 10 12 11 12 17 28 44 41 62 87 72 56 50 39 31 32 21
71 51 60 46 40 20 1 -11 82 71 20 -35 -3 -14 -1 2 8 1 1 1 6 1 -5 -7 -4 -12 -2 10 10 7 -1 4 8 12 11 21 30 32 23 38 61 73 56 73 50 28 26 11 8
25 27 58 58 45 28 27 -3 12 -1 3 -31 -23 -0 -23 -7 18 1 -3 15 22 20 -2 -4 -9 -2 -5 1 22 14 5 11 2 9 8 17 27 20 27 38 45 48 46 50 50 47 35 20 18
10 7 51 63 41 25 20 7 45 27 23 -25 -49 19 -38 -22 -1 13 -6 18 27 31 20 -2 -4 6 6 15 7 16 9 7 15 2 8 6 7 5 20 29 44 31 43 35 54 55 60 28 28
9 34 47 53 36 49 25 64 13 68 59 35 17 25 -29 -25 -20 -1 3 5 35 29 26 7 -3 -7 -1 -6 8 7 18 17 8 -0 10 13 4 1 13 24 33 34 41 35 28 45 69 56 27
8 32 35 49 33 44 18 15 18 81 48 50 29 27 40 8 -29 -25 -8 8 20 25 30 23 -7 -4 -12 -22 23 5 23 19 20 10 -0 5 7 11 9 15 14 19 12 6 32 37 64 48 51
53 29 44 60 56 27 2 1 4 39 -5 60 68 -53 37 8 1 -24 -31 -9 -2 18 21 26 27 -6 -0 5 -15 29 21 11 26 23 22 20 2 4 6 11 12 22 20 15 22 43 46 57 70
19 23 43 44 51 26 62 2 -31 -2 -26 -41 52 -46 29 9 27 -7 -41 -20 -2 25 29 31 17 -7 -5 9 20 9 18 16 12 13 16 13 18 11 7 5 5 15 8 18 29 30 51 45 63
14 -25 -21 42 19 28 41 6 9 25 3 2 36 -2 41 38 -14 2 -15 2 -5 19 38 27 31 -7 -19 -17 -3 2 14 23 16 8 20 12 14 8 3 -0 -1 -1 6 27 28 18 23 29 36
66 5 -8 24 30 58 3 1 18 -2 -27 -5 44 89 38 47 -32 1 24 22 6 5 39 30 24 6 -13 -16 8 5 18 21 9 25 16 -20 -9 3 13 8 1 -2 20 24 31 21 27 31 26
-13 65 26 31 51 31 2 15 48 63 21 -60 11 53 34 36 54 70 71 51 15 16 43 35 20 20 10 5 23 22 31 27 11 9 3 16 17 19 23 21 22 21 20 28 33 38 37 38 35
60 18 30 43 25 38 20 59 88 30 44 -37 -72 38 35 28 105 116 90 78 50 40 52 45 34 20 22 15 30 40 38 38 33 23 16 17 20 20 30 34 28 26 22 25 24 27 36 38 37
62 38 32 40 30 22 43 -26 34 -1 67 -33 -43 41 42 105 82 124 95 90 76 53 63 60 48 39 15 28 32 33 34 36 34 32 30 34 42 38 34 38 45 44 41 36 24 23 13 32 29

GFSSGP_con_3kmhel_123.txt.gz
Helicity
65 105 69 36 70 65 34 12 10 17 10 17 18 6 19 58 52 61 27 -13 31 -18 -18 -55 -46 -16 -14 -29 -53 -32 -5 -5 1 6 12 10 6 7 11 12 8 4 9 5 5 -1 -5 1 0
91 15 41 57 59 23 45 7 9 -13 7 -4 10 47 34 30 29 26 2 -29 -22 -4 8 8 -11 3 -4 -23 -37 -5 -2 5 -2 3 1 0 13 9 11 11 14 15 12 8 4 9 14 16 13
79 36 86 93 25 23 54 2 4 21 24 37 6 14 17 41 10 1 19 -30 -6 30 32 30 26 19 -5 -20 -9 -5 6 -3 -5 2 5 10 19 14 19 18 19 16 10 0 6 17 16 21 16
52 49 48 48 -6 38 38 15 20 16 1 11 55 9 53 -8 -1 23 14 36 25 75 82 55 25 2 -2 4 4 4 2 0 -1 1 9 9 14 11 23 16 10 11 8 3 11 17 16 13 2
52 35 41 30 -14 3 34 23 8 22 -3 15 29 55 53 -6 10 4 -9 5 17 48 38 40 17 0 3 2 5 4 5 9 12 18 18 17 16 14 13 11 20 19 -8 0 17 15 7 -3 1
13 8 -7 13 14 24 28 14 21 -2 -6 3 21 36 36 11 3 3 13 14 4 10 88 14 12 8 7 6 1 0 0 1 12 12 19 15 20 14 12 10 17 19 -3 -5 1 3 0 7 9
57 -12 5 0 10 24 16 6 48 15 22 14 29 59 45 42 4 5 -5 -16 -8 14 58 12 9 3 10 3 2 5 2 -1 3 2 8 12 9 11 5 8 9 9 0 -2 0 1 15 16 16
11 41 9 -24 29 64 29 21 -13 -7 9 1 1 51 63 74 5 -4 -9 -12 63 26 76 29 12 -1 -4 -6 5 9 7 -1 -2 -2 -10 2 2 5 4 -2 13 16 5 5 7 25 33 23 25
7 0 -23 39 100 56 -3 22 22 7 12 15 -12 31 66 62 7 8 0 9 3 25 13 30 22 7 61 2 1 2 -3 1 -8 -10 -1 4 -11 1 -10 30 9 12 16 20 34 59 67 69 41
14 7 -7 51 153 155 -27 10 7 21 12 17 5 87 79 34 16 6 11 15 10 8 82 -1 43 -7 11 16 3 25 35 -17 -5 7 17 14 26 44 18 15 17 24 34 44 70 88 92 139 123
-16 3 20 37 195 136 -77 -27 5 1 -4 37 66 59 68 36 17 8 13 7 20 -3 26 43 -13 -19 -6 15 2 12 -2 4 9 10 12 10 17 16 14 27 48 51 94 86 128 144 80 50 45
37 -5 -7 65 132 155 -27 72 -18 -28 58 6 79 41 43 26 19 17 7 2 12 -11 -20 9 -13 -10 -13 -5 34 -5 0 -8 -8 13 5 13 10 23 49 27 23 54 14 49 100 -2 26 35 70
70 41 19 66 127 109 23 83 52 -4 10 33 45 25 19 23 8 -5 -10 -11 -2 -5 -9 -2 11 39 68 30 54 40 26 -10 25 -7 17 20 8 28 23 33 43 60 28 10 24 14 29 45 36
-2 38 29 50 48 36 -24 55 60 13 -18 36 28 15 12 7 6 -9 -16 -11 -1 -6 -13 -2 -3 -10 -12 53 90 42 32 49 -2 4 3 13 12 32 9 21 2 15 51 18 9 36 62 3 22
42 27 35 28 31 -7 -17 -15 -35 11 2 26 12 7 8 5 33 -4 -10 -6 -3 -8 -10 -4 -11 -1 -2 4 6 23 12 0 6 29 1 1 7 21 31 20 23 19 24 39 33 78 65 3 11
17 40 78 44 31 17 52 -15 72 74 -2 26 5 7 3 11 26 20 -9 -10 -11 -2 -6 -5 2 6 -5 0 10 16 20 23 51 19 -10 2 3 23 59 26 11 21 51 31 20 66 42 9 9
39 -13 32 57 15 48 33 49 20 133 12 1 -20 18 8 24 10 23 12 -9 -8 3 -11 -8 -16 -7 -9 -5 10 23 32 38 -39 18 5 6 6 14 78 29 14 77 29 31 7 27 18 25 0
19 26 51 42 41 24 20 23 81 70 28 -90 23 -20 5 40 26 16 30 11 -9 22 -9 -14 -16 1 -10 -14 26 22 1 22 -11 10 54 -4 6 17 69 24 50 91 25 31 52 77 43 37 38
50 68 35 108 38 19 18 41 87 82 33 -18 -56 -26 22 -2 34 48 13 41 14 8 -4 -7 -16 7 -18 -13 7 -2 12 16 18 12 -7 15 13 18 51 19 51 82 36 80 54 22 30 16 23
-3 8 14 78 45 19 29 1 37 132 91 -36 40 -33 -1 -2 32 50 6 43 23 15 6 3 -5 -5 -15 -7 29 35 3 24 1 12 -1 21 21 17 27 83 54 18 23 57 48 36 121 14 12
-10 -18 16 54 53 14 7 -13 49 69 68 6 22 -57 -7 25 28 48 11 32 42 30 12 16 4 0 -13 40 1 34 59 30 16 -2 4 14 20 11 38 24 88 55 96 25 38 53 42 67 18
-17 40 15 45 25 14 25 46 42 82 62 91 39 -15 -24 -53 10 53 32 6 35 65 8 30 8 5 -18 3 -18 12 29 12 21 -3 25 4 14 17 6 24 31 43 78 54 30 21 57 52 49
-18 68 22 22 -6 7 27 22 -6 98 98 83 83 -3 -8 -44 -100 57 50 21 41 64 31 15 1 -13 5 -6 28 -25 17 7 -12 28 13 27 12 23 23 20 28 35 38 15 42 42 39 69 68
5 36 -4 4 8 12 -19 43 -20 88 43 13 47 37 -39 39 -29 -1 56 54 25 63 49 29 23 -10 4 38 -12 -9 15 40 66 14 -5 -5 -5 -7 7 12 23 28 43 21 28 28 35 70 81
-3 -8 10 21 43 14 112 20 14 16 56 10 77 80 52 70 27 -18 27 68 95 24 80 38 38 4 9 23 -16 15 19 20 16 16 9 26 23 -31 92 7 16 10 14 36 35 36 71 55 78
14 -36 -52 11 -8 131 56 45 71 140 39 37 35 83 60 91 58 -9 27 69 142 54 86 39 76 25 15 24 33 37 26 29 12 19 23 16 9 35 25 14 11 3 30 20 28 23 26 5 20
-4 36 -46 5 3 3 143 21 109 169 74 21 7 91 85 12 -51 40 51 25 114 125 79 44 73 41 21 18 24 41 28 34 36 62 34 19 18 19 11 0 -4 -5 6 11 22 18 24 40 34
-44 47 11 18 -21 10 10 2 106 176 146 38 7 57 57 10 16 62 52 62 106 98 71 38 52 44 37 20 26 33 40 32 35 47 21 32 27 29 29 19 15 14 14 22 25 20 26 34 24
41 38 15 39 9 17 -22 102 107 30 96 38 85 12 59 52 93 62 212 40 126 124 65 49 48 50 37 36 46 36 18 19 35 19 33 19 30 29 21 20 23 23 24 23 32 14 35 44 37
48 31 38 8 74 96 47 89 135 59 33 124 -20 30 37 75 50 83 93 47 158 145 53 66 53 52 38 52 69 61 57 49 44 36 25 47 17 33 33 21 20 31 35 42 50 36 19 47 26

GFSSGP_con_3kmhel_126.txt.gz
Helicity
61 75 64 88 -9 18 60 36 17 17 37 21 13 33 66 108 59 83 59 -3 -17 -19 -34 -53 -45 -38 -29 -42 -65 -67 -57 -31 -21 -5 4 9 9 10 12 22 10 12 10 9 3 -6 -10 7 7
36 141 65 11 61 4 37 42 64 29 90 62 34 14 66 60 88 78 49 0 0 10 -10 -33 -32 -40 -25 -34 -75 -46 -28 -12 -3 2 10 12 15 12 14 27 21 15 15 17 11 1 3 9 6
63 104 35 39 33 13 76 55 64 41 84 -12 34 68 35 43 26 27 22 1 0 21 43 17 -1 10 -6 -32 -39 -40 -21 -7 4 9 12 16 19 18 12 20 20 16 10 6 -3 -10 6 7 7
106 69 66 50 87 10 67 61 19 45 45 9 80 25 33 59 34 36 -5 25 43 171 63 29 17 -2 -10 -38 -14 -2 -2 -2 7 6 11 12 17 17 17 21 18 9 -2 0 -1 0 -2 0 -4
96 19 28 16 36 45 43 49 1 40 17 31 101 57 49 58 66 18 9 185 302 -9 66 34 25 7 11 3 -18 9 9 -6 -2 -2 3 17 14 18 20 21 9 -7 -2 -4 -1 -2 4 13 4
15 21 17 7 -11 59 25 46 28 25 13 45 62 41 38 45 9 57 -8 165 35 -122 77 49 26 8 12 15 13 -6 -6 -2 -1 7 6 12 15 20 12 11 4 -8 -3 -4 -6 0 12 25 22
106 66 28 24 6 99 29 134 -16 34 47 45 114 86 43 42 -9 86 -25 38 39 27 51 27 12 1 6 0 2 -5 -13 -6 2 2 -1 5 8 8 3 4 0 -2 8 3 15 23 34 49 34
17 86 -11 -12 27 49 84 14 13 9 29 73 -17 78 59 53 6 41 40 16 162 195 27 21 3 -3 -4 -8 -1 2 -4 -13 -15 -6 -4 -11 0 0 2 5 9 11 21 19 45 56 50 47 36
-10 -24 38 -54 -67 86 42 27 30 20 2 78 58 34 70 16 32 -16 -15 38 44 -23 62 26 26 -9 20 -4 -15 -12 -8 -19 -32 -23 -18 -9 -48 -9 5 23 13 21 40 63 77 84 91 51 -11
42 -33 -17 8 98 181 11 38 21 7 18 91 90 137 125 -5 21 15 20 -13 44 142 15 60 83 -14 -5 -2 -20 -22 -31 -17 -7 20 -3 16 55 18 5 15 30 48 74 86 100 111 117 138 96
11 10 25 64 100 33 -58 48 139 23 -22 54 121 76 63 12 28 47 79 52 106 142 -15 -1 8 107 44 -1 -29 -27 6 -19 26 26 7 -3 12 -5 11 35 51 74 106 107 148 90 95 238 148
35 9 11 100 74 74 198 28 146 77 88 127 127 47 21 10 13 50 19 24 119 74 0 13 140 83 -1 -7 7 35 -11 0 2 7 -10 -7 9 30 68 74 88 118 177 65 71 90 59 51 102
64 29 22 39 69 95 -15 -30 101 54 102 7 75 30 29 -8 -1 16 16 17 51 21 2 117 43 12 41 30 -53 10 -20 -1 29 -8 37 -9 48 19 38 35 61 84 74 58 47 47 93 56 34
60 -10 55 50 101 53 21 -57 -21 51 31 51 37 46 85 -10 -17 54 41 13 -1 52 19 50 38 -33 -13 21 -21 73 154 13 8 21 6 57 9 11 17 46 57 27 33 14 31 59 67 48 18
85 4 99 48 54 6 -37 52 -14 241 159 53 21 33 80 11 18 10 15 50 -5 4 38 10 -19 -20 18 14 49 19 30 19 79 86 6 14 11 19 31 50 56 27 9 40 47 68 74 5 40
11 110 50 90 61 46 92 53 163 71 130 13 15 20 40 56 27 -5 33 5 44 0 61 -4 -21 -20 -27 -2 21 59 58 88 46 -13 17 5 40 17 41 16 21 34 55 65 109 108 38 49 24
11 92 71 47 59 61 97 79 36 3 184 16 -46 -6 102 63 23 36 18 -10 44 85 73 -15 94 3 -17 -22 22 32 51 57 9 28 49 4 21 22 48 15 22 32 52 45 59 91 7 -16 42
78 0 76 51 83 45 31 30 62 0 17 9 106 40 89 96 10 46 28 19 46 104 42 -20 15 44 7 -10 -6 26 24 55 15 28 45 -1 23 19 49 60 73 24 -3 98 44 87 29 43 44
38 35 38 84 36 65 22 48 115 79 55 138 -64 -86 -14 79 103 50 24 66 82 59 15 1 92 55 3 -23 -5 26 9 8 49 15 17 3 4 29 49 86 33 -21 33 123 64 62 86 27 26
40 30 12 82 109 56 2 47 117 232 130 184 39 -83 16 17 136 77 21 89 110 69 15 -8 20 42 -3 -48 -14 -5 42 29 31 -14 26 9 17 25 72 58 45 36 130 26 26 7 77 81 101
28 -15 3 82 90 29 -9 -35 8 143 160 104 44 9 -101 -7 186 12 91 76 158 131 55 9 20 3 -24 -40 54 48 27 73 -14 1 9 30 22 10 34 42 4 80 44 55 -7 50 -1 5 83
3 20 29 44 62 17 114 26 14 131 189 103 184 146 -98 -43 32 64 100 97 156 179 93 32 46 -18 -46 -10 -6 -38 15 10 -8 15 29 35 2 16 15 39 17 41 30 55 80 14 -37 29 43
18 57 58 36 23 -10 91 29 -6 141 163 166 103 147 -24 -80 -48 108 44 112 146 217 116 108 56 13 -29 -18 16 -26 -10 29 51 14 33 30 11 16 31 25 15 27 36 44 28 36 41 24 28
29 29 24 -12 7 55 60 54 -11 75 172 214 52 97 125 -43 60 124 48 103 170 195 144 141 81 54 37 -17 4 2 -12 24 11 36 45 21 31 -3 6 10 22 12 28 39 32 35 26 32 38
6 -14 11 4 19 14 42 20 60 163 110 94 48 134 160 50 -67 14 14 111 200 204 120 169 111 96 27 26 -31 -4 19 -1 26 38 -19 -15 8 47 33 22 41 28 33 21 29 33 23 24 43
19 -22 -44 -52 44 24 15 124 65 81 99 4 -9 -58 91 105 -49 -39 140 146 73 186 246 182 150 109 63 1 -10 38 29 26 9 36 -7 20 19 20 26 35 43 34 35 15 20 30 36 -25 -10
-37 34 -8 -6 18 0 49 136 200 126 70 109 45 103 158 32 98 -29 37 102 274 85 295 233 187 116 78 64 45 65 63 42 61 65 42 52 40 24 15 24 36 10 43 29 26 41 31 21 40
-37 59 54 25 27 29 10 232 266 174 142 35 31 85 174 111 109 158 128 120 153 223 269 196 243 128 84 41 62 65 54 52 56 76 50 52 53 32 45 32 27 9 28 35 34 37 35 2 46
47 13 46 38 74 66 52 77 68 89 60 106 181 318 5 48 115 134 -3 128 171 290 232 266 255 123 74 14 51 51 47 38 53 58 43 41 40 43 32 28 22 24 38 33 33 38 -3 46 42
-3 26 15 36 2 34 67 40 11 42 82 73 135 177 142 35 97 79 193 188 116 124 226 251 265 157 89 57 55 61 77 85 78 38 48 56 47 54 37 37 34 37 35 28 38 36 29 53 53

GFSSGP_con_3kmhel_129.txt.gz
Helicity
29 41 30 -6 1 13 48 21 58 -0 43 33 37 29 151 78 48 21 -45 -49 -73 -68 -66 -54 -34 -23 -18 23 -1 -14 -47 -13 8 -1 11 11 13 23 21 16 21 26 19 10 -2 1 -0 -1 11
30 20 8 -13 49 28 38 123 73 63 44 47 89 56 143 120 153 -3 -73 -73 -48 -60 -69 -64 -32 -56 -36 -17 -37 -57 -64 -39 -29 -6 5 7 9 10 9 22 15 15 16 12 -3 -6 -3 12 8
29 7 24 15 46 -12 80 92 85 27 71 52 26 44 6 -5 8 -49 -86 -42 2 -19 -37 -21 -33 -35 -47 -47 -37 -29 -25 -13 -8 -2 7 7 4 12 18 12 8 5 15 14 8 -0 11 11 2
30 -11 15 24 96 59 93 76 133 18 -19 53 113 50 39 58 -9 -62 -9 5 -18 -22 -12 -17 19 5 -6 14 -37 -48 -20 -2 6 9 15 12 12 21 14 11 4 8 12 10 4 6 10 7 16
15 47 -7 57 56 56 60 123 14 26 132 104 148 121 -15 28 23 -7 63 79 97 32 -3 -10 4 18 6 -15 15 15 15 22 23 19 18 18 17 9 10 2 -3 3 4 8 10 19 12 14 21
58 -2 21 -67 139 202 167 10 62 116 118 128 135 109 -39 1 -1 88 163 102 15 11 9 8 8 12 11 5 4 14 18 20 20 15 18 16 14 15 9 -0 -6 -4 8 22 35 35 29 25 20
91 -3 -42 102 136 45 12 -5 -7 94 81 87 142 99 -14 -26 83 201 174 46 -85 -11 21 7 -4 1 10 18 16 8 14 16 18 12 10 6 10 9 6 -11 -2 6 35 50 56 56 40 26 26
244 8 -18 -70 1 -12 9 -2 -17 113 69 97 128 106 90 73 92 148 41 13 -42 -42 5 2 -18 -28 11 26 24 -0 2 4 8 6 2 -0 1 9 8 20 8 33 56 69 66 57 30 12 9
159 -13 8 35 -94 51 125 99 26 80 37 23 46 135 129 1 26 120 33 -56 -70 14 -48 -7 -15 -37 -24 -30 9 25 -2 -7 -15 4 4 6 27 24 21 27 43 58 74 80 94 95 51 8 4
83 43 19 16 21 -25 -10 89 103 -2 79 64 57 133 82 36 29 85 42 18 56 86 66 -43 -32 -4 -15 -28 -44 -14 3 9 8 -4 -7 6 34 39 25 41 60 61 80 89 103 105 88 78 35
-1 9 16 14 42 32 102 66 209 84 190 85 292 228 58 133 39 72 97 95 45 49 14 -8 -10 -31 -13 -34 -61 -46 -16 15 29 31 -7 20 43 61 43 40 44 56 92 82 97 113 116 118 82
27 30 33 152 82 73 -7 83 87 73 -20 -3 129 110 -0 70 52 76 68 192 114 -2 -42 -5 -30 -81 46 -43 -50 -80 -35 -0 -4 36 7 -12 38 37 45 55 73 94 78 100 113 144 166 221 179
12 14 67 70 66 86 22 -19 48 107 43 65 53 45 -13 16 64 78 177 171 33 24 29 -26 -45 34 49 53 8 -2 13 -12 -13 -31 8 20 52 33 64 90 113 151 140 165 137 117 95 77 31
3 73 54 97 104 107 -25 -34 4 78 163 6 51 -5 68 -37 -1 39 100 119 20 35 35 -15 17 34 13 -11 -9 5 20 19 6 4 20 36 64 36 42 70 95 111 95 118 104 87 81 74 23
31 71 104 65 71 6 27 -11 38 38 119 122 77 85 91 25 -44 119 53 63 22 62 65 56 23 13 31 -42 -33 8 54 25 28 15 10 9 25 20 37 90 109 82 27 56 42 42 21 66 24
97 66 52 172 126 16 -0 70 32 71 82 42 97 216 48 -39 -7 22 89 163 192 147 64 29 28 -18 -2 2 -19 38 10 23 34 36 58 16 25 35 33 66 75 61 32 39 27 29 25 75 35
-64 104 220 163 -1 54 92 96 72 -42 54 -56 95 94 76 -4 124 129 71 132 215 149 40 -5 50 25 -16 -60 60 -2 -2 -1 53 14 46 26 32 27 -5 27 72 66 12 -5 48 85 22 54 87
-0 -3 99 120 -15 51 27 47 67 -53 -35 -29 -38 68 14 163 170 189 121 175 241 156 88 76 6 -25 -18 -34 35 22 -25 55 25 43 39 38 42 28 -2 34 37 28 37 49 47 39 64 45 27
88 84 112 57 49 55 -6 63 24 108 61 55 -181 9 -64 -1 160 184 161 284 221 195 127 50 14 -24 -20 -20 52 49 15 33 51 9 9 13 28 14 40 37 14 8 33 32 27 -12 50 36 42
25 34 53 31 24 27 92 74 156 152 189 124 43 -48 22 23 -44 75 234 344 322 214 125 49 8 -24 -11 -39 -35 44 39 23 24 40 25 31 21 25 49 12 36 25 68 118 39 13 -11 43 -40
50 90 -6 221 66 54 28 -1 139 223 158 234 130 -58 -55 -8 1 27 297 292 351 206 108 155 86 -10 -16 -45 -39 18 50 86 63 38 27 7 43 36 24 6 19 51 88 114 56 54 39 92 40
79 -27 29 73 87 23 120 39 39 189 328 227 158 80 -96 -2 14 -24 212 332 341 223 129 189 152 2 -13 -2 -25 -9 -18 -13 48 43 6 31 22 13 50 5 16 62 78 23 27 18 85 5 -45
10 13 54 105 123 104 70 76 8 209 320 293 174 161 22 -98 -27 -14 46 343 339 275 195 146 185 62 -7 16 -19 -23 -20 -21 20 30 14 22 27 21 32 47 32 17 17 51 -2 22 20 14 -31
30 42 67 73 66 4 124 193 76 243 301 263 191 145 72 54 -28 -38 -38 320 317 281 218 173 121 80 14 22 -12 -41 -29 -12 50 74 44 42 28 37 1 35 20 18 27 32 21 36 45 40 -21
83 91 65 41 29 35 2 32 137 117 85 348 275 165 13 16 62 88 94 210 346 284 271 216 149 39 74 25 -15 -44 -18 -37 12 29 10 25 30 22 -29 10 20 10 17 39 45 33 49 -5 5
42 21 22 108 85 22 -65 70 119 80 93 110 181 129 44 4 62 140 76 105 283 266 284 198 177 56 66 65 -3 -37 -45 30 44 1 -8 -1 7 8 9 35 64 28 32 28 37 46 33 -2 -6
2 -7 20 28 22 53 19 217 284 166 154 68 60 98 48 237 187 105 52 96 250 233 292 224 255 150 65 79 44 2 8 9 -22 -28 -32 33 29 35 23 25 43 36 29 27 32 28 3 26 35
19 -12 55 54 68 100 47 202 146 163 154 92 128 131 33 126 96 112 124 185 229 249 294 320 285 265 99 87 84 76 81 69 38 87 59 38 58 60 49 31 35 37 32 25 29 28 24 39 20
25 46 57 38 84 122 87 48 -2 13 68 59 63 110 234 247 64 85 252 220 187 272 362 343 299 257 143 131 104 102 79 63 73 100 74 66 64 60 61 52 47 34 31 32 41 27 28 17 13
54 45 68 107 82 94 34 16 8 17 93 78 44 92 129 105 184 131 114 333 233 284 431 347 309 300 233 165 129 124 75 35 41 87 76 58 47 49 43 40 37 33 34 45 43 31 29 26 28

GFSSGP_con_3kmhel_132.txt.gz
Helicity
45 10 -22 33 -20 -14 30 67 44 40 91 54 102 88 142 142 24 24 -39 -9 -59 -50 -74 -55 -27 -28 -19 -9 12 39 159 85 57 45 45 31 32 36 22 25 21 21 -4 -20 -6 9 7 -1 4
16 -6 16 4 -1 38 64 108 111 122 57 59 67 140 114 62 94 57 -52 -77 -52 -61 -81 -57 -36 -33 -23 -4 27 20 93 32 30 46 34 35 32 28 16 26 28 18 -12 1 7 10 9 9 4
3 -1 13 -2 -25 3 33 68 151 59 63 21 -7 106 0 -18 -6 -62 -77 -57 -24 -48 -56 -66 -41 -10 -38 -36 -20 40 110 23 57 18 32 27 25 22 21 18 13 11 -8 -5 2 6 4 6 5
4 26 72 -27 -4 18 6 56 108 170 170 87 104 92 -45 -18 -35 -90 -40 -30 -37 -65 -69 -12 -20 -6 -19 29 53 39 16 26 27 14 23 24 19 21 11 4 2 10 10 -4 4 9 10 14 14
5 19 8 107 14 -17 42 59 62 164 80 140 129 27 -43 -16 -33 0 -33 -14 12 -27 -26 -9 13 42 44 13 -21 -25 -3 24 31 26 22 27 15 10 -1 -6 -4 1 6 13 13 18 23 22 30
0 6 54 69 55 -8 33 21 155 231 148 115 112 94 -64 -39 56 -4 18 8 12 -7 -21 7 9 7 -6 20 1 2 12 22 26 30 27 24 22 9 0 -6 -6 -1 23 34 29 35 35 37 49
20 96 38 -19 97 21 56 1 133 214 125 48 118 59 -4 14 24 67 26 30 16 -9 -27 -19 -8 6 18 15 17 16 14 21 17 23 20 18 18 12 2 -8 2 19 38 43 37 28 32 44 56
66 58 19 86 115 99 77 54 105 112 60 116 154 3 47 54 104 39 9 -7 -11 -21 -31 -31 -18 -14 -2 10 13 16 23 23 26 27 16 16 18 11 6 43 44 48 63 55 43 30 14 7 7
81 128 -38 -118 -8 -3 110 38 5 86 137 72 24 24 107 166 268 108 -64 -41 -53 -41 -35 -32 -23 -9 -1 9 26 23 26 28 23 29 28 30 39 39 39 55 58 65 85 84 72 49 20 7 3
29 52 -22 -91 -1 -1 124 59 80 22 83 181 148 159 209 169 171 60 13 -17 -30 -52 -37 -21 -24 -23 -9 11 14 26 31 26 17 13 17 38 48 54 49 62 70 82 89 87 84 71 65 53 18
80 76 33 21 34 21 67 119 109 61 146 179 175 200 214 157 109 101 23 20 26 42 -28 -37 -56 -30 -18 2 3 6 4 11 18 20 24 39 51 66 60 62 76 73 87 80 78 82 89 75 58
25 47 44 35 43 15 3 74 168 161 80 148 161 147 167 102 120 148 110 20 0 48 -10 -21 -35 -31 -34 -40 -37 -18 -5 10 19 36 49 49 49 69 85 84 89 100 102 119 108 96 131 138 107
20 52 17 32 66 27 63 14 71 100 -61 73 108 191 105 121 120 132 115 61 59 69 11 -2 -27 -24 -30 -37 -60 -15 -3 -2 33 50 32 46 59 55 75 104 110 120 134 160 175 143 134 132 118
39 112 39 41 39 18 -42 -12 7 159 162 44 65 67 73 68 136 211 172 140 68 21 -21 -13 -7 -32 -24 -20 -21 -24 -10 -4 4 18 26 73 79 62 85 102 127 135 146 164 127 86 84 53 25
59 124 96 19 56 5 -56 -22 63 64 109 -28 -4 -29 45 93 243 194 165 120 87 24 -14 2 6 -30 9 0 -17 -24 -42 -14 0 25 15 60 82 60 61 72 101 98 116 88 55 49 50 51 37
50 116 62 15 24 30 6 19 3 -20 10 -3 -26 -40 30 188 235 89 128 132 83 89 8 -30 6 2 5 -10 -11 4 -20 -5 15 27 26 17 22 18 37 43 57 80 65 15 -4 -18 56 76 86
-48 60 79 29 34 45 73 -7 -4 87 -14 -11 -4 35 61 114 122 185 178 197 136 67 15 37 29 11 -28 -32 -9 19 -15 12 41 49 53 28 17 6 10 9 23 51 33 11 4 1 3 12 14
-4 73 95 95 -12 79 57 4 -15 66 45 -7 15 59 2 10 68 187 230 271 174 70 60 46 23 -16 -28 -23 -20 28 48 30 23 27 33 28 28 19 7 14 31 43 39 9 37 21 -15 31 -25
-40 -33 124 15 65 54 37 -14 13 -15 -54 3 42 35 87 -53 86 212 244 257 239 111 90 53 31 36 56 63 -12 0 6 21 36 27 21 19 39 38 3 4 33 47 60 15 40 4 7 65 -5
-3 48 80 48 52 26 33 42 39 55 9 19 112 60 66 38 99 209 267 245 286 216 139 70 8 33 -13 62 31 7 -17 -15 30 38 30 23 28 41 24 21 39 17 25 57 56 28 4 22 64
63 73 97 53 39 17 110 -1 136 97 49 13 -35 -7 -13 86 126 222 306 292 254 286 196 136 43 50 -16 -28 2 115 73 77 40 55 29 23 29 35 40 25 34 40 56 58 86 49 94 11 24
23 30 -11 79 98 -5 122 25 27 204 232 140 -7 77 162 99 150 259 241 294 332 298 237 158 86 89 13 -17 -19 -7 -12 0 18 16 16 15 26 34 35 35 19 37 44 70 84 48 76 34 50
4 63 10 79 41 86 84 59 52 52 186 214 143 18 151 168 171 288 294 249 311 264 248 166 128 107 44 40 6 4 -9 -14 4 0 14 27 31 33 27 18 9 -9 5 35 67 54 71 23 27
26 70 81 83 80 44 -20 65 -10 36 147 182 143 89 66 122 162 78 242 217 279 232 242 185 159 101 79 53 -2 -21 -35 -25 -16 -24 -6 -15 5 25 29 36 29 48 32 24 23 7 17 24 32
82 86 93 35 52 17 37 52 125 23 22 159 204 153 54 136 178 138 227 210 182 248 254 226 185 103 128 99 59 -9 -32 -42 0 5 -6 -18 -17 13 -2 22 24 21 26 19 30 26 30 26 29
79 97 67 48 81 66 18 29 63 104 79 71 92 118 90 102 165 207 174 180 293 262 284 252 208 185 118 122 84 24 -1 -27 -32 -9 -14 0 -15 -17 10 -5 6 29 15 28 42 41 33 39 41
68 28 0 52 63 101 26 48 133 182 128 79 39 75 52 133 142 134 98 239 328 265 302 254 203 191 153 110 88 53 22 34 -26 -28 -20 29 10 7 18 19 -3 37 41 31 37 38 42 52 44
65 32 81 90 88 83 79 75 53 82 52 11 -14 27 60 46 126 123 165 225 259 310 310 262 239 205 153 132 77 90 77 42 14 -18 -33 -34 26 27 25 25 31 32 35 33 42 34 32 43 38
22 70 66 51 51 69 110 101 26 83 41 41 13 16 47 71 105 213 174 212 228 249 277 287 304 218 192 147 150 91 125 106 75 79 56 34 84 54 31 44 36 35 35 37 42 41 47 45 31
40 22 85 96 49 106 88 91 94 97 39 42 19 -7 51 76 81 107 145 223 278 283 251 281 305 225 206 184 164 150 120 175 154 101 78 98 87 78 66 65 48 44 41 35 40 34 47 32 17

GFSSGP_con_3kmhel_138.txt.gz
Helicity
20 31 26 7 0 8 32 56 100 74 75 32 92 63 85 43 8 -5 35 44 54 49 8 18 0 53 75 108 84 71 63 48 25 36 23 30 22 26 24 17 9 18 9 15 10 7 19 18 21
12 23 -5 -7 8 10 40 50 76 60 61 113 158 75 72 24 -1 50 17 68 57 47 38 -25 32 47 78 110 143 119 107 66 37 37 20 22 26 23 15 10 14 2 11 15 7 16 12 16 17
5 9 -7 7 12 39 58 47 82 54 45 43 76 38 16 27 14 9 4 10 14 11 45 13 9 41 39 77 127 172 124 77 33 22 18 20 20 16 10 14 9 13 17 4 15 4 9 6 4
13 -18 -2 -3 10 -8 31 83 66 18 51 52 68 57 20 -8 16 -9 -22 -18 -28 -11 52 44 19 22 37 47 99 197 176 70 43 15 22 23 20 21 20 11 20 17 10 17 6 -1 1 6 -4
12 1 61 99 65 -5 49 72 45 27 37 44 68 80 20 26 -30 -15 -33 -23 -13 -36 54 67 59 36 19 1 25 172 163 112 28 20 30 30 32 27 35 37 28 21 22 17 7 5 -4 -3 2
24 33 90 134 111 90 -18 55 57 53 27 49 191 144 31 -36 -1 -20 -11 -14 -15 -53 -43 -12 16 2 16 -4 -4 2 56 27 6 25 39 35 37 39 38 35 37 36 24 19 19 23 9 5 5
46 80 99 96 97 115 9 19 66 59 36 31 158 134 18 -39 -14 -21 -12 0 13 29 4 36 45 48 26 11 1 -10 -12 8 24 36 40 33 33 27 33 35 31 23 22 25 26 30 16 -37 -34
28 47 49 78 -7 13 -25 -15 41 37 18 66 115 84 63 -60 -11 11 1 -14 -4 13 26 28 34 41 30 16 20 21 31 40 35 42 45 41 35 30 31 46 39 33 26 28 29 23 -5 -18 -28
25 11 -53 -24 16 -16 5 8 19 10 88 22 56 59 -1 37 46 16 27 -14 -11 8 9 22 36 32 -3 -2 7 18 31 38 38 37 46 58 57 46 49 63 59 54 46 44 34 22 0 -14 -27
13 6 33 -2 13 9 7 25 76 -7 78 -19 3 55 124 44 45 46 32 10 -11 -3 1 5 17 22 36 40 50 26 51 56 56 53 49 49 59 64 76 86 87 83 77 66 56 46 33 13 12
19 -21 14 22 21 29 30 61 32 69 66 10 42 132 127 14 5 1 3 12 1 -9 -5 -3 12 14 18 20 30 33 46 54 59 53 45 53 59 81 90 93 93 95 98 80 61 62 68 61 63
17 39 33 62 51 1 -10 14 4 128 31 17 74 120 106 26 -2 -2 -8 7 -2 -5 -9 -11 3 14 22 29 31 37 41 47 58 60 53 59 67 80 90 95 91 75 54 50 51 52 71 71 66
24 18 34 35 98 43 32 82 42 -1 5 106 113 54 32 26 -11 -5 -6 -4 3 -2 -4 -3 -4 5 18 20 29 29 36 41 41 59 73 64 76 87 88 88 76 68 66 55 54 65 79 84 74
29 8 26 87 103 18 -24 -20 26 25 104 130 99 31 18 38 47 -20 1 10 22 -7 -15 -20 -9 2 7 15 14 24 31 36 49 64 70 75 80 74 82 82 61 61 68 56 54 44 42 38 22
23 22 28 73 107 58 17 18 43 18 85 118 71 44 23 -1 50 38 26 50 57 8 -20 -6 -23 -22 2 10 14 20 24 32 58 68 68 68 70 64 62 58 59 49 55 58 27 24 39 40 -4
56 11 22 73 115 62 119 68 43 70 145 84 49 28 65 57 66 81 47 19 43 29 -28 -26 -12 -29 -19 -8 22 15 16 20 37 52 49 47 53 39 36 42 45 34 44 25 23 36 48 38 13
45 56 19 13 109 74 169 91 114 121 168 107 60 53 53 87 92 75 48 47 56 55 -18 -23 -18 -26 -21 -42 -2 14 9 2 39 42 52 57 52 27 15 24 18 15 9 5 19 33 22 16 1
49 52 53 41 9 89 141 46 60 103 183 167 94 95 87 114 170 181 117 76 56 58 8 -28 -28 -52 -16 -27 -25 6 3 19 19 45 45 52 40 11 6 11 8 4 -9 3 12 24 32 -16 -14
34 38 68 70 55 67 107 83 60 83 118 168 126 95 97 109 142 207 188 119 93 63 29 -23 -25 -42 -11 -12 -24 -4 -10 -1 20 27 24 34 28 19 9 5 0 -6 -17 -5 6 1 17 42 5
35 48 47 32 15 45 -3 12 77 103 117 173 181 99 24 61 124 138 154 165 145 131 63 10 -13 -25 0 11 -4 6 -11 2 9 4 16 21 30 29 11 8 -1 -13 -18 -17 -14 -27 -13 -26 10
13 20 25 39 14 41 20 18 54 48 16 105 110 107 74 127 174 118 138 143 131 121 103 69 58 30 17 3 19 63 45 40 49 19 26 33 39 30 19 5 16 4 -6 -46 -14 -52 -41 -39 20
24 20 45 49 91 56 47 78 53 17 105 134 137 163 166 188 114 139 106 139 140 148 101 100 72 64 14 1 6 28 4 -5 14 13 34 28 29 26 26 18 18 20 8 -37 -71 -21 -7 -16 -45
9 17 32 74 111 84 26 48 46 21 -3 87 133 165 193 241 238 192 148 145 172 150 142 113 121 91 62 65 49 33 21 -14 10 47 38 34 30 26 32 32 21 39 42 5 2 -1 8 11 21
55 116 186 149 94 53 27 38 124 28 -6 9 7 132 192 224 231 223 98 92 95 120 104 120 118 137 111 106 85 74 29 5 8 24 36 27 38 40 31 36 31 43 49 51 57 54 0 18 42
126 172 166 128 106 46 39 63 48 18 -28 17 49 41 136 208 274 280 209 135 110 120 156 162 145 125 168 150 100 70 46 15 11 5 22 39 44 49 27 37 37 35 32 33 47 18 14 3 32
100 103 123 67 66 53 70 10 4 -7 -4 1 4 32 111 147 213 332 336 225 182 194 165 174 133 145 169 220 173 88 43 28 13 15 16 3 31 36 38 46 38 24 27 29 36 34 29 -27 -36
80 127 87 142 169 79 48 52 37 31 28 26 37 39 27 70 136 248 284 257 277 252 162 174 111 94 109 170 175 127 51 32 13 -4 18 20 15 23 25 44 34 14 25 53 70 18 -21 -1 -8
69 100 138 186 82 70 60 57 26 37 69 60 62 48 8 37 71 127 187 206 218 212 248 235 107 49 82 91 143 147 105 37 19 14 16 13 5 16 5 18 18 32 36 59 67 59 -7 13 -9
89 103 109 93 104 53 42 33 10 14 37 36 17 28 4 14 63 97 112 136 187 164 255 194 117 80 45 65 145 179 132 74 19 21 20 16 20 42 50 51 49 38 41 60 63 46 44 50 44
50 35 63 82 58 72 54 39 32 30 37 43 47 14 8 8 35 98 121 138 177 195 212 78 93 151 138 -29 74 125 153 110 76 33 21 37 13 42 39 52 45 67 71 71 63 54 71 68 51